[[{"header":{"parameterUnit":"m.s-1","parameterCategory":1,"la1":30.6,"la2":28.766,"lo1":-90.7593,"lo2":-88.6598,"dy":0.0162,"dx":0.0183,"nx":116,"ny":114,"refTime":"2023-05-05T00:00:00:Z","depth":0,"parameterNumber":2,"parameterNumberName":"U-component_of_WINDS"},"data":[0.0,0.0,0.0,0.0,0.0,0.0,0.0,0.0,0.0,0.0,0.0,0.0,0.0,0.0,0.0,0.0,0.0,0.0,0.0,0.0,0.0,0.0,0.0,0.0,0.0,0.0,0.0,0.0,0.0,0.0,0.0,0.0,0.0,0.0,0.0,0.0,0.0,0.0,0.0,0.0,0.0,0.0,0.0,0.0,0.0,0.0,0.0,0.0,0.0,0.0,0.0,0.0,0.0,0.0,0.0,0.0,0.0,0.0,0.0,0.0,0.0,0.0,0.0,0.0,0.0,0.0,0.0,0.0,0.0,0.0,0.0,0.0,0.0,0.0,0.0,0.0,0.0,0.0,0.0,0.0,0.0,0.0,0.0,0.0,0.0,0.0,0.0,0.0,0.0,0.0,0.0,0.0,0.0,0.0,0.0,0.0,0.0,0.0,0.0,0.0,0.0,0.0,0.0,0.0,0.0,0.0,0.0,0.0,0.0,0.0,0.0,0.0,0.0,0.0,0.0,0.0,0.0,0.0,0.0,0.0,0.0,0.0,0.0,0.0,0.0,0.0,0.0,0.0,0.0,0.0,0.0,0.0,0.0,0.0,0.0,0.0,0.0,0.0,0.0,0.0,0.0,0.0,0.0,0.0,0.0,0.0,0.0,0.0,0.0,0.0,0.0,0.0,0.0,0.0,0.0,0.0,0.0,0.0,0.0,0.0,0.0,0.0,0.0,0.0,0.0,0.0,0.0,0.0,0.0,0.0,0.0,0.0,0.0,0.0,0.0,0.0,0.0,0.0,0.0,0.0,0.0,0.0,0.0,0.0,0.0,0.0,0.0,0.0,0.0,0.0,0.0,0.0,0.0,0.0,0.0,0.0,0.0,0.0,0.0,0.0,0.0,0.0,0.0,0.0,0.0,0.0,0.0,0.0,0.0,0.0,0.0,0.0,0.0,0.0,0.0,0.0,0.0,0.0,0.0,0.0,0.0,0.0,0.0,0.0,0.0,0.0,0.0,0.0,0.0,0.0,0.0,0.0,0.0,0.0,0.0,0.0,0.0,0.0,0.0,0.0,0.0,0.0,0.0,0.0,0.0,0.0,0.0,0.0,0.0,0.0,0.0,0.0,0.0,0.0,0.0,0.0,0.0,0.0,0.0,0.0,0.0,0.0,0.0,0.0,0.0,0.0,0.0,0.0,0.0,0.0,0.0,0.0,0.0,0.0,0.0,0.0,0.0,0.0,0.0,0.0,0.0,0.0,0.0,0.0,0.0,0.0,0.0,0.0,0.0,0.0,0.0,0.0,0.0,0.0,0.0,0.0,0.0,0.0,0.0,0.0,0.0,0.0,0.0,0.0,0.0,0.0,0.0,0.0,0.0,0.0,0.0,0.0,0.0,0.0,0.0,0.0,0.0,0.0,0.0,0.0,0.0,0.0,0.0,0.0,0.0,0.0,0.0,0.0,0.0,0.0,0.0,0.0,0.0,0.0,0.0,0.0,0.0,0.0,0.0,0.0,0.0,0.0,0.0,0.0,0.0,0.0,0.0,0.0,0.0,0.0,0.0,0.0,0.0,0.0,0.0,0.0,0.0,0.0,0.0,0.0,0.0,0.0,0.0,0.0,0.0,0.0,0.0,0.0,0.0,0.0,0.0,0.0,0.0,0.0,0.0,0.0,0.0,0.0,0.0,0.0,0.0,0.0,0.0,0.0,0.0,0.0,0.0,0.0,0.0,0.0,0.0,0.0,0.0,0.0,0.0,0.0,0.0,0.0,0.0,0.0,0.0,0.0,0.0,0.0,0.0,0.0,0.0,0.0,0.0,0.0,0.0,0.0,0.0,0.0,0.0,0.0,0.0,0.0,0.0,0.0,0.0,0.0,0.0,0.0,0.0,0.0,0.0,0.0,0.0,0.0,0.0,0.0,0.0,0.0,0.0,0.0,0.0,0.0,0.0,0.0,0.0,0.0,0.0,0.0,0.0,0.0,0.0,0.0,0.0,0.0,0.0,0.0,0.0,0.0,0.0,0.0,0.0,0.0,0.0,0.0,0.0,0.0,0.0,0.0,0.0,0.0,0.0,0.0,0.0,0.0,0.0,0.0,0.0,0.0,0.0,0.0,0.0,0.0,0.0,0.0,0.0,0.0,0.0,0.0,0.0,0.0,0.0,0.0,0.0,0.0,0.0,0.0,0.0,0.0,0.0,0.0,0.0,0.0,0.0,0.0,0.0,0.0,0.0,0.0,0.0,0.0,0.0,0.0,0.0,0.0,0.0,0.0,0.0,0.0,0.0,0.0,0.0,0.0,0.0,0.0,0.0,0.0,0.0,0.0,0.0,0.0,0.0,0.0,0.0,0.0,0.0,0.0,0.0,0.0,0.0,0.0,0.0,0.0,0.0,0.0,0.0,0.0,0.0,0.0,0.0,0.0,0.0,0.0,0.0,0.0,0.0,0.0,0.0,0.0,0.0,0.0,0.0,0.0,0.0,0.0,0.0,0.0,0.0,0.0,0.0,0.0,0.0,0.0,0.0,0.0,0.0,0.0,0.0,0.0,0.0,0.0,0.0,0.0,0.0,0.0,0.0,0.0,0.0,0.0,0.0,0.0,0.0,0.0,0.0,0.0,0.0,0.0,0.0,0.0,0.0,0.0,0.0,0.0,0.0,0.0,0.0,0.0,0.0,0.0,0.0,0.0,0.0,0.0,0.0,0.0,0.0,0.0,0.0,0.0,0.0,0.0,0.0,0.0,0.0,0.0,0.0,0.0,0.0,0.0,0.0,0.0,0.0,0.0,0.0,0.0,0.0,0.0,0.0,0.0,0.0,0.0,0.0,0.0,0.0,0.0,0.0,0.0,0.0,0.0,0.0,0.0,0.0,0.0,0.0,0.0,0.0,0.0,0.0,0.0,0.0,0.0,0.0,0.0,0.0,0.0,0.0,0.0,0.0,0.0,0.0,0.0,0.0,0.0,0.0,0.0,0.0,0.0,0.0,0.0,0.0,0.0,0.0,0.0,0.0,0.0,0.0,0.0,0.0,0.0,0.0,0.0,0.0,0.0,0.0,0.0,0.0,0.0,0.0,0.0,0.0,0.0,0.0,0.0,0.0,0.0,0.0,0.0,0.0,0.0,0.0,0.0,0.0,0.0,0.0,0.0,0.0,0.0,0.0,0.0,0.0,0.0,0.0,0.0,0.0,0.0,0.0,0.0,0.0,0.0,0.0,0.0,0.0,0.0,0.0,0.0,0.0,0.0,0.0,0.0,0.0,0.0,0.0,0.0,0.0,0.0,0.0,0.0,0.0,0.0,0.0,0.0,0.0,0.0,0.0,0.0,0.0,0.0,0.0,0.0,0.0,0.0,0.0,0.0,0.0,0.0,0.0,0.0,0.0,0.0,0.0,0.0,0.0,0.0,0.0,0.0,0.0,0.0,0.0,0.0,0.0,0.0,0.0,0.0,0.0,0.0,0.0,0.0,0.0,0.0,0.0,0.0,0.0,0.0,0.0,0.0,0.0,0.0,0.0,0.0,0.0,0.0,0.0,0.0,0.0,0.0,0.0,0.0,0.0,0.0,0.0,0.0,0.0,0.0,0.0,0.0,0.0,0.0,0.0,0.0,0.0,0.0,0.0,0.0,0.0,0.0,0.0,0.0,0.0,0.0,0.0,0.0,0.0,0.0,0.0,0.0,0.0,0.0,0.0,0.0,0.0,0.0,0.0,0.0,0.0,0.0,0.0,0.0,0.0,0.0,0.0,0.0,0.0,0.0,0.0,0.0,0.0,0.0,0.0,0.0,0.0,0.0,0.0,0.0,0.0,0.0,0.0,0.0,0.0,0.0,0.0,0.0,0.0,0.0,0.0,0.0,0.0,0.0,0.0,0.0,0.0,0.0,0.0,0.0,0.0,0.0,0.0,0.0,0.0,0.0,0.0,0.0,0.0,0.0,0.0,0.0,0.0,0.0,0.0,0.0,0.0,0.0,0.0,0.0,0.0,0.0,0.0,0.0,0.0,0.0,0.0,0.0,0.0,0.0,0.0,0.0,0.0,0.0,0.0,0.0,0.0,0.0,0.0,0.0,0.0,0.0,0.0,0.0,0.0,0.0,0.0,0.0,0.0,0.0,0.0,0.0,0.0,0.0,0.0,0.0,0.0,0.0,0.0,0.0,0.0,0.0,0.0,0.0,0.0,0.0,0.0,0.0,0.0,0.0,0.0,0.0,0.0,0.0,0.0,0.0,0.0,0.0,0.0,0.0,0.0,0.0,0.0,0.0,0.0,0.0,0.0,0.0,0.0,0.0,0.0,0.0,0.0,0.0,0.0,0.0,0.0,0.0,0.0,0.0,0.0,0.0,0.0,0.0,0.0,0.0,0.0,0.0,0.0,0.0,0.0,0.0,0.0,0.0,0.0,0.0,0.0,0.0,0.0,0.0,0.0,0.0,0.0,0.0,0.0,0.0,0.0,0.0,0.0,0.0,0.0,0.0,0.0,0.0,0.0,0.0,0.0,0.0,0.0,0.0,0.0,0.0,0.0,0.0,0.0,0.0,0.0,0.0,0.0,0.0,0.0,0.0,0.0,0.0,0.0,0.0,0.0,0.0,0.0,0.0,0.0,0.0,0.0,0.0,0.0,0.0,0.0,0.0,0.0,0.0,0.0,0.0,0.0,0.0,0.0,0.0,0.0,0.0,0.0,0.0,0.0,0.0,0.0,0.0,0.0,0.0,0.0,0.0,0.0,0.0,0.0,0.0,0.0,0.0,0.0,0.0,0.0,0.0,0.0,0.0,0.0,0.0,0.0,0.0,0.0,0.0,0.0,0.0,0.0,0.0,0.0,0.0,0.0,0.0,0.0,0.0,0.0,0.0,0.0,0.0,0.0,0.0,0.0,0.0,0.0,0.0,0.0,0.0,0.0,0.0,0.0,0.0,0.0,0.0,0.0,0.0,0.0,0.0,0.0,0.0,0.0,0.0,0.0,0.0,0.0,0.0,0.0,0.0,0.0,0.0,0.0,0.0,0.0,0.0,0.0,0.0,0.0,0.0,0.0,0.0,0.0,0.0,0.0,0.0,0.0,0.0,0.0,0.0,0.0,0.0,0.0,0.0,0.0,0.0,0.0,0.0,0.0,0.0,0.0,0.0,0.0,0.0,0.0,0.0,0.0,0.0,0.0,0.0,0.0,0.0,0.0,0.0,0.0,0.0,0.0,0.0,0.0,0.0,0.0,0.0,0.0,0.0,0.0,0.0,0.0,0.0,0.0,0.0,0.0,0.0,0.0,0.0,0.0,0.0,0.0,0.0,0.0,0.0,0.0,0.0,0.0,0.0,0.0,0.0,0.0,0.0,0.0,0.0,0.0,0.0,0.0,0.0,0.0,0.0,0.0,0.0,0.0,0.0,0.0,0.0,0.0,0.0,0.0,0.0,0.0,0.0,0.0,0.0,0.0,0.0,0.0,0.0,0.0,0.0,0.0,0.0,0.0,0.0,0.0,0.0,0.0,0.0,0.0,0.0,0.0,0.0,0.0,0.0,0.0,0.0,0.0,0.0,0.0,0.0,0.0,0.0,0.0,0.0,0.0,0.0,0.0,0.0,0.0,0.0,0.0,0.0,0.0,0.0,0.0,0.0,0.0,0.0,0.0,0.0,0.0,0.0,0.0,0.0,0.0,0.0,0.0,0.0,0.0,0.0,0.0,0.0,0.0,0.0,0.0,0.0,0.0,0.0,0.0,0.0,0.0,0.0,0.0,0.0,0.0,0.0,0.0,0.0,0.0,0.0,0.0,0.0,0.0,0.0,0.0,0.0,0.0,0.0,0.0,0.0,0.0,0.0,0.0,0.0,0.0,0.0,0.0,0.0,0.0,0.0,0.0,0.0,0.0,0.0,0.0,0.0,0.0,0.0,0.0,0.0,0.0,0.0,0.0,0.0,0.0,0.0,0.0,0.0,0.0,0.0,0.0,0.0,0.0,0.0,0.0,0.0,0.0,0.0,0.0,0.0,0.0,0.0,0.0,0.0,0.0,0.0,0.0,0.0,0.0,0.0,0.0,0.0,0.0,0.0,0.0,0.0,0.0,0.0,0.0,0.0,0.0,0.0,0.0,0.0,0.0,0.0,0.0,0.0,-1.1458,0.0,0.0,0.0,0.0,0.0,0.0,0.0,0.0,0.0,0.0,0.0,0.0,0.0,0.0,0.0,0.0,0.0,0.0,0.0,0.0,0.0,0.0,0.0,0.0,0.0,0.0,0.0,0.0,0.0,0.0,0.0,0.0,0.0,0.0,0.0,0.0,0.0,0.0,0.0,-2.4804,-2.4591,-2.419,-2.419,-2.419,-2.419,0.0,0.0,0.0,0.0,0.0,0.0,0.0,0.0,0.0,0.0,0.0,0.0,0.0,0.0,0.0,0.0,0.0,0.0,0.0,0.0,0.0,0.0,0.0,0.0,0.0,0.0,0.0,0.0,0.0,0.0,0.0,0.0,0.0,0.0,0.0,0.0,0.0,0.0,0.0,0.0,0.0,0.0,0.0,0.0,0.0,0.0,0.0,0.0,0.0,0.0,0.0,0.0,0.0,0.0,0.0,0.0,0.0,0.0,0.0,0.0,0.0,0.0,0.0,0.0,0.0,0.0,0.0,0.0,0.0,0.0,0.0,-1.0989,0.0,0.0,0.0,0.0,0.0,0.0,0.0,0.0,0.0,0.0,0.0,0.0,0.0,0.0,0.0,0.0,0.0,0.0,0.0,0.0,0.0,0.0,0.0,-2.5587,-2.5605,-2.5682,-2.5683,-2.5703,0.0,0.0,0.0,0.0,0.0,0.0,0.0,-2.5264,-2.5103,-2.4804,-2.4731,-2.4528,-2.419,-2.419,-2.4263,-2.4392,-2.4263,0.0,0.0,0.0,0.0,0.0,0.0,0.0,0.0,0.0,0.0,0.0,0.0,0.0,0.0,0.0,0.0,0.0,0.0,0.0,0.0,0.0,0.0,0.0,0.0,0.0,0.0,0.0,0.0,0.0,0.0,0.0,0.0,0.0,0.0,0.0,0.0,0.0,0.0,0.0,0.0,0.0,0.0,0.0,0.0,0.0,0.0,0.0,0.0,0.0,0.0,0.0,0.0,0.0,0.0,0.0,0.0,0.0,0.0,0.0,0.0,0.0,0.0,0.0,-1.0926,-1.0624,-1.0624,-1.0624,-1.0624,-1.0624,-1.0624,-1.0624,-1.0624,0.0,0.0,0.0,0.0,0.0,0.0,0.0,0.0,0.0,0.0,0.0,0.0,0.0,0.0,0.0,0.0,0.0,0.0,0.0,0.0,0.0,0.0,-2.5488,-2.5543,-2.5605,-2.5661,-2.5703,-2.5703,0.0,0.0,0.0,0.0,0.0,-2.5303,-2.5141,-2.4968,-2.4804,-2.4444,-2.4266,-2.419,-2.419,-2.4557,-2.5219,-2.4502,-2.419,-2.4245,0.0,0.0,0.0,0.0,0.0,0.0,0.0,0.0,0.0,0.0,0.0,0.0,0.0,0.0,0.0,0.0,0.0,0.0,0.0,0.0,0.0,0.0,0.0,0.0,0.0,0.0,0.0,0.0,0.0,0.0,0.0,0.0,0.0,0.0,0.0,0.0,0.0,0.0,0.0,0.0,0.0,-1.4219,-1.361,0.0,0.0,0.0,0.0,0.0,0.0,0.0,0.0,0.0,0.0,0.0,0.0,0.0,0.0,-1.0926,-1.0807,-1.0744,-1.0744,-1.0618,-1.0624,-1.0624,-1.0624,-1.0624,-1.0624,-1.0624,0.0,-1.0624,-1.0624,0.0,0.0,0.0,0.0,0.0,0.0,0.0,0.0,0.0,0.0,0.0,0.0,0.0,0.0,0.0,0.0,0.0,0.0,0.0,0.0,0.0,-2.5449,-2.5483,-2.5586,-2.5592,-2.5595,-2.5595,-2.5539,0.0,0.0,0.0,-2.5293,-2.5122,-2.5046,-2.4872,-2.4623,-2.4339,-2.4428,-2.4869,-2.4869,-2.5291,-2.6062,-2.547,-2.5345,-2.5546,-2.567,0.0,0.0,0.0,0.0,0.0,0.0,0.0,0.0,0.0,0.0,0.0,0.0,0.0,0.0,0.0,0.0,0.0,0.0,0.0,0.0,0.0,0.0,0.0,0.0,0.0,0.0,0.0,0.0,0.0,0.0,0.0,0.0,0.0,0.0,0.0,0.0,0.0,0.0,0.0,-1.3983,-1.3791,-1.3506,-1.4092,-1.4502,0.0,0.0,0.0,0.0,0.0,0.0,0.0,0.0,0.0,-1.117,-1.1108,-1.0989,-1.0624,-1.0624,-1.0624,-1.0624,-1.0624,-1.0624,-1.0624,-1.0624,-1.0624,-1.0624,-1.0624,-1.0624,-1.0624,-1.0624,-1.0624,-1.0624,0.0,0.0,0.0,0.0,-1.0624,-1.0624,0.0,0.0,0.0,0.0,0.0,0.0,0.0,0.0,0.0,0.0,0.0,0.0,-2.5451,-2.5444,-2.5466,-2.5576,-2.5531,-2.5493,-2.5493,-2.5473,-2.5459,-2.5394,-2.5376,-2.5274,-2.501,-2.4924,-2.4718,-2.4409,-2.4469,-2.4795,-2.5403,-2.5523,-2.6054,-2.6885,-2.6405,-2.6296,-2.6425,-2.6267,-2.6291,-2.6465,0.0,0.0,0.0,0.0,0.0,0.0,0.0,0.0,0.0,0.0,0.0,0.0,0.0,0.0,0.0,0.0,0.0,0.0,0.0,0.0,0.0,0.0,0.0,0.0,0.0,0.0,0.0,0.0,0.0,0.0,0.0,0.0,0.0,0.0,0.0,0.0,0.0,-1.3588,-1.3828,-1.3828,-1.4318,-1.4649,0.0,0.0,0.0,0.0,0.0,0.0,-1.1531,-1.0926,-1.0624,-1.0624,-1.0624,-1.0624,-1.0624,-1.0624,-1.0624,-1.0624,-1.0624,-1.0624,-1.0624,-1.0624,-1.0624,-1.0624,-1.0624,-1.0624,-1.0624,-1.0624,-1.0624,-1.0624,-1.0624,-1.0624,-1.0624,-1.0624,-1.0624,-1.0624,0.0,0.0,0.0,0.0,0.0,0.0,0.0,0.0,0.0,0.0,0.0,-2.5398,-2.5394,-2.5453,-2.5508,-2.5508,-2.5489,-2.5493,-2.5493,-2.5441,-2.5406,-2.5394,-2.5348,-2.5214,-2.4991,-2.4693,-2.4409,-2.4209,-2.498,-2.5366,-2.5401,-2.5796,-2.6599,-2.771,-2.6985,-2.6427,-2.6045,-2.6463,-2.6472,-2.6207,-2.7331,0.0,0.0,0.0,0.0,0.0,0.0,0.0,0.0,0.0,0.0,0.0,0.0,0.0,0.0,0.0,0.0,0.0,0.0,0.0,0.0,0.0,0.0,0.0,0.0,0.0,0.0,0.0,0.0,0.0,0.0,0.0,0.0,0.0,0.0,0.0,0.0,0.0,0.0,-1.4717,-1.4466,0.0,0.0,0.0,0.0,-1.195,-1.1834,-1.1469,-1.0681,-1.0624,-1.0624,-1.0624,-1.0624,-1.0624,-1.0624,-1.0624,-1.0624,-1.0624,-1.0624,-1.0624,-1.0624,-1.0624,-1.0624,-1.0624,-1.0624,-1.0624,-1.0624,-1.0624,-1.0624,-1.0624,-1.0624,-1.0624,-1.0624,-1.0624,-1.0624,-1.0624,0.0,0.0,0.0,0.0,0.0,0.0,0.0,0.0,-2.5152,-2.5274,-2.5354,-2.5427,-2.5465,-2.5442,-2.5453,-2.5489,-2.5414,-2.5379,-2.5379,-2.5357,-2.5339,-2.5339,-2.5194,-2.4962,-2.4678,-2.4946,-2.504,-2.498,-2.5768,-2.6286,-2.6563,-2.6694,-2.7155,-2.7825,-2.7331,-2.7,-2.6852,-2.7023,-2.7128,-2.7251,-2.7151,-2.721,0.0,0.0,0.0,0.0,0.0,0.0,0.0,0.0,0.0,0.0,0.0,0.0,0.0,0.0,0.0,0.0,0.0,0.0,0.0,0.0,0.0,0.0,0.0,0.0,0.0,0.0,0.0,0.0,0.0,0.0,0.0,0.0,0.0,0.0,0.0,0.0,0.0,-1.4034,-1.3676,0.0,0.0,-1.3485,-1.3122,-1.3356,-1.2381,-1.1648,-1.1413,-1.0863,-1.0624,-1.0624,-1.0624,-1.0648,-1.0835,-1.0835,-1.0929,-1.1116,-1.1116,-1.1116,-1.1116,-1.1116,-1.1116,-1.1116,-1.1116,-1.1116,-1.1102,-1.0915,-1.0728,-1.0624,-1.0624,-1.0624,-1.0624,-1.0624,-1.0624,-1.0624,0.0,0.0,0.0,0.0,0.0,0.0,0.0,0.0,-2.508,-2.5293,-2.5391,-2.5451,-2.5499,-2.5467,-2.5446,-2.5457,-2.5363,-2.5303,-2.5303,-2.5303,-2.5264,-2.5203,-2.4949,-2.4898,-2.5003,-2.5245,-2.5531,-2.5786,-2.6469,-2.6931,-2.7186,-2.7209,-2.7477,-2.7869,-2.7317,-2.7178,-2.7303,-2.7147,-2.7241,-2.7439,-2.7051,-2.7051,-2.722,0.0,0.0,0.0,0.0,0.0,0.0,0.0,0.0,0.0,0.0,0.0,0.0,0.0,0.0,0.0,0.0,0.0,0.0,0.0,0.0,0.0,0.0,0.0,0.0,0.0,0.0,0.0,0.0,0.0,0.0,0.0,0.0,0.0,0.0,0.0,-1.4239,-1.4239,-1.3756,-1.3606,-1.4154,-1.3485,-1.313,-1.3356,-1.2381,-1.17,-1.1565,-1.1015,-1.0755,-1.0848,-1.0855,-1.0949,-1.1136,-1.1136,-1.1236,-1.1423,-1.1423,-1.1423,-1.1423,-1.1423,-1.1423,-1.1423,-1.1423,-1.1423,-1.141,-1.1216,-1.1022,-1.0835,-1.0698,-1.0624,-1.0624,-1.0624,-1.0624,-1.0624,0.0,0.0,0.0,0.0,0.0,0.0,0.0,-2.4917,-2.5094,-2.5364,-2.5465,-2.5496,-2.5507,-2.5492,-2.5463,-2.5406,-2.5339,-2.5303,-2.5303,-2.5303,-2.5214,-2.501,-2.4716,-2.5005,-2.5954,-2.5653,-2.5841,-2.6609,-2.7006,-2.7222,-2.7216,-2.728,-2.75,-2.784,-2.7051,-2.6906,-2.7255,-2.6841,-2.6691,-2.6725,-2.7115,-2.7255,-2.7255,0.0,0.0,0.0,0.0,0.0,0.0,0.0,0.0,0.0,0.0,0.0,0.0,0.0,0.0,0.0,0.0,0.0,0.0,0.0,0.0,0.0,0.0,0.0,0.0,0.0,0.0,0.0,0.0,0.0,0.0,0.0,0.0,0.0,-1.4863,-1.5156,-1.5352,-1.5352,-1.4628,-1.4145,-1.4213,-1.3485,-1.2704,-1.1973,-1.1841,-1.1558,-1.1055,-1.1009,-1.1136,-1.1416,-1.1423,-1.143,-1.1443,-1.1443,-1.1443,-1.145,-1.145,-1.145,-1.145,-1.145,-1.145,-1.145,-1.145,-1.145,-1.145,-1.1443,-1.1443,-1.1383,-1.0808,-1.0651,-1.0651,-1.0645,-1.0631,-1.0624,0.0,0.0,0.0,0.0,0.0,0.0,0.0,-2.4917,-2.5094,-2.5356,-2.5465,-2.5496,-2.5507,-2.5492,-2.5463,-2.5406,-2.5339,-2.5303,-2.5303,-2.5303,-2.516,-2.4869,-2.5326,-2.5585,-2.556,-2.6319,-2.6807,-2.7042,-2.7494,-2.7543,-2.7286,-2.7274,-2.721,-2.7019,-2.6808,-2.6758,-2.6841,-2.6385,-2.6191,-2.6227,-2.6657,-2.6657,-2.6368,0.0,0.0,0.0,0.0,0.0,0.0,0.0,0.0,0.0,0.0,0.0,0.0,0.0,0.0,0.0,0.0,0.0,0.0,0.0,0.0,0.0,0.0,0.0,0.0,0.0,0.0,0.0,0.0,0.0,0.0,0.0,0.0,-1.5371,-1.5254,-1.4857,-1.451,-1.451,-1.3846,-1.3545,-1.4145,-1.3485,-1.3239,-1.387,-1.2751,-1.2143,-1.2231,-1.1641,-1.1343,-1.1423,-1.1423,-1.153,-1.1744,-1.175,-1.185,-1.2058,-1.2058,-1.2058,-1.2058,-1.2058,-1.2058,-1.2058,-1.2058,-1.2058,-1.2044,-1.183,-1.175,-1.171,-1.1336,-1.1189,-1.1162,-1.0955,-1.0742,-1.0624,0.0,0.0,0.0,0.0,0.0,0.0,0.0,-2.4917,-2.5116,-2.5395,-2.5482,-2.5503,-2.5545,-2.5522,-2.5463,-2.5406,-2.5339,-2.5264,-2.5173,-2.5049,-2.5101,-2.5375,-2.5611,-2.5931,-2.6279,-2.6885,-2.7299,-2.7486,-2.7593,-2.753,-2.7303,-2.7115,-2.6939,-2.6691,-2.6691,-2.659,-2.6401,-2.612,-2.5888,-2.5689,-2.598,-2.5908,-2.5652,-2.5652,-2.5652,-2.5689,-2.5924,-2.5872,-2.573,-2.5689,0.0,0.0,0.0,0.0,0.0,0.0,0.0,0.0,0.0,0.0,0.0,0.0,0.0,0.0,0.0,0.0,0.0,0.0,0.0,0.0,0.0,0.0,0.0,0.0,-1.541,-1.541,-1.541,-1.4991,-1.4688,-1.4688,-1.4478,-1.4335,-1.4396,-1.4109,-1.3924,-1.3888,-1.2933,-1.2424,-1.2358,-1.1888,-1.167,-1.1784,-1.1911,-1.2058,-1.2311,-1.2365,-1.2512,-1.2685,-1.2685,-1.2685,-1.2685,-1.2685,-1.2685,0.0,-1.2685,-1.2605,-1.2478,-1.2305,-1.2164,0.0,0.0,0.0,0.0,0.0,-1.1069,-1.0922,0.0,0.0,0.0,0.0,0.0,0.0,0.0,-2.493,-2.5148,-2.5463,-2.5493,-2.5512,-2.5588,-2.5543,-2.5477,-2.5391,-2.533,-2.5224,-2.5046,-2.4737,-2.5039,-2.614,-2.5779,-2.6172,-2.7433,-2.7339,-2.7468,-2.784,-2.7409,-2.7241,-2.7224,-2.6873,-2.6657,-2.6624,-2.6691,-2.6401,-2.5924,-2.5924,-2.5615,-2.5089,-2.5051,-2.5067,-2.5144,-2.5182,-2.5221,-2.5259,-2.5726,-2.5335,-2.4617,-2.4989,0.0,0.0,0.0,0.0,0.0,0.0,0.0,0.0,0.0,0.0,0.0,0.0,0.0,0.0,0.0,0.0,0.0,0.0,0.0,0.0,0.0,0.0,0.0,0.0,-1.541,-1.541,-1.541,-1.5459,-1.5488,-1.5488,-1.583,-1.577,-1.4996,-1.5187,-1.4689,-1.3163,-1.2968,-1.2716,-1.2165,0.0,0.0,0.0,0.0,-1.2876,-1.2876,-1.3073,-1.3213,-1.3213,-1.3213,-1.3213,-1.3213,-1.3213,-1.3213,-1.3213,-1.3213,-1.3053,-1.2876,-1.2876,-1.2625,-1.2298,-1.1744,-1.1503,-1.1476,-1.1476,-1.1456,-1.1423,0.0,0.0,0.0,0.0,0.0,0.0,0.0,-2.5049,-2.5292,-2.5473,-2.5493,-2.5503,-2.5512,-2.5517,-2.5453,-2.5321,-2.5303,-2.5274,-2.5234,-2.503,-2.5237,-2.6008,-2.641,-2.6806,-2.7248,-2.7584,-2.7653,-2.7426,-2.7019,-2.6825,-2.6808,-2.6725,-2.6521,-2.6156,-2.6521,-2.621,-2.5335,-2.5335,-2.5067,-2.4511,-2.4074,-2.4158,-2.4576,-2.5028,-2.5221,-2.5221,-2.5335,-2.5503,-2.5577,-2.4816,-2.443,-2.4101,-2.3172,-2.2875,0.0,0.0,0.0,0.0,0.0,0.0,0.0,0.0,0.0,0.0,0.0,0.0,0.0,0.0,0.0,0.0,0.0,0.0,0.0,-1.5526,-1.541,-1.541,-1.541,-1.5713,-1.5937,-1.5937,-1.6066,-1.614,-1.6311,-1.5807,-1.5382,-1.5294,-1.4647,-1.4182,-1.38,-1.3755,0.0,-1.3026,-1.3093,-1.312,-1.312,-1.318,-1.3213,-1.3213,0.0,0.0,-1.3213,-1.3213,-1.3213,-1.3213,-1.3213,-1.3173,-1.312,-1.312,-1.2939,-1.2625,-1.2271,-1.1991,-1.1784,-1.1784,-1.163,-1.1423,0.0,0.0,0.0,0.0,0.0,0.0,0.0,-2.5091,-2.5357,-2.5473,-2.5493,-2.5531,-2.5592,-2.5543,-2.5463,-2.5413,-2.5255,-2.5152,-2.5152,-2.4898,-2.5273,-2.6405,-2.6656,-2.7002,-2.7531,-2.7769,-2.7589,-2.6987,-2.6808,-2.6691,-2.6691,-2.6691,-2.659,-2.6367,-2.659,-2.628,-2.5577,-2.5297,-2.491,-2.4389,-2.4116,-2.3991,-2.4032,-2.4307,-2.4389,-2.443,-2.4697,-2.4776,-2.4752,-2.4511,-2.4241,-2.3906,-2.3319,-2.3143,-2.2965,0.0,0.0,0.0,0.0,0.0,0.0,0.0,0.0,0.0,0.0,0.0,0.0,0.0,0.0,-1.7357,0.0,0.0,-1.6265,-1.5526,-1.541,-1.5488,-1.5703,-1.5928,-1.6125,-1.6125,-1.6517,-1.6606,-1.6337,-1.6138,-1.5999,-1.5826,-1.4942,-1.4467,-1.4531,-1.3964,-1.3585,-1.3206,-1.3891,-1.428,-1.428,-1.4356,-1.4434,-1.4427,-1.3886,-1.3647,-1.3647,-1.3647,-1.3647,-1.3647,-1.3647,-1.3567,-1.3414,-1.3273,-1.312,-1.2966,-1.2819,-1.2478,-1.2084,-1.2084,-1.1991,-1.1864,0.0,0.0,0.0,0.0,0.0,0.0,0.0,-2.5049,-2.5302,-2.5451,-2.5484,-2.5535,-2.5644,-2.5579,-2.5517,-2.5473,-2.5178,-2.501,-2.501,-2.4723,-2.5181,-2.66,-2.6668,-2.6972,-2.7649,-2.7826,-2.7517,-2.6691,-2.6691,-2.6691,-2.6691,-2.6691,-2.6657,-2.659,-2.6657,-2.6367,-2.5815,-2.5486,-2.5067,-2.4552,-2.4552,-2.4225,-2.3767,-2.3767,-2.3767,-2.3794,-2.4225,-2.4116,-2.3794,-2.4116,-2.3964,-2.3595,-2.3595,-2.3595,-2.3465,-2.2875,-2.2253,0.0,0.0,0.0,0.0,0.0,0.0,0.0,0.0,0.0,-1.8221,-1.7346,-1.7191,-1.6968,-1.6368,-1.6265,-1.6093,-1.5526,-1.5488,-1.5664,-1.6076,-1.6272,-1.6318,-1.6318,-1.6943,-1.7129,-1.6358,-1.6725,-1.681,-1.6404,-1.5404,-1.4926,-1.518,-1.4366,-1.3784,-1.3687,-1.502,-1.5549,-1.5388,-1.5569,-1.5621,-1.5379,-1.4489,-1.4088,-1.4088,-1.4088,-1.4088,-1.4088,-1.4328,-1.4275,-1.4029,-1.4024,-1.3964,-1.3908,-1.3908,-1.3551,-1.304,-1.2553,-1.2351,-1.2305,0.0,0.0,0.0,0.0,0.0,0.0,0.0,0.0,-2.5116,-2.5372,-2.5471,-2.5515,-2.5527,-2.5556,-2.5543,-2.5415,-2.5157,-2.501,-2.501,-2.485,-2.5083,-2.58,-2.6507,-2.686,-2.6825,-2.7515,-2.7517,-2.6691,-2.6691,-2.6691,-2.6691,-2.6691,-2.647,-2.6085,-2.6505,-2.6158,-2.5335,-2.5726,-2.5615,-2.5105,-2.5105,-2.4776,-2.4307,-2.4307,-2.4307,-2.4307,-2.4389,-2.4348,-2.4225,-2.3837,-2.3638,-2.3595,-2.3595,-2.3595,-2.3465,-2.2875,-2.2253,-2.1568,-2.0979,-2.0295,0.0,-1.9798,-1.9798,-1.9423,0.0,0.0,-1.7346,-1.5911,-1.5633,-1.5633,-1.5526,-1.5526,-1.5526,-1.541,-1.5732,-1.6066,-1.6115,-1.6738,-1.7236,-1.7236,-1.7324,-1.7529,-1.7755,-1.8172,-1.8363,-1.827,-1.7661,-1.7037,-1.6534,-1.6401,-1.6078,-1.542,-1.653,-1.6627,-1.5644,-1.5681,-1.522,-1.425,-1.4166,-1.4088,-1.4088,-1.4088,-1.4088,-1.4166,-1.5137,-1.5516,-1.5561,-1.6424,-1.6701,-1.648,-1.648,-1.6228,-1.5686,-1.3535,-1.2525,-1.2305,0.0,0.0,0.0,0.0,0.0,0.0,0.0,0.0,0.0,-2.5364,-2.5465,-2.5504,-2.5554,-2.5583,-2.5547,-2.5401,-2.5307,-2.5126,-2.4904,-2.4828,-2.503,-2.5504,-2.6297,-2.6798,-2.6985,-2.7601,-2.7619,-2.7051,-2.6808,-2.6691,-2.6691,-2.6691,-2.659,-2.6401,-2.6624,-2.647,-2.6052,-2.6033,-2.5888,-2.5652,-2.5652,-2.5144,-2.4471,-2.5105,-2.4934,-2.4348,-2.4032,-2.3906,0.0,-2.3681,-2.3595,-2.3595,-2.3595,-2.3595,-2.3551,-2.329,-2.2515,-2.1459,-2.0484,0.0,0.0,0.0,-1.9798,-1.9527,-1.8501,-1.8221,-1.795,-1.6912,-1.6368,-1.6036,-1.6036,-1.57,-1.5498,0.0,-1.5947,-1.6302,-1.6758,-1.7148,-1.7471,-1.7715,-1.7969,-1.8184,-1.8359,-1.8535,-1.8848,-1.9346,-1.8555,-1.8059,-1.804,-1.7422,-1.6927,-1.6683,-1.709,-1.709,-1.6601,-1.6601,-1.6116,-1.5054,-1.5054,-1.4734,-1.4088,-1.4734,-1.5387,-1.5959,-1.6445,-1.6601,-1.6683,-1.709,-1.7243,-1.7103,-1.7103,-1.6951,-1.65,-1.4635,-1.4155,-1.4235,0.0,0.0,0.0,0.0,0.0,0.0,0.0,0.0,0.0,0.0,-2.5395,-2.5493,-2.5595,-2.5604,-2.5554,-2.5441,-2.536,-2.5178,-2.4883,-2.4855,-2.4945,-2.5133,-2.5984,-2.6576,-2.6868,-2.7424,-2.7639,-2.7487,-2.7051,-2.6873,-2.6873,-2.6758,-2.6691,-2.6691,-2.6691,-2.6691,-2.6691,-2.6332,-2.6191,-2.6191,-2.6191,-2.5635,-2.495,-2.5689,-2.5411,-2.4592,-2.4184,-2.3948,-2.3837,-2.3837,-2.3709,-2.3595,-2.3595,-2.3595,-2.3595,-2.3595,-2.2696,-2.1411,-2.0131,0.0,0.0,-1.9798,-1.9798,-1.9592,-1.8874,-1.8715,-1.8501,-1.7743,-1.7034,-1.6539,-1.6765,-1.6026,-1.5615,-1.6287,-1.6345,-1.6514,-1.7275,-1.749,-1.7666,-1.7978,-1.8379,-1.8682,-1.8799,-1.8926,-1.9248,-1.9863,-1.901,-1.865,-1.8939,-1.823,-1.7747,-1.7747,-1.8069,-1.79,-1.7342,-1.7577,-1.709,-1.5696,-1.6026,-1.5703,-1.4985,-1.5786,-1.6601,-1.7334,-1.7658,-1.7747,-1.7827,-1.806,-1.8221,-1.8221,-1.8221,-1.8127,-1.7761,-1.6407,-1.594,-1.584,0.0,0.0,0.0,0.0,0.0,0.0,0.0,0.0,0.0,0.0,0.0,0.0,0.0,-2.5604,-2.5567,-2.5493,-2.526,-2.507,-2.4991,-2.4979,-2.4845,-2.4549,-2.548,-2.6023,-2.6051,-2.6826,-2.7422,-2.7869,-2.747,-2.7272,-2.7255,-2.6873,-2.6691,-2.6691,-2.6691,-2.6691,-2.6691,-2.6691,-2.6691,-2.6691,-2.6691,-2.6401,-2.5961,-2.5977,-2.5652,-2.5182,-2.5144,-2.4831,-2.4389,-2.4389,-2.4032,-2.3595,-2.3595,-2.3595,-2.3595,-2.3595,-2.2696,-2.1411,-2.0131,0.0,-1.9798,-1.9798,-1.9798,-1.9592,-1.8874,-1.8715,-1.8501,-1.7743,-1.7034,-1.6708,-1.7413,-1.6358,-1.5781,-1.6992,-1.691,-1.6865,-1.7314,-1.7734,-1.7998,-1.8008,-1.8379,-1.8799,0.0,-1.9639,-1.9883,-1.9912,-1.9357,-1.8948,-1.9036,-1.8957,-1.8957,-1.8957,-1.9923,-1.9432,-1.7334,-1.839,-1.79,-1.5696,-1.6764,-1.7253,-1.7172,-1.7261,-1.7253,-1.7334,-1.847,-1.8957,-1.9036,-2.0079,-2.0489,-2.0489,-2.0489,-2.0469,-2.0382,-1.9246,-1.7787,-1.6355,0.0,0.0,0.0,0.0,0.0,0.0,0.0,0.0,0.0,0.0,0.0,0.0,0.0,0.0,0.0,0.0,-2.5434,-2.5275,-2.507,-2.5031,-2.4911,-2.4716,-2.5412,-2.6042,-2.6587,-2.6986,-2.7533,-2.8237,-2.7601,-2.7303,-2.7303,-2.6906,-2.6691,-2.6691,-2.6691,-2.6691,-2.6691,-2.6691,-2.6691,-2.6691,-2.6691,-2.6401,-2.6049,-2.6332,-2.6139,-2.5762,0.0,-2.5672,-2.4855,-2.4511,-2.4266,-2.4074,-2.3724,-2.3595,-2.3508,-2.3098,-2.2377,-2.152,-2.0683,0.0,-1.9798,-1.9798,-1.9798,-1.9747,-1.9475,-1.9423,-1.9371,-1.9097,-1.8447,-1.8058,-1.8274,-1.7512,-1.7226,-1.8272,-1.788,-1.7706,-1.8527,-1.8305,-1.8008,-1.8008,-1.8633,0.0,0.0,0.0,0.0,-2.0322,-2.0168,-2.0079,-2.0079,-2.0079,-2.0079,-2.0079,-1.9678,-1.9195,-1.8479,-1.8798,-1.823,-1.6764,-1.7098,-1.7658,-1.839,-1.839,-1.8798,-1.9511,-1.9923,-2.0079,-2.0089,-2.0479,-2.0566,-2.0566,-2.0566,-2.0566,-2.0566,-2.0157,-1.9656,-1.9056,0.0,0.0,0.0,0.0,0.0,0.0,0.0,0.0,0.0,0.0,0.0,0.0,0.0,0.0,0.0,0.0,0.0,-2.542,-2.5222,-2.5147,-2.5041,-2.4883,-2.5208,-2.5869,-2.6879,-2.6951,-2.7525,-2.8615,-2.8002,-2.7631,-2.7517,-2.7115,-2.6841,-2.6691,-2.6691,-2.6691,-2.6691,-2.6691,-2.6691,-2.6691,-2.6691,-2.6505,-2.6297,-2.659,-2.6505,0.0,-2.659,-2.628,-2.5672,-2.5128,-2.4816,-2.4632,-2.4266,-2.4032,-2.3736,-2.292,-2.2253,-2.1568,-2.0979,-2.0295,-1.9798,-1.9798,-1.9798,-1.9798,-1.9798,-1.9798,-1.9798,-1.9798,-1.9202,-1.8768,-1.9044,-1.8274,-1.7946,-1.8999,-1.8692,-1.8424,-1.8952,-1.8685,-1.8337,-1.8008,-1.8769,0.0,0.0,0.0,0.0,-2.0547,-2.0566,-2.0566,-2.0566,-2.0566,-2.0566,-2.0566,-1.9923,-1.9362,-1.9036,-1.9362,-1.9195,-1.847,-1.847,-1.8868,-1.9599,-1.9599,-1.9923,-2.0566,-2.0566,-2.0566,-2.0566,-2.0566,-2.0566,-2.0566,-2.0566,-2.0566,-2.0566,-2.0566,-2.0566,-2.044,0.0,0.0,0.0,0.0,0.0,0.0,0.0,0.0,0.0,0.0,0.0,0.0,0.0,0.0,0.0,0.0,0.0,0.0,-2.5415,-2.5337,-2.5224,-2.5034,-2.4877,-2.5449,-2.6823,-2.6703,-2.7386,-2.8943,-2.8597,-2.8264,-2.7926,-2.75,-2.7115,-2.6758,-2.6758,-2.6758,-2.6758,-2.6758,-2.6758,-2.6758,-2.6758,-2.6758,-2.6758,-2.6758,-2.6725,-2.6725,-2.6725,-2.6725,-2.6657,-2.6156,-2.5615,-2.5144,-2.5144,-2.4776,-2.4142,-2.3039,-2.2253,-2.1568,-2.1028,-2.0396,-1.985,-1.985,-1.985,-1.985,-1.9798,-1.9798,-1.9798,-1.9798,-1.9254,-1.898,0.0,0.0,-1.8121,-1.9262,-1.9287,-1.9017,-1.867,-1.8994,-1.8946,0.0,0.0,0.0,0.0,0.0,0.0,-2.0566,0.0,-2.0566,-2.0566,-2.0566,-2.0566,-2.0566,-2.0586,-2.0117,-1.9152,-2.0117,-2.0586,-2.0566,-2.0566,-2.0566,-2.0566,-2.0566,-2.0566,-2.0566,-2.0566,-2.0566,-2.0566,-2.0566,-2.0566,-2.0566,-2.0566,-2.0566,-2.0566,-2.0566,-2.0566,-2.0566,0.0,0.0,0.0,0.0,0.0,0.0,0.0,0.0,0.0,0.0,0.0,0.0,0.0,0.0,0.0,0.0,0.0,0.0,-2.5551,-2.5441,-2.536,-2.5297,-2.5072,-2.5405,-2.6365,-2.6822,-2.7475,-2.8322,-2.858,-2.8567,-2.8246,-2.7908,-2.7678,-2.7589,-2.7589,-2.7589,-2.7589,-2.7589,-2.7589,-2.7589,-2.7589,-2.7589,-2.756,-2.7272,-2.7147,-2.7147,-2.7147,-2.7147,-2.7051,-2.628,0.0,0.0,0.0,-2.4241,-2.3752,-2.3465,-2.256,-2.1758,-2.2114,-2.1417,-2.056,-2.056,-2.056,-2.0396,-1.9901,-1.9798,-1.9798,-1.9798,-1.9643,-1.9579,0.0,0.0,0.0,-2.0229,-1.9797,0.0,-2.0266,-1.9399,0.0,0.0,0.0,-1.9287,-1.9287,-2.0059,0.0,0.0,-2.0566,-2.0566,-2.0566,-2.0566,-2.0566,-2.0566,-2.0889,-2.0905,-2.0656,-2.0895,-2.0898,-2.0566,-2.0566,-2.0566,-2.0566,-2.0566,-2.0566,-2.0566,-2.0566,-2.0566,-2.0566,-2.0566,-2.0566,-2.0566,-2.0566,-2.0566,-2.0566,-2.0566,-2.0566,-2.0566,0.0,0.0,0.0,0.0,0.0,0.0,0.0,0.0,0.0,0.0,0.0,0.0,0.0,0.0,0.0,0.0,0.0,0.0,0.0,-2.5493,-2.5434,-2.5406,-2.5159,-2.5401,-2.618,-2.6847,-2.7368,-2.7717,-2.8621,-2.8691,-2.8009,-2.8084,-2.8047,-2.7897,-2.7897,-2.7946,-2.804,-2.804,-2.804,0.0,0.0,-2.7966,-2.7869,-2.7648,-2.7439,-2.7317,-2.75,-2.7439,-2.7224,0.0,0.0,-2.5067,-2.4831,-2.4389,-2.3906,-2.3681,0.0,-2.2193,-2.2603,-2.1974,-2.121,-2.121,-2.121,-2.1113,-2.0706,-2.0607,-2.0607,-2.0607,-2.0434,0.0,0.0,0.0,0.0,0.0,0.0,0.0,-2.0605,-2.0072,-1.9528,0.0,-1.9643,0.0,-1.936,-2.0059,-2.0566,0.0,-2.0566,-2.0566,-2.0566,-2.0566,-2.0566,-2.0566,-2.0996,-2.123,-2.123,-2.123,-2.1016,-2.0566,-2.0566,-2.0566,-2.0566,-2.0566,-2.0566,-2.0566,0.0,-2.0566,-2.0566,-2.0566,-2.0566,-2.0566,-2.0566,-2.0566,-2.0566,-2.0566,-2.0566,-2.0566,0.0,0.0,0.0,0.0,0.0,0.0,0.0,0.0,0.0,0.0,0.0,0.0,0.0,0.0,0.0,0.0,0.0,0.0,0.0,0.0,-2.5498,-2.5421,-2.5247,-2.5504,-2.6256,-2.6949,-2.7339,-2.7412,-2.8783,-2.8905,-2.7812,-2.8336,-2.841,-2.8148,-2.8112,-2.82,-2.8403,-2.8372,-2.8372,-2.8403,-2.8403,-2.8301,-2.8121,0.0,-2.7787,-2.7525,-2.7851,-2.7707,0.0,0.0,-2.6757,-2.5924,-2.5449,-2.491,-2.4307,-2.3837,-2.3231,-2.2694,-2.2785,-2.2346,-2.1852,-2.1852,-2.1852,-2.1805,-2.1697,-2.1697,-2.1697,-2.1697,0.0,-2.0944,-2.0944,0.0,-1.9952,-1.9952,0.0,-2.0511,-2.0289,-2.0629,-2.0534,-1.9663,-2.0217,-2.0398,-1.9693,-2.0367,-2.0874,-2.1011,-2.1011,-2.0857,-2.0644,-2.0566,-2.0615,-2.0742,-2.1113,-2.1318,-2.1318,-2.1318,-2.1064,-2.0566,-2.0566,-2.0566,-2.0566,-2.0566,-2.0566,-2.0566,0.0,0.0,-2.0566,-2.0566,-2.0566,-2.0566,-2.0566,-2.0566,-2.0566,-2.0566,-2.0566,-2.0566,0.0,0.0,0.0,0.0,0.0,0.0,0.0,0.0,0.0,0.0,-2.4917,-2.5105,0.0,0.0,0.0,0.0,0.0,0.0,0.0,0.0,0.0,-2.5561,-2.5474,-2.5796,-2.6599,-2.7422,-2.8069,-2.8527,-2.9433,-2.9685,-2.9326,-2.9439,-2.9439,-2.9381,-2.9214,-2.9258,-2.942,-2.9258,-2.928,-2.9439,-2.9439,-2.942,-2.9323,-2.8819,0.0,0.0,-2.8358,-2.8102,-2.7811,-2.7811,-2.7,-2.5961,-2.5888,-2.5182,-2.4389,-2.4266,-2.3507,-2.2785,-2.3334,-2.2995,-2.2558,-2.2558,-2.2558,-2.2392,-2.1852,-2.1697,0.0,0.0,-2.1615,-2.1568,-2.1568,-2.1064,0.0,-2.066,0.0,0.0,0.0,0.0,-2.0441,0.0,0.0,0.0,0.0,0.0,0.0,0.0,0.0,0.0,-2.0722,-2.0566,-2.0898,-2.1631,-2.1738,-2.1777,-2.1777,-2.1777,-2.1367,-2.0566,-2.0566,-2.0566,-2.0566,-2.0566,-2.0566,-2.0566,-2.0566,0.0,-2.0566,-2.0566,-2.0566,-2.0566,-2.0566,-2.0566,-2.0566,-2.0566,-2.0566,-2.0566,0.0,0.0,0.0,0.0,0.0,0.0,0.0,-2.3209,-2.3777,-2.3995,-2.4448,-2.4917,-2.5348,-2.5406,-2.5447,0.0,0.0,0.0,0.0,0.0,0.0,0.0,-2.5564,-2.5935,-2.6722,-2.7608,0.0,0.0,0.0,-2.9789,-2.9254,0.0,0.0,-2.9696,-2.9607,-2.9661,-2.9845,-2.9746,-2.9763,-2.9861,-2.9861,-2.9796,-2.9678,0.0,0.0,0.0,0.0,0.0,-2.8156,-2.8156,-2.7495,-2.6607,-2.6139,-2.5259,-2.4389,-2.4389,-2.4002,-2.3593,-2.3595,-2.3608,-2.3507,-2.3231,-2.3157,-2.3098,-2.2741,0.0,0.0,0.0,-2.2423,-2.2193,-2.2193,0.0,0.0,0.0,0.0,0.0,0.0,0.0,0.0,0.0,0.0,0.0,0.0,0.0,0.0,0.0,0.0,0.0,-2.1375,-2.0857,-2.0869,-2.1523,-2.1553,-2.1553,-2.1553,-2.1553,-2.1221,-2.0566,-2.0566,-2.0566,-2.0566,-2.0566,-2.0566,-2.0566,-2.0566,0.0,-2.0566,-2.0566,-2.0566,-2.0566,-2.0566,-2.0566,-2.0566,-2.0566,-2.0566,-2.0566,0.0,0.0,0.0,0.0,0.0,0.0,0.0,-2.2767,-2.3256,-2.305,-2.3729,-2.4425,-2.4928,-2.5192,-2.536,0.0,0.0,0.0,0.0,0.0,0.0,0.0,0.0,0.0,0.0,0.0,0.0,0.0,0.0,0.0,0.0,0.0,0.0,0.0,0.0,0.0,-3.0075,-3.0013,-3.0028,0.0,0.0,0.0,0.0,0.0,0.0,0.0,0.0,0.0,0.0,0.0,-2.7974,-2.7317,-2.6623,-2.564,-2.4736,-2.4736,-2.4657,-2.4471,-2.3921,-2.4158,-2.443,-2.3921,-2.3879,-2.3921,-2.3794,-2.3752,0.0,0.0,-2.3231,-2.2875,-2.2875,0.0,0.0,0.0,0.0,0.0,0.0,0.0,0.0,0.0,0.0,0.0,0.0,0.0,0.0,0.0,0.0,0.0,-2.2027,-2.1517,-2.1221,-2.1221,-2.161,-2.1769,-2.1531,-2.1531,-2.1303,-2.0934,-2.0712,-2.0566,-2.0566,-2.0566,-2.0566,-2.0566,-2.0566,0.0,0.0,-2.0566,-2.0566,-2.0566,-2.0566,-2.0712,-2.0857,-2.0634,-2.0867,-2.1155,0.0,0.0,0.0,0.0,0.0,0.0,0.0,-2.2086,-2.2144,-2.212,-2.2871,-2.3484,-2.365,-2.4498,-2.5137,0.0,0.0,0.0,0.0,0.0,0.0,0.0,0.0,0.0,0.0,0.0,0.0,0.0,0.0,0.0,0.0,0.0,0.0,0.0,0.0,0.0,0.0,-3.0089,0.0,0.0,0.0,0.0,0.0,0.0,0.0,0.0,0.0,0.0,0.0,0.0,0.0,-2.784,-2.7736,-2.6853,-2.5852,-2.5852,0.0,0.0,-2.4471,-2.4712,-2.4989,-2.4471,-2.4712,-2.495,-2.443,0.0,0.0,-2.3724,-2.3551,-2.3508,-2.3508,-2.3009,-2.2603,0.0,0.0,-2.1403,0.0,0.0,0.0,0.0,0.0,0.0,0.0,0.0,0.0,0.0,0.0,0.0,0.0,-2.2776,-2.2638,-2.1221,-2.2974,-2.3503,-2.2585,-2.2585,-2.2345,-2.1886,-2.1011,-2.0566,-2.0566,-2.0566,-2.0566,-2.0566,-2.0566,0.0,0.0,-2.0566,-2.0566,-2.0566,-2.0566,-2.1155,-2.1735,-2.0934,-2.1756,-2.3073,0.0,0.0,0.0,0.0,0.0,0.0,-2.1805,-2.2115,-2.2382,-2.2318,-2.3033,-2.3492,-2.3393,-2.4174,-2.4812,-2.5137,0.0,0.0,0.0,0.0,0.0,0.0,0.0,0.0,0.0,0.0,0.0,0.0,0.0,0.0,0.0,0.0,0.0,0.0,0.0,0.0,0.0,0.0,0.0,0.0,0.0,0.0,0.0,0.0,0.0,0.0,0.0,0.0,0.0,0.0,0.0,0.0,-2.821,-2.773,0.0,0.0,-2.6002,-2.5577,-2.5028,-2.5259,-2.5561,-2.5028,-2.5028,-2.5144,-2.4934,0.0,-2.4752,-2.4199,-2.4074,-2.3991,-2.3681,-2.3421,-2.3098,-2.274,-2.2498,0.0,0.0,0.0,0.0,0.0,0.0,0.0,0.0,0.0,0.0,0.0,0.0,0.0,0.0,-2.3599,-2.3246,-2.2626,-2.337,-2.3594,-2.3209,-2.322,-2.3121,-2.2925,-2.2489,-2.2339,-2.2339,-2.1745,-2.1745,-2.2339,-2.1745,0.0,0.0,-2.2339,-2.2339,-2.2339,-2.2339,-2.2553,-2.285,-2.2489,-2.2861,-2.3441,0.0,0.0,0.0,0.0,0.0,-2.2341,-2.1608,-2.1796,-2.1954,-2.1824,-2.2303,-2.2626,-2.2486,-2.3456,-2.4139,-2.4106,-2.479,0.0,0.0,0.0,0.0,0.0,0.0,0.0,0.0,0.0,-2.9208,-3.0595,-3.0664,0.0,0.0,0.0,0.0,0.0,0.0,0.0,0.0,0.0,0.0,0.0,0.0,0.0,0.0,0.0,0.0,0.0,0.0,0.0,0.0,0.0,0.0,0.0,0.0,-2.8316,-2.789,0.0,-2.6556,-2.6264,-2.5598,-2.5799,-2.6068,-2.5577,-2.5524,-2.5598,0.0,0.0,-2.5259,-2.4536,-2.4389,-2.4241,-2.3724,-2.3595,-2.3465,-2.3024,-2.2965,-2.2956,0.0,0.0,0.0,0.0,0.0,0.0,0.0,0.0,0.0,0.0,0.0,0.0,0.0,-2.4767,-2.4108,-2.3514,-2.4108,-2.4253,-2.3963,-2.3963,-2.3963,-2.3963,-2.3672,-2.3514,-2.3452,-2.2776,-2.285,-2.3441,0.0,0.0,0.0,-2.3514,-2.3514,-2.3514,-2.3514,-2.3672,-2.3891,-2.3599,-2.3891,-2.4325,0.0,0.0,0.0,0.0,0.0,0.0,-2.1583,-2.0891,-2.0354,-2.0151,-2.0192,-2.0318,-2.0505,-2.2187,-2.2964,-2.2118,-2.3846,0.0,0.0,0.0,0.0,0.0,0.0,0.0,0.0,0.0,-2.9724,-3.0606,-3.0673,-3.0696,-3.0699,0.0,0.0,0.0,0.0,0.0,0.0,0.0,0.0,0.0,0.0,0.0,0.0,0.0,0.0,0.0,0.0,0.0,0.0,0.0,0.0,0.0,0.0,-2.8725,-2.8246,-2.7512,-2.7303,-2.7098,-2.6245,-2.6332,-2.659,-2.612,-2.6332,-2.6539,0.0,0.0,-2.5689,-2.4632,-2.4389,-2.4241,-2.3724,-2.3595,-2.3595,-2.3595,-2.3595,-2.36,0.0,0.0,0.0,0.0,0.0,0.0,0.0,0.0,0.0,0.0,0.0,0.0,0.0,-2.6452,-2.5569,-2.3588,-2.5429,-2.6025,-2.5004,-2.5004,-2.5004,-2.4933,-2.3963,-2.3514,-2.3514,-2.3514,-2.3514,0.0,0.0,0.0,0.0,-2.3514,-2.3514,-2.3514,-2.3514,-2.4108,-2.4862,-2.3891,-2.4767,-2.6314,0.0,0.0,0.0,0.0,0.0,0.0,0.0,-2.1854,-2.1739,-2.1849,-2.2091,-2.2153,-2.1893,-2.2612,-2.2975,-2.2699,-2.4013,0.0,0.0,0.0,0.0,0.0,0.0,0.0,0.0,-2.7361,-2.7957,-2.8817,-2.8885,-2.8922,-2.8922,-2.8973,-2.8983,0.0,0.0,0.0,0.0,0.0,0.0,0.0,0.0,0.0,0.0,0.0,0.0,0.0,0.0,0.0,0.0,0.0,0.0,0.0,0.0,0.0,0.0,-2.8192,-2.7689,0.0,-2.697,-2.6791,-2.6657,-2.6521,-2.659,-2.6657,-2.6505,0.0,-2.628,-2.5652,-2.5486,-2.5335,-2.4776,-2.4389,-2.4158,-2.4158,-2.3837,-2.3955,0.0,0.0,0.0,0.0,0.0,0.0,0.0,0.0,0.0,0.0,0.0,0.0,0.0,-2.6533,-2.6233,-2.5569,-2.6164,-2.6383,-2.6025,-2.6025,-2.6025,-2.6025,-2.5721,-2.5569,-2.5499,-2.485,0.0,0.0,0.0,0.0,0.0,-2.5569,-2.5569,-2.5569,-2.5569,-2.5721,-2.6025,-2.5652,-2.5943,-2.6452,0.0,0.0,0.0,0.0,0.0,0.0,0.0,-2.2197,-2.2125,-2.2404,-2.2383,-2.2256,-2.2062,-2.2609,-2.2887,-2.2575,-2.3516,0.0,0.0,0.0,0.0,0.0,0.0,0.0,-2.6582,-2.6958,-2.7419,-2.796,-2.8022,-2.8054,-2.8054,-2.8139,-2.819,-2.8203,-2.8203,0.0,0.0,0.0,0.0,0.0,0.0,0.0,-2.8736,0.0,0.0,0.0,0.0,0.0,0.0,0.0,0.0,0.0,0.0,0.0,0.0,0.0,-2.8192,-2.766,0.0,-2.7115,-2.6906,-2.6758,-2.6691,0.0,0.0,-2.6691,-2.659,-2.6085,-2.6013,-2.5852,-2.5297,-2.495,-2.4632,-2.443,-2.4116,0.0,0.0,0.0,0.0,0.0,0.0,0.0,0.0,0.0,0.0,0.0,0.0,0.0,0.0,0.0,-2.6533,-2.6533,-2.6533,-2.6533,-2.6533,-2.6533,-2.6533,-2.6533,-2.6533,-2.6533,-2.6465,-2.5873,0.0,0.0,0.0,0.0,0.0,-2.6533,-2.6533,-2.6533,-2.6533,-2.6533,-2.6533,-2.6533,-2.6533,-2.6533,0.0,0.0,0.0,0.0,0.0,0.0,0.0,-2.2131,-2.1777,-2.2036,-2.1485,-2.117,-2.1432,-2.2354,-2.2685,-2.1951,0.0,0.0,0.0,0.0,0.0,0.0,0.0,0.0,-2.6495,-2.7294,-2.7717,-2.7717,-2.7767,-2.7807,-2.7807,-2.7873,-2.7944,-2.7998,-2.8001,-2.8006,-2.7964,-2.7098,-2.6675,-2.6633,-2.6684,-2.7179,0.0,0.0,0.0,0.0,0.0,0.0,0.0,0.0,0.0,0.0,0.0,0.0,0.0,0.0,0.0,0.0,0.0,-2.7348,-2.7241,0.0,0.0,0.0,0.0,0.0,0.0,-2.6156,-2.6049,-2.5888,-2.5411,-2.5297,-2.5105,-2.4576,-2.4471,0.0,0.0,0.0,0.0,0.0,0.0,0.0,0.0,0.0,0.0,0.0,0.0,0.0,0.0,0.0,-2.6533,-2.6533,-2.6533,-2.6533,-2.6533,-2.6533,-2.6533,-2.6533,-2.6533,-2.6533,-2.6533,-2.6533,0.0,0.0,0.0,0.0,0.0,-2.6533,-2.6533,-2.6533,-2.6533,-2.6533,-2.6533,-2.6533,-2.6533,-2.6533,0.0,0.0,0.0,0.0,0.0,0.0,0.0,0.0,0.0,0.0,-2.2764,-2.2772,-2.3091,-2.2831,-2.2643,0.0,0.0,0.0,0.0,0.0,0.0,0.0,0.0,0.0,-2.5591,-2.5813,-2.5909,-2.5909,-2.5919,-2.5938,-2.5938,-2.5998,-2.6036,-2.6067,-2.6121,-2.6152,-2.6206,-2.6034,-2.5917,-2.5917,-2.6523,-2.7263,0.0,0.0,0.0,0.0,-3.0398,-3.0241,0.0,0.0,0.0,0.0,0.0,0.0,0.0,0.0,-2.8929,-2.8749,-2.8272,0.0,-2.7648,-2.7272,-2.7147,-2.7083,0.0,0.0,0.0,0.0,0.0,0.0,0.0,-2.6068,-2.5779,-2.5652,-2.495,0.0,0.0,0.0,0.0,0.0,0.0,0.0,0.0,0.0,0.0,0.0,0.0,0.0,0.0,0.0,-2.6533,-2.6533,-2.6533,-2.6533,-2.6533,-2.6533,-2.6533,-2.6533,-2.6533,-2.6533,-2.6533,-2.6533,0.0,0.0,0.0,0.0,-2.6533,-2.6533,-2.6533,-2.6533,-2.6533,-2.6533,-2.6533,-2.6533,-2.6533,-2.6533,0.0,0.0,0.0,0.0,0.0,0.0,0.0,0.0,0.0,0.0,0.0,0.0,0.0,0.0,0.0,0.0,0.0,0.0,0.0,0.0,0.0,0.0,0.0,-2.4643,-2.5284,-2.5303,-2.5303,-2.5303,-2.5303,-2.5303,-2.5303,-2.5339,-2.5379,-2.5394,-2.5463,-2.5543,-2.5603,-2.5636,-2.5625,-2.564,-2.6061,0.0,0.0,0.0,0.0,0.0,-3.0256,-3.0311,0.0,-2.9927,-2.9713,-2.9494,0.0,0.0,0.0,0.0,-2.9089,-2.8952,-2.8749,-2.8412,-2.8047,-2.7678,-2.7577,-2.75,-2.7303,0.0,0.0,0.0,0.0,0.0,0.0,0.0,0.0,0.0,0.0,0.0,0.0,0.0,0.0,0.0,0.0,0.0,0.0,0.0,0.0,0.0,0.0,0.0,0.0,0.0,-2.6905,-2.6533,-2.6533,-2.6533,-2.6533,-2.6533,-2.6533,-2.6533,-2.6533,-2.6533,-2.6533,-2.6533,-2.6533,0.0,0.0,0.0,-2.6533,-2.6533,-2.6533,-2.6533,-2.6533,-2.6533,-2.6533,-2.6533,-2.6533,-2.6533,0.0,0.0,0.0,0.0,0.0,0.0,0.0,0.0,0.0,0.0,0.0,0.0,0.0,0.0,0.0,0.0,0.0,0.0,0.0,0.0,0.0,0.0,-2.422,-2.44,-2.5284,-2.5303,-2.5303,-2.5303,-2.5303,-2.5303,-2.5303,-2.5303,-2.533,-2.5391,-2.5446,-2.5526,-2.5564,-2.5598,-2.5602,-2.5593,-2.5605,0.0,0.0,0.0,0.0,0.0,0.0,0.0,0.0,-3.0051,-2.9893,-2.9748,-2.9713,0.0,0.0,0.0,0.0,0.0,-2.9017,-2.8749,-2.8394,-2.8047,-2.7875,-2.7794,-2.7805,0.0,0.0,0.0,0.0,0.0,0.0,0.0,0.0,0.0,0.0,0.0,0.0,0.0,0.0,0.0,0.0,0.0,0.0,0.0,0.0,0.0,0.0,0.0,0.0,0.0,0.0,-2.6714,-2.6658,-2.6589,-2.6533,-2.6533,-2.6533,-2.6533,-2.6533,-2.6533,-2.6533,-2.6533,-2.6533,0.0,0.0,0.0,-2.6533,-2.6533,-2.6533,-2.6533,-2.6533,-2.6533,-2.6533,-2.6533,-2.6533,-2.6533,0.0,0.0,0.0,0.0,0.0,0.0,0.0,0.0,0.0,0.0,0.0,0.0,0.0,0.0,0.0,0.0,0.0,0.0,0.0,0.0,0.0,-2.3883,-2.451,-2.4985,-2.5284,-2.5303,-2.5303,-2.5303,-2.5303,-2.5303,-2.5303,-2.5303,-2.5322,-2.5322,-2.5383,-2.5415,-2.5434,-2.5551,-2.5607,-2.5597,-2.5598,0.0,0.0,0.0,0.0,0.0,0.0,0.0,0.0,-2.9841,-2.9984,-2.9924,-2.9746,0.0,0.0,0.0,0.0,0.0,-2.9044,-2.8952,-2.8815,-2.842,-2.7795,-2.7316,-2.7372,0.0,0.0,0.0,0.0,0.0,0.0,0.0,0.0,0.0,0.0,0.0,0.0,0.0,0.0,0.0,0.0,0.0,0.0,0.0,0.0,0.0,0.0,0.0,0.0,0.0,0.0,-2.7537,-2.755,-2.7162,-2.6533,-2.6533,-2.6533,-2.6533,-2.6533,-2.6533,-2.6533,-2.6533,-2.6533,0.0,0.0,-2.6533,-2.6533,-2.6533,-2.6533,-2.6533,-2.6533,-2.6533,-2.6533,-2.6533,-2.6533,-2.6533,0.0,0.0,0.0,0.0,0.0,0.0,0.0,0.0,0.0,0.0,0.0,0.0,0.0,0.0,0.0,0.0,0.0,0.0,0.0,0.0,-2.2189,-2.2968,-2.4377,-2.5203,-2.5303,-2.5303,-2.5303,-2.5303,-2.5303,-2.5303,-2.5303,-2.5303,-2.5303,-2.5313,-2.533,-2.5371,-2.5406,-2.5471,-2.552,-2.5603,0.0,0.0,0.0,0.0,0.0,0.0,0.0,0.0,0.0,0.0,-2.9071,-2.9346,-2.9379,0.0,0.0,0.0,0.0,0.0,-2.9246,-2.878,-2.8402,-2.8664,-2.8275,-2.7797,-2.7648,0.0,0.0,0.0,0.0,0.0,0.0,0.0,0.0,0.0,0.0,0.0,0.0,0.0,0.0,0.0,0.0,0.0,0.0,0.0,0.0,0.0,0.0,0.0,0.0,0.0,0.0,0.0,-2.792,-2.7736,-2.7855,-2.7351,-2.6905,-2.6533,-2.6533,-2.6533,-2.6533,-2.6533,-2.6533,-2.6533,0.0,-2.6533,-2.6533,-2.6533,-2.6533,-2.6533,-2.6533,-2.6782,-2.7162,-2.7162,-2.7162,-2.7111,0.0,0.0,0.0,0.0,0.0,0.0,0.0,0.0,0.0,0.0,0.0,0.0,0.0,0.0,0.0,0.0,0.0,0.0,0.0,-2.1306,-2.2382,-2.2571,-2.4282,-2.5157,-2.5024,-2.5187,-2.5111,-2.4716,-2.5111,-2.5303,-2.5303,-2.5303,-2.5303,-2.5303,-2.5303,-2.5321,-2.5387,-2.5398,-2.5477,-2.557,0.0,0.0,0.0,0.0,0.0,0.0,0.0,0.0,0.0,0.0,0.0,0.0,0.0,0.0,0.0,-2.9908,-2.9729,-2.9513,-2.9433,-2.8804,-2.8276,-2.874,-2.8579,-2.8204,0.0,0.0,0.0,0.0,0.0,0.0,0.0,0.0,0.0,0.0,0.0,0.0,0.0,0.0,0.0,0.0,0.0,0.0,0.0,0.0,0.0,0.0,0.0,0.0,0.0,0.0,0.0,-2.9317,-2.8684,-2.8556,-2.9002,-2.8363,-2.767,-2.7095,-2.7095,-2.7095,-2.7095,-2.7095,-2.6973,-2.6782,-2.6782,-2.6782,-2.6782,-2.6782,-2.6782,-2.6782,-2.704,-2.7406,-2.7759,-2.7626,-2.7508,-2.7442,0.0,0.0,0.0,0.0,0.0,0.0,0.0,0.0,0.0,0.0,0.0,0.0,0.0,0.0,0.0,0.0,0.0,0.0,0.0,-2.1703,-2.2626,-2.338,-2.4448,-2.4766,-2.4206,-2.4928,-2.4543,-2.2985,-2.4543,-2.5303,-2.5303,-2.5303,-2.5303,-2.5303,-2.5303,-2.5293,-2.5313,-2.5379,-2.5441,-2.5503,-2.5567,0.0,0.0,0.0,0.0,0.0,0.0,0.0,0.0,0.0,0.0,0.0,0.0,0.0,-3.0273,-2.9848,-2.9829,-2.9877,-2.9494,-2.9336,-2.9153,-2.8578,-2.8142,-2.7861,-2.7905,-2.7869,0.0,-2.6906,0.0,0.0,0.0,0.0,0.0,0.0,0.0,0.0,0.0,0.0,0.0,0.0,0.0,0.0,0.0,0.0,0.0,0.0,0.0,0.0,0.0,0.0,0.0,-3.0208,-3.0133,-2.9766,-2.9002,-2.8939,-2.8876,-2.8812,-2.8812,-2.8812,-2.8812,-2.8812,-2.8363,-2.7604,-2.7604,-2.7604,-2.7604,-2.7604,-2.7604,-2.767,-2.8492,-2.8469,-2.7906,-2.7256,-2.7051,-2.7037,0.0,0.0,0.0,0.0,0.0,0.0,0.0,0.0,0.0,0.0,0.0,0.0,0.0,0.0,0.0,0.0,0.0,0.0,0.0,-2.1548,-2.2491,-2.3337,-2.4422,-2.4652,-2.3943,-2.4821,-2.4736,-2.361,-2.4736,-2.5303,-2.5303,-2.5303,-2.5303,-2.5303,-2.5303,-2.5303,-2.5313,-2.534,-2.5387,-2.5441,-2.5517,-2.5559,0.0,0.0,0.0,0.0,0.0,0.0,0.0,0.0,-2.7217,-2.8341,-2.8265,-2.9229,-3.0374,-3.0188,-2.9973,-2.978,-2.9644,-2.9375,-2.9093,-2.8839,-2.8667,0.0,0.0,-2.7547,-2.7348,-2.6808,-2.6691,0.0,0.0,0.0,0.0,0.0,0.0,0.0,0.0,0.0,0.0,0.0,0.0,0.0,0.0,0.0,0.0,0.0,0.0,0.0,0.0,0.0,0.0,-2.9891,-2.9334,-2.916,-2.9348,-2.8854,-2.8854,-2.9348,-2.8699,-2.8167,-2.7795,-2.7795,-2.7612,-2.7242,-2.7242,-2.7242,-2.7242,-2.7242,-2.7242,-2.7366,-2.8232,-2.8092,-2.7423,-2.7675,-2.7838,-2.7781,0.0,0.0,0.0,0.0,0.0,0.0,0.0,0.0,0.0,0.0,0.0,0.0,0.0,0.0,0.0,0.0,0.0,0.0,-2.0868,-2.1789,-2.2701,-2.3557,-2.4392,-2.4452,-2.3625,-2.4664,-2.4716,-2.3687,-2.4524,-2.5063,-2.5303,-2.5303,-2.5303,-2.5303,-2.5303,-2.5303,-2.5303,-2.5303,-2.5339,-2.5406,-2.5453,-2.5526,0.0,0.0,0.0,0.0,0.0,0.0,0.0,0.0,-2.6294,-2.7547,-2.7712,-2.8802,-3.004,-3.0215,-3.0052,-2.978,-2.9731,-2.9416,-2.9112,-2.9017,0.0,0.0,-2.7736,-2.747,-2.7317,-2.6808,-2.6691,0.0,0.0,0.0,0.0,0.0,0.0,0.0,0.0,0.0,0.0,0.0,0.0,0.0,0.0,0.0,0.0,0.0,0.0,0.0,0.0,0.0,0.0,0.0,-2.9042,-2.8987,-2.9579,-2.8987,-2.8884,-2.928,-2.8526,-2.8064,-2.7824,-2.7824,-2.7694,-2.7402,-2.7402,-2.7402,-2.7402,-2.7402,-2.7577,-2.7853,-2.7911,-2.7769,-2.757,-2.7961,-2.8068,-2.7995,0.0,0.0,0.0,0.0,0.0,0.0,0.0,0.0,0.0,0.0,0.0,0.0,0.0,0.0,0.0,0.0,0.0,0.0,-2.1766,-2.2556,-2.3364,-2.4153,-2.4393,-2.4087,-2.3236,-2.4382,-2.4296,-2.2812,-2.3687,-2.4524,-2.5303,-2.5303,-2.5303,-2.5303,-2.5303,-2.5303,-2.5303,-2.5303,-2.5348,-2.5406,-2.5398,-2.5482,-2.5583,0.0,0.0,0.0,0.0,0.0,0.0,0.0,-2.5927,-2.679,-2.7318,-2.828,-2.9303,-2.9844,-2.9999,-2.9954,-2.9746,-2.9551,-2.933,0.0,0.0,0.0,-2.8065,-2.7897,-2.7695,-2.6873,0.0,-2.6691,0.0,0.0,0.0,0.0,0.0,0.0,0.0,0.0,0.0,0.0,0.0,0.0,0.0,0.0,0.0,0.0,0.0,0.0,0.0,0.0,0.0,0.0,-2.9564,-2.9564,-2.9564,-2.9564,-2.9235,-2.8592,-2.8592,-2.8936,-2.9564,-2.9564,-2.9083,-2.8311,-2.8311,-2.8311,-2.8311,-2.8311,-2.8791,-2.9436,-2.7882,-2.7813,-2.8502,-2.7814,-2.7625,-2.7625,0.0,0.0,0.0,0.0,0.0,0.0,0.0,0.0,0.0,0.0,0.0,0.0,0.0,0.0,0.0,0.0,0.0,0.0,-2.2556,-2.2868,-2.3364,-2.4153,-2.4393,-2.4383,-2.4106,-2.4699,-2.4851,-2.4562,-2.4832,-2.5082,-2.5303,-2.5303,-2.5303,-2.5303,-2.5303,-2.5303,-2.5303,-2.5303,-2.5313,-2.5339,-2.5376,-2.5421,-2.5463,0.0,0.0,0.0,0.0,0.0,0.0,0.0,0.0,0.0,-2.6901,-2.799,-2.9206,-2.934,-2.9672,-2.9954,-2.9746,-2.9551,0.0,0.0,0.0,0.0,0.0,-2.8264,0.0,0.0,0.0,0.0,0.0,0.0,0.0,0.0,0.0,0.0,0.0,0.0,0.0,0.0,0.0,0.0,0.0,0.0,0.0,0.0,0.0,0.0,0.0,0.0,0.0,0.0,-2.821,-2.821,-2.821,-2.821,-2.8068,-2.7874,-2.7874,-2.7979,-2.821,-2.821,-2.8055,-2.7817,-2.7817,-2.7817,-2.7817,-2.7817,-2.7936,-2.8143,-2.7713,-2.769,-2.7859,-2.7649,-2.7625,-2.7625,0.0,0.0,0.0,0.0,0.0,0.0,0.0,0.0,0.0,0.0,-1.7949,0.0,0.0,0.0,0.0,0.0,0.0,0.0,0.0,-2.3309,-2.3694,-2.4171,-2.4321,-2.4428,-2.4495,-2.4693,-2.4943,-2.5173,-2.5264,-2.5303,-2.5303,-2.5303,-2.5303,-2.5303,-2.5303,-2.5303,-2.5303,-2.5303,-2.5303,-2.5293,-2.5337,-2.5368,-2.542,0.0,0.0,0.0,0.0,0.0,0.0,0.0,0.0,0.0,-2.7058,-2.7949,-2.8861,-2.9387,-2.9696,-2.9829,-2.9644,0.0,0.0,0.0,0.0,0.0,0.0,0.0,0.0,0.0,0.0,0.0,0.0,0.0,0.0,0.0,0.0,0.0,0.0,0.0,0.0,0.0,0.0,0.0,0.0,0.0,0.0,0.0,0.0,0.0,0.0,0.0,0.0,0.0,-2.771,-2.7625,-2.7625,-2.7625,-2.7625,-2.7625,-2.7625,-2.7625,-2.7625,-2.7625,-2.7625,-2.7625,-2.7625,-2.7625,-2.7625,-2.7625,-2.7625,-2.7625,-2.7625,-2.7625,-2.7625,-2.7625,-2.7625,-2.7625,0.0,0.0,0.0,0.0,0.0,0.0,0.0,0.0,0.0,0.0,-1.8329,-1.8787,0.0,0.0,0.0,0.0,0.0,0.0,0.0,-2.3786,-2.419,-2.419,-2.419,-2.4284,-2.4495,-2.4495,-2.4666,-2.4986,-2.5192,-2.5274,-2.5303,-2.5303,-2.5303,-2.5303,-2.538,-2.5418,-2.5418,-2.5495,-2.5534,-2.5534,-2.5534,-2.5532,-2.5519,-2.5599,0.0,0.0,0.0,0.0,0.0,0.0,0.0,0.0,-2.7634,-2.8154,-2.8482,-2.9737,-2.9937,-2.9695,-2.9474,0.0,0.0,0.0,0.0,0.0,0.0,0.0,0.0,0.0,0.0,0.0,0.0,0.0,0.0,0.0,0.0,0.0,0.0,0.0,0.0,0.0,0.0,0.0,0.0,0.0,0.0,0.0,0.0,0.0,0.0,0.0,0.0,0.0,-2.7944,-2.7675,-2.7625,-2.7625,-2.7625,0.0,-2.7625,-2.7625,-2.7625,-2.7625,-2.7625,-2.7625,-2.7625,-2.7625,-2.7625,-2.7625,-2.7625,-2.7625,-2.7625,-2.7625,-2.7625,-2.7625,-2.7625,-2.7625,0.0,0.0,0.0,0.0,0.0,0.0,0.0,0.0,0.0,0.0,0.0,0.0,0.0,0.0,0.0,0.0,0.0,0.0,0.0,-2.4098,-2.419,-2.419,-2.419,-2.4284,-2.4495,-2.4495,-2.4607,-2.4842,-2.4993,-2.5152,-2.5303,-2.5303,-2.5303,-2.5322,-2.6024,-2.6332,-2.637,-2.7044,-2.7332,-2.7332,-2.7332,-2.6949,-2.642,-2.7166,-2.7065,0.0,0.0,0.0,0.0,0.0,0.0,0.0,-2.8054,-2.8652,-2.9234,-2.9369,-2.9743,-3.0021,-2.9729,-2.9474,0.0,0.0,0.0,0.0,0.0,0.0,0.0,0.0,0.0,0.0,0.0,0.0,0.0,0.0,0.0,0.0,0.0,0.0,0.0,0.0,0.0,0.0,0.0,0.0,0.0,0.0,0.0,0.0,0.0,0.0,0.0,-2.8511,-2.8367,-2.8091,-2.761,-2.7625,-2.7625,0.0,-2.7625,-2.7625,-2.7625,-2.7625,-2.7625,-2.7625,-2.7625,-2.7625,-2.7625,-2.7625,-2.7625,-2.7625,-2.7625,-2.7625,-2.7625,-2.7625,-2.7625,-2.7625,0.0,0.0,0.0,0.0,0.0,0.0,0.0,0.0,0.0,0.0,0.0,0.0,0.0,0.0,0.0,0.0,0.0,0.0,0.0,0.0,-2.419,-2.419,-2.419,-2.4247,-2.4357,-2.4357,-2.4444,-2.4654,-2.4823,-2.4975,-2.5068,-2.5118,-2.5382,-2.5803,-2.6359,-2.6832,-2.7255,-2.7698,-2.789,-2.789,-2.789,-2.7621,-2.7285,-2.7769,-2.7726,-2.7483,-2.7978,0.0,0.0,0.0,0.0,0.0,0.0,0.0,-2.9549,-2.9726,-2.9979,-3.0107,-2.9699,0.0,0.0,0.0,0.0,0.0,0.0,0.0,0.0,0.0,0.0,0.0,0.0,0.0,0.0,0.0,0.0,0.0,0.0,0.0,0.0,0.0,0.0,0.0,0.0,0.0,0.0,0.0,0.0,0.0,0.0,-3.0166,-2.9673,-2.9361,-2.9088,-2.8779,-2.8448,-2.8448,-2.8448,-2.8448,-2.8448,-2.8448,-2.8448,-2.7845,-2.7625,-2.7625,-2.7625,-2.7625,-2.7625,-2.7625,-2.7625,-2.7625,-2.7625,-2.7625,-2.7625,-2.7625,-2.7625,-2.7625,0.0,0.0,0.0,0.0,0.0,0.0,0.0,0.0,0.0,0.0,0.0,0.0,0.0,0.0,0.0,0.0,0.0,0.0,0.0,0.0,0.0,-2.419,-2.419,-2.419,-2.419,-2.419,-2.4284,-2.4444,-2.4654,-2.4746,-2.476,-2.4968,-2.5523,-2.6364,-2.6683,-2.7294,-2.8121,-2.8275,-2.8332,-2.8332,-2.8345,-2.8259,-2.8144,-2.8309,-2.8365,-2.8369,-2.8501,-2.8622,-2.875,-2.875,0.0,0.0,0.0,0.0,-2.9838,-3.0317,-3.0343,-3.0133,-2.9734,0.0,0.0,0.0,0.0,0.0,0.0,0.0,0.0,0.0,0.0,0.0,0.0,0.0,0.0,0.0,0.0,0.0,0.0,0.0,0.0,0.0,0.0,0.0,0.0,0.0,0.0,0.0,0.0,0.0,-3.119,-3.074,-3.0435,-3.0293,-2.9805,-2.9496,-2.9406,-2.9406,-2.9406,-2.9406,-2.9406,-2.9406,-2.9361,-2.8352,-2.7845,-2.776,-2.7675,-2.766,-2.776,-2.761,-2.766,-2.776,-2.7625,-2.7625,-2.7625,-2.7625,-2.7625,-2.7625,0.0,0.0,0.0,0.0,0.0,0.0,0.0,0.0,0.0,0.0,0.0,0.0,0.0,0.0,0.0,0.0,0.0,0.0,0.0,0.0,0.0,-2.419,-2.419,-2.419,-2.419,-2.419,-2.4209,-2.4247,-2.4426,-2.4545,-2.4543,-2.5037,-2.5725,-2.6589,-2.7379,-2.8179,-2.8986,-2.9756,-3.0083,-3.0075,-3.0124,-2.9707,-2.9115,-2.9926,-2.9854,-2.9406,-3.0102,-3.0437,-3.0547,-3.0547,-3.0547,0.0,0.0,0.0,-3.0701,-3.0679,-3.0526,-3.0326,0.0,0.0,0.0,0.0,0.0,0.0,0.0,0.0,0.0,0.0,0.0,0.0,0.0,0.0,0.0,0.0,0.0,0.0,0.0,0.0,0.0,0.0,0.0,0.0,0.0,0.0,0.0,0.0,0.0,0.0,-3.119,-3.1112,-3.0838,-3.0309,-3.0208,-2.9951,-2.9406,-2.9406,-2.9406,-2.9406,-2.9406,-2.9406,-2.9406,-2.9225,-2.8857,-2.8319,-2.781,-2.791,-2.8319,-2.781,-2.791,-2.8334,-2.781,-2.7625,-2.7625,-2.7625,-2.7625,-2.7625,0.0,0.0,0.0,0.0,0.0,0.0,0.0,0.0,0.0,0.0,0.0,0.0,0.0,0.0,0.0,0.0,0.0,0.0,0.0,0.0,0.0,-2.419,-2.419,-2.419,-2.419,-2.419,-2.419,-2.419,-2.441,-2.4561,-2.467,-2.4981,-2.56,-2.6462,-2.7454,-2.8352,-2.9159,-3.0025,-3.0398,-3.0421,-3.0472,-3.0266,-2.9973,-3.0439,-3.0419,-3.0231,-3.0579,-3.0792,-3.0898,-3.0898,-3.0898,-3.0898,-3.0898,0.0,0.0,0.0,-3.0699,0.0,-3.0083,0.0,0.0,0.0,0.0,0.0,0.0,0.0,0.0,0.0,0.0,0.0,0.0,0.0,0.0,0.0,0.0,0.0,0.0,0.0,0.0,0.0,0.0,0.0,0.0,0.0,0.0,0.0,0.0,-3.0768,-3.1173,-3.119,-3.1072,-3.0797,-3.0781,-3.0658,-3.0435,-3.0435,-3.0435,-3.0435,-3.0435,-3.0435,-3.0393,-3.0081,-2.9585,-2.9012,-2.8717,-2.8764,-2.8996,-2.8717,-2.8764,-2.8966,-2.8319,-2.8091,-2.8042,-2.771,-2.7625,-2.7625,0.0,0.0,0.0,0.0,0.0,0.0,0.0,0.0,0.0,0.0,0.0,0.0,0.0,0.0,0.0,0.0,0.0,0.0,0.0,0.0,0.0,-2.419,-2.419,-2.419,-2.419,-2.419,-2.419,-2.419,-2.441,-2.4594,-2.4731,-2.4911,-2.5354,-2.6022,-2.7086,-2.8255,-2.9467,-2.989,-3.0221,-3.0439,-3.0498,-3.0537,-3.0554,-3.0633,-3.07,-3.0747,-3.0747,-3.0816,-3.0898,-3.0898,-3.0898,-3.0898,0.0,0.0,0.0,0.0,0.0,0.0,0.0,0.0,0.0,0.0,0.0,0.0,0.0,0.0,0.0,0.0,0.0,0.0,0.0,0.0,0.0,0.0,0.0,0.0,0.0,0.0,0.0,0.0,0.0,0.0,0.0,0.0,0.0,0.0,0.0,-3.0057,-3.0598,-3.0632,-3.0632,-3.0632,-3.0818,-3.092,-3.092,-3.1106,-3.119,-3.119,-3.119,-3.119,-3.119,-3.074,-3.0293,-2.9848,-2.954,-2.9496,-2.9629,-2.9451,-2.9496,-2.9585,-2.895,-2.8654,-2.8463,-2.8174,-2.7944,-2.786,0.0,0.0,0.0,0.0,0.0,0.0,0.0,0.0,0.0,0.0,0.0,0.0,-2.3628,-2.3692,-2.3855,-2.4151,-2.419,0.0,0.0,0.0,0.0,-2.419,-2.419,0.0,-2.419,-2.419,-2.419,-2.419,-2.441,-2.4512,-2.4528,-2.4845,-2.503,-2.5106,-2.6192,-2.8025,-3.0294,-2.9506,-2.9688,-3.0498,-3.0561,-3.0624,-3.0693,-3.0836,-3.0898,-3.0898,0.0,0.0,0.0,-3.0898,0.0,0.0,0.0,0.0,-3.0898,0.0,0.0,0.0,0.0,0.0,0.0,0.0,0.0,0.0,0.0,0.0,0.0,0.0,0.0,0.0,0.0,0.0,0.0,0.0,0.0,0.0,0.0,0.0,0.0,0.0,0.0,0.0,0.0,0.0,0.0,0.0,0.0,-2.9059,-2.9093,-2.9093,-2.9093,-2.9093,-2.9786,-3.0176,-3.0176,-3.0852,-3.119,-3.119,-3.119,-3.119,-3.119,-3.1151,-3.1151,-3.1055,-2.9892,-2.9717,-3.0208,-2.9629,-2.9717,-3.0208,-2.9585,-2.8996,-2.8559,-2.9088,-2.895,-2.8559,0.0,0.0,0.0,0.0,0.0,0.0,0.0,0.0,0.0,0.0,0.0,0.0,0.0,-2.5316,-2.5528,-2.5423,-2.5609,0.0,0.0,0.0,0.0,-2.5931,-2.5931,-2.5931,-2.5931,-2.5931,-2.5634,-2.498,-2.504,-2.4947,-2.47,-2.4814,-2.5285,-2.6066,-2.7003,-2.7948,-2.8852,-2.9621,-3.0136,-3.0451,-3.0567,-3.0603,-3.0657,-3.0835,0.0,0.0,0.0,0.0,0.0,0.0,0.0,0.0,0.0,-3.0898,-3.0898,-3.0898,-3.0878,0.0,0.0,0.0,0.0,0.0,0.0,0.0,0.0,0.0,0.0,0.0,0.0,0.0,0.0,0.0,0.0,0.0,0.0,0.0,0.0,0.0,0.0,0.0,0.0,0.0,0.0,0.0,0.0,0.0,0.0,0.0,-2.8994,-2.9011,-2.9011,-2.9011,-2.9245,-2.9381,-2.9381,-2.9651,-3.0023,-3.0497,-3.0497,-3.0734,-3.119,-3.119,-3.119,-3.119,-3.074,-3.0699,-3.0878,-3.0658,-3.0699,-3.0838,-3.0208,-2.9865,-2.9629,-2.9451,-2.9271,-2.9088,0.0,0.0,0.0,0.0,0.0,0.0,0.0,0.0,0.0,-2.6149,0.0,0.0,0.0,0.0,-2.649,-2.6277,-2.6469,-2.6612,-2.6612,-2.6612,-2.6659,-2.6803,-2.6803,-2.6803,-2.6803,-2.6879,-2.6563,-2.5909,-2.5987,-2.5757,-2.52,-2.5272,-2.5723,-2.6538,-2.7484,-2.8044,-2.8352,-2.9198,0.0,-3.0441,0.0,0.0,-3.0652,0.0,0.0,0.0,0.0,0.0,0.0,0.0,0.0,0.0,0.0,-3.0898,-3.0898,-3.0898,-3.0898,0.0,-3.0632,0.0,0.0,0.0,0.0,0.0,0.0,0.0,0.0,0.0,0.0,0.0,0.0,0.0,0.0,0.0,0.0,0.0,0.0,0.0,0.0,0.0,0.0,0.0,0.0,0.0,0.0,0.0,0.0,0.0,-2.8408,-2.8562,-2.8682,-2.8817,-2.8657,-2.8721,-2.9011,-2.9011,-2.9245,-2.9736,-2.9736,-3.0125,-3.0835,-3.0835,-3.097,-3.119,-3.119,-3.119,-3.119,-3.119,-3.119,-3.1151,-3.0757,-3.0477,-3.0293,-3.0081,-2.9892,-2.9717,0.0,0.0,0.0,0.0,0.0,0.0,0.0,0.0,-2.6152,-2.6152,0.0,0.0,0.0,0.0,0.0,-2.6667,-2.6667,-2.6667,-2.6667,-2.6667,-2.6667,-2.6667,0.0,0.0,-2.6667,-2.6877,-2.6953,-2.6935,-2.7196,-2.6877,-2.6046,-2.623,-2.6327,-2.6397,-2.7412,-2.8313,-2.9044,0.0,-2.8955,-3.0507,0.0,-3.0648,-3.0716,0.0,0.0,0.0,-3.0898,-3.0898,0.0,0.0,0.0,0.0,0.0,-3.0898,-3.0898,-3.0898,-3.0898,0.0,0.0,0.0,0.0,0.0,0.0,0.0,0.0,0.0,0.0,0.0,0.0,0.0,0.0,0.0,0.0,0.0,0.0,0.0,0.0,0.0,0.0,0.0,0.0,0.0,0.0,0.0,0.0,0.0,0.0,-2.7754,-2.7317,-2.7678,-2.8029,-2.8377,-2.8015,-2.8146,-2.8943,-2.8943,-2.8924,-2.8941,-2.8941,-2.9347,-3.0074,-3.0074,-3.048,-3.1157,-3.1157,-3.1173,-3.119,-3.119,-3.119,-3.119,-3.119,-3.0838,-3.0393,-3.0975,-3.0838,-3.0435,0.0,0.0,0.0,0.0,0.0,0.0,-2.6824,-2.7159,-2.7486,0.0,0.0,0.0,-2.8292,-2.8333,-2.8333,-2.8333,-2.8333,-2.8333,-2.8333,-2.8333,-2.8426,-2.8621,-2.8621,-2.8621,-2.8621,-2.8683,-2.8388,-2.7774,-2.7848,-2.7627,-2.7138,-2.6568,-2.6713,-2.7432,-2.7099,-2.7755,-2.9121,-2.9544,0.0,-3.043,-3.054,-3.0617,0.0,0.0,0.0,0.0,0.0,-3.0898,0.0,0.0,-3.0898,-3.0898,0.0,0.0,-3.0898,-3.0898,-3.0898,0.0,-3.0898,0.0,0.0,0.0,0.0,0.0,0.0,0.0,0.0,0.0,0.0,0.0,0.0,0.0,0.0,0.0,0.0,0.0,0.0,0.0,0.0,0.0,0.0,0.0,0.0,0.0,0.0,0.0,-2.8264,-2.8102,-2.7736,-2.784,-2.7929,-2.8041,-2.7646,-2.7545,-2.7751,-2.7487,-2.7604,-2.8146,-2.8146,-2.8552,-2.9296,-2.9296,-2.9702,-3.0412,-3.0412,-3.0717,-3.119,-3.119,-3.119,-3.119,-3.119,-3.1112,-3.0975,-3.1151,-3.1095,-3.0975,0.0,0.0,0.0,0.0,0.0,-2.7409,-2.7718,-2.7946,-2.8237,0.0,0.0,0.0,-2.8975,-2.8994,-2.8994,-2.8994,-2.8994,-2.8994,-2.8994,-2.8994,-2.9112,-2.9392,-2.9412,-2.9412,-2.9412,-2.9474,-2.9231,-2.863,-2.8819,-2.8626,-2.8082,-2.7682,-2.7792,-2.8371,-2.7871,-2.839,-2.9679,0.0,0.0,0.0,-3.0552,0.0,0.0,-3.0813,-3.0898,0.0,0.0,0.0,-3.0898,-3.0898,-3.0898,0.0,0.0,0.0,0.0,0.0,0.0,0.0,0.0,0.0,0.0,0.0,0.0,0.0,0.0,-3.0606,0.0,0.0,0.0,0.0,0.0,0.0,0.0,0.0,0.0,0.0,0.0,0.0,0.0,0.0,0.0,0.0,0.0,0.0,0.0,-2.8658,-2.8658,-2.8583,-2.8378,-2.8065,-2.7964,-2.8102,-2.7736,-2.753,-2.753,-2.7334,-2.7434,-2.7851,-2.7851,-2.8166,-2.8767,-2.8939,-2.923,-2.9651,-3.0108,-3.0445,-3.0768,-3.1072,-3.119,-3.119,-3.119,-3.119,-3.119,-3.119,-3.119,-3.119,0.0,0.0,-2.5839,-2.6195,-2.6822,-2.7512,-2.8192,-2.8316,-2.8489,0.0,-2.8952,-2.8994,-2.8994,-2.8994,-2.8994,-2.8994,-2.8994,-2.8994,-2.8994,-2.8994,-2.9112,-2.9351,-2.9392,-2.9412,-2.9412,-2.9607,-2.9607,-2.9474,-2.9829,-2.9651,-2.8973,-2.9063,-2.914,-2.9236,-2.914,0.0,0.0,0.0,0.0,-3.0414,-3.0552,-3.0606,0.0,0.0,-3.0898,0.0,-3.0898,-3.0898,-3.0898,-3.0898,-3.0898,0.0,0.0,0.0,0.0,0.0,-3.0898,0.0,0.0,0.0,0.0,0.0,0.0,0.0,-3.0676,-3.0628,0.0,0.0,0.0,0.0,0.0,0.0,0.0,0.0,0.0,0.0,0.0,0.0,0.0,0.0,0.0,0.0,0.0,-2.9017,-2.8994,-2.8994,-2.8994,-2.8994,-2.8994,-2.8378,-2.8174,-2.8446,-2.8129,-2.7954,-2.7954,-2.7926,-2.7897,-2.7897,-2.7897,-2.8047,-2.8357,-2.8697,-2.8885,-2.8982,-2.9989,-3.0314,-3.0217,-3.0938,-3.1223,-3.119,-3.119,-3.119,-3.119,-3.119,-3.119,-3.119,0.0,0.0,-2.6505,-2.6604,-2.6997,-2.7348,-2.7482,-2.7794,-2.8129,-2.8471,-2.8797,-2.8994,-2.8994,-2.8994,-2.8994,-2.8994,-2.8994,-2.8994,-2.8994,-2.8994,-2.9021,-2.9067,-2.9289,-2.9412,-2.9412,-2.9607,-2.9746,-2.9893,-2.9969,-3.0027,-3.0074,-2.9417,-2.9467,-3.0121,-2.941,-2.9583,0.0,0.0,0.0,-3.0414,-3.0552,0.0,-3.0623,-3.0813,-3.0898,-3.0898,-3.0898,-3.0898,-3.0898,0.0,-3.0898,-3.0898,0.0,0.0,0.0,0.0,0.0,0.0,0.0,0.0,0.0,0.0,0.0,0.0,-3.0856,-3.0835,0.0,0.0,0.0,0.0,0.0,0.0,0.0,0.0,0.0,0.0,0.0,0.0,0.0,0.0,0.0,0.0,0.0,-2.9134,-2.8994,-2.8994,-2.8994,-2.8994,-2.8994,-2.8858,-2.8815,-2.8863,-2.8515,-2.8298,-2.8298,-2.802,-2.7897,-2.7897,-2.7897,-2.794,-2.7994,-2.8081,-2.8237,-2.8558,-2.9082,-2.9819,-3.0629,-3.1079,-3.127,-3.119,-3.119,-3.119,-3.119,-3.119,-3.119,-3.119,0.0,-2.6691,-2.6741,-2.6954,-2.7178,-2.7439,-2.7805,-2.8002,-2.829,-2.8658,-2.8863,-2.8994,-2.8994,-2.8994,-2.8994,-2.8994,-2.8994,-2.8994,-2.8994,-2.8994,-2.9044,-2.9181,-2.933,-2.9412,-2.9412,-2.9494,-2.9607,-2.9696,-2.9796,-2.9973,-3.0209,-3.0336,-3.016,-2.9794,-3.0621,-3.0775,0.0,0.0,-3.166,-3.1588,-3.0882,0.0,-3.0623,-3.0813,-3.0898,-3.0898,-3.0898,-3.0898,-3.0898,-3.0898,-3.0898,0.0,0.0,-3.0898,-3.0898,0.0,-3.0898,-3.0898,0.0,0.0,0.0,-3.0898,0.0,0.0,0.0,-3.0793,-3.0769,0.0,0.0,0.0,0.0,0.0,0.0,0.0,0.0,0.0,0.0,0.0,0.0,0.0,0.0,0.0,0.0,-2.9332,-2.9156,-2.9017,-2.8994,-2.8994,-2.8994,-2.8994,-2.8994,-2.8994,-2.8797,-2.8682,-2.8682,-2.8533,-2.8456,-2.8456,-2.8456,-2.8334,-2.8156,-2.836,-2.8334,-2.8202,-2.8958,-2.9503,-2.9919,-3.0657,-3.108,-3.1287,-3.1704,-3.1714,-3.1507,-3.1542,-3.1406,-3.119,-2.6691,0.0,-2.6808,-2.7115,-2.7178,-2.7391,-2.8084,-2.8192,-2.8368,-2.8815,-2.8952,-2.8994,-2.8994,-2.8994,-2.8994,-2.8994,-2.8994,-2.8994,-2.8994,-2.8994,-2.9089,-2.931,-2.9372,-2.9487,-2.9636,-2.9676,-2.9792,-3.0001,-3.015,-3.0354,-3.0586,-3.1501,-3.1179,-2.991,-3.1987,-3.216,0.0,0.0,0.0,-3.2781,0.0,-3.1061,-3.106,-3.1097,-3.1111,-3.1092,-3.0957,-3.0879,-3.0878,-3.0898,0.0,-3.0878,-3.0898,-3.0879,0.0,0.0,0.0,0.0,0.0,0.0,0.0,0.0,0.0,-3.084,0.0,0.0,0.0,-3.0676,0.0,0.0,0.0,0.0,0.0,0.0,0.0,0.0,0.0,0.0,0.0,0.0,0.0,0.0,0.0,-2.957,-2.9353,-2.9089,-2.9067,-2.9044,-2.9017,-2.8994,-2.8994,-2.8994,-2.8994,-2.8994,-2.8994,-2.8994,-2.8994,-2.8994,-2.8994,-2.8839,-2.854,-2.8839,-2.8626,-2.8055,-2.9044,-2.935,-2.9195,-3.0296,-3.1062,-3.1609,-3.2133,-3.2196,-3.1933,-3.2003,-3.1785,-3.1466,-2.6691,-2.6691,0.0,-2.6758,-2.6791,-2.6939,-2.7348,-2.7439,-2.7689,-2.8394,-2.8773,-2.8994,-2.8994,-2.8994,0.0,0.0,0.0,0.0,-2.8994,0.0,-2.9017,-2.9044,-2.9267,-2.9727,-3.0435,-3.0639,-3.1183,-3.2164,-3.2162,-3.2325,-3.2577,-3.2705,-3.266,-3.2487,-3.2776,0.0,0.0,0.0,-3.2891,0.0,-3.2773,-3.2725,0.0,-3.2094,-3.1884,-3.1789,-3.1131,-3.0817,-3.0745,0.0,-3.0816,-3.0745,0.0,-3.0816,0.0,0.0,0.0,0.0,0.0,0.0,0.0,0.0,-3.0721,0.0,0.0,0.0,-3.0878,-3.0878,0.0,0.0,0.0,0.0,0.0,0.0,0.0,0.0,0.0,0.0,0.0,0.0,0.0,0.0,0.0,0.0,-2.9589,-2.9372,-2.9351,-2.9246,-2.9017,-2.8994,-2.8994,-2.8994,-2.8994,-2.8994,-2.8994,-2.8994,-2.8994,-2.8994,-2.8994,-2.8994,-2.8929,-2.8994,-2.8749,-2.8368,-2.8858,-2.9253,-2.962,-3.081,-3.1762,-3.2411,-3.2015,-3.2092,-3.2417,-3.2417,-3.2384,-3.235,-2.6691,-2.6691,0.0,-2.7004,-2.7241,-2.753,-2.7872,-2.8156,-2.8412,-2.8725,-2.8905,-2.8994,0.0,0.0,0.0,0.0,0.0,-2.9714,0.0,0.0,-2.9973,-3.0598,0.0,0.0,-3.1297,-3.1524,-3.1863,-3.233,-3.2466,-3.2675,-3.291,-3.341,-3.3141,-3.2256,-3.3218,0.0,-3.2929,0.0,0.0,0.0,0.0,0.0,0.0,-3.314,-3.2697,-3.2586,-3.1761,-3.1445,-3.133,0.0,-3.0689,0.0,0.0,0.0,0.0,0.0,0.0,0.0,0.0,0.0,0.0,0.0,0.0,0.0,0.0,0.0,-3.0814,0.0,0.0,0.0,0.0,0.0,0.0,0.0,0.0,0.0,0.0,0.0,0.0,0.0,0.0,0.0,0.0,0.0,0.0,0.0,0.0,-2.9474,-2.9246,-2.9225,-2.9156,-2.9017,-2.8994,-2.8994,-2.8994,-2.8994,-2.8994,-2.8994,-2.8994,-2.8994,-2.8994,-2.8994,-2.8905,-2.8749,-2.8929,-2.9088,-2.935,-3.0555,-3.1407,-3.1931,-3.245,-3.2745,-3.2921,-3.2921,-3.2745,-3.2484,-2.6996,0.0,0.0,0.0,0.0,-2.8315,-2.8972,-2.9405,-2.9659,-2.9659,0.0,0.0,-2.9659,-3.0173,0.0,0.0,0.0,-3.0522,0.0,0.0,-3.088,-3.1648,-3.1778,0.0,0.0,0.0,-3.2675,-3.2995,-3.3189,-3.3398,-3.3622,-3.4257,-3.391,-3.2776,0.0,-3.3968,-3.3641,0.0,0.0,-3.5493,-3.5493,-3.5493,-3.5361,-3.4013,-3.3351,-3.3068,-3.2474,-3.2234,-3.2116,-3.1508,-3.1132,0.0,-3.1008,0.0,0.0,0.0,0.0,0.0,-3.0559,0.0,0.0,0.0,0.0,0.0,0.0,0.0,0.0,0.0,0.0,0.0,0.0,0.0,0.0,0.0,0.0,0.0,0.0,0.0,0.0,0.0,0.0,0.0,0.0,0.0,0.0,-2.9796,-2.978,-2.9696,-2.9494,-2.9474,-2.9373,-2.9112,-2.9112,-2.9067,-2.8994,-2.8994,-2.8994,-2.8994,-2.8994,-2.8994,-2.8994,-2.8994,-2.8994,-2.8994,-2.8994,-2.8994,-2.908,-3.042,-3.1154,-3.1524,-3.2857,-3.3361,-3.3361,-3.3361,-3.3136,-3.2872,-2.7755,-2.7199,0.0,0.0,0.0,0.0,0.0,0.0,0.0,0.0,0.0,0.0,0.0,0.0,0.0,0.0,0.0,-3.1347,-3.1347,0.0,-3.1391,0.0,0.0,-3.2154,0.0,0.0,0.0,-3.5011,-3.5028,-3.5162,-3.543,-3.5449,-3.543,-3.5353,-3.4545,-3.4641,-3.5372,-3.4545,-3.4699,-3.5493,-3.5493,-3.5493,-3.5405,0.0,-3.3732,-3.3016,-3.3126,0.0,0.0,-3.3087,-3.2501,0.0,0.0,0.0,0.0,0.0,0.0,0.0,0.0,0.0,0.0,-3.0491,0.0,0.0,0.0,0.0,-3.0606,0.0,0.0,0.0,0.0,0.0,-3.0898,-3.0898,0.0,0.0,0.0,0.0,0.0,0.0,0.0,0.0,0.0,0.0,0.0,-3.0028,-2.9999,-2.9908,-2.9696,-2.9696,-2.9607,-2.9392,-2.9392,-2.9267,-2.9017,-2.8994,-2.8994,-2.8994,-2.8994,-2.8994,-2.8994,-2.8994,-2.8994,-2.8994,-2.8994,-2.8994,-2.9104,-3.0723,-3.1384,-3.1549,-3.3164,-3.3762,-3.3762,-3.3762,-3.3762,-3.3762,0.0,0.0,0.0,0.0,0.0,0.0,0.0,-3.0939,0.0,0.0,0.0,0.0,0.0,0.0,-3.1971,0.0,0.0,-3.2192,-3.2192,-3.2192,0.0,0.0,0.0,-3.351,0.0,0.0,0.0,0.0,0.0,-3.5417,-3.5493,-3.5493,-3.5493,-3.5468,0.0,-3.468,0.0,0.0,0.0,0.0,0.0,-3.5493,-3.5468,0.0,0.0,-3.4583,-3.4044,-3.384,0.0,-3.3175,-3.2797,-3.2458,-3.1988,-3.1594,-3.1193,-3.0665,-3.0482,0.0,0.0,0.0,-3.0421,-3.0428,0.0,0.0,0.0,0.0,0.0,0.0,0.0,0.0,0.0,0.0,-3.0769,-3.0769,-3.0837,-3.0898,0.0,0.0,0.0,0.0,0.0,0.0,0.0,0.0,0.0,-3.0334,-3.029,-3.0169,-2.9908,-2.9908,-2.9796,-2.9607,-2.9607,-2.9533,-2.9456,-2.9456,-2.9456,-2.9456,-2.9456,-2.9377,-2.9267,-2.9267,-2.9178,-2.8994,-2.8994,-2.8994,-2.9104,-3.0742,-3.1384,-3.1549,-3.3164,-3.3807,-3.3807,-3.3807,-3.3807,-3.3807,-2.9381,0.0,0.0,0.0,0.0,0.0,0.0,0.0,0.0,0.0,-3.2247,0.0,-3.2247,0.0,-3.2816,0.0,-3.2724,-3.3036,-3.3036,-3.3036,0.0,-3.4025,-3.4147,0.0,0.0,0.0,0.0,0.0,0.0,-3.5254,-3.5369,-3.5369,-3.5417,-3.5468,0.0,0.0,0.0,0.0,-3.4699,0.0,0.0,-3.5493,0.0,0.0,-3.5493,-3.543,0.0,-3.4674,-3.4578,-3.4044,-3.3634,-3.3282,-3.2797,-3.2204,-3.1607,-3.1079,-3.067,-3.0398,-3.0398,-3.0398,0.0,-3.0398,-3.0398,0.0,-3.0452,0.0,0.0,0.0,0.0,0.0,0.0,0.0,-3.065,-3.065,-3.0762,-3.0857,0.0,-3.0898,0.0,0.0,0.0,0.0,0.0,0.0,-3.0552,-3.0463,-3.0451,-3.0344,0.0,0.0,-3.0032,-2.9813,-2.9796,-2.9763,-2.9696,-2.9696,-2.9696,-2.9696,-2.9696,-2.9625,-2.9513,-2.9513,-2.9415,-2.923,-2.9181,-2.9156,-2.9263,-3.0772,-3.1384,-3.1549,-3.3164,-3.3807,-3.3807,-3.3807,-3.3807,-3.3807,0.0,0.0,0.0,0.0,-3.2101,0.0,0.0,0.0,-3.378,0.0,-3.3807,-3.3807,-3.3807,-3.3807,-3.3807,-3.3807,-3.3807,0.0,-3.3807,-3.3807,0.0,0.0,-3.4043,-3.4334,-3.4674,0.0,0.0,0.0,0.0,0.0,-3.5088,-3.5088,-3.5223,-3.5455,-3.4609,0.0,-3.5449,-3.4622,-3.4737,-3.5493,-3.5493,-3.5493,-3.5493,-3.5493,-3.5493,-3.5501,-3.5566,-3.5538,-3.5501,-3.5566,-3.501,-3.4257,-3.4199,-3.3103,-3.1814,-3.1718,-3.1121,-3.0436,-3.0398,-3.0398,-3.0398,-3.0398,0.0,0.0,0.0,0.0,-3.0398,0.0,0.0,0.0,0.0,0.0,0.0,-3.06,-3.0657,-3.0743,-3.0878,0.0,0.0,0.0,0.0,0.0,0.0,-3.0669,-3.0623,-3.0417,-3.0472,-3.0463,0.0,0.0,-3.0279,-3.0028,-3.0013,-2.9924,-2.9748,-2.9731,-2.9731,-2.9731,-2.9731,-2.9731,-2.9695,-2.9695,-2.9713,-2.9696,-2.9494,-2.9414,-2.9504,-3.0867,-3.1409,-3.1574,-3.3164,-3.3807,-3.3807,-3.3807,-3.3807,-3.3807,-3.092,-3.1593,-3.2263,0.0,-3.2325,-3.2433,0.0,0.0,0.0,0.0,-3.3807,-3.3807,-3.3807,-3.3807,-3.3807,-3.3807,-3.3807,0.0,0.0,0.0,0.0,-3.3807,-3.3868,-3.4037,-3.4334,-3.4334,0.0,-3.4793,0.0,0.0,-3.4793,-3.4793,-3.4944,-3.5187,0.0,0.0,-3.5488,-3.5257,-3.5295,-3.5493,-3.5493,-3.5493,0.0,0.0,-3.5493,-3.5507,-3.5509,-3.5495,-3.5507,-3.5522,-3.5361,-3.5045,-3.4391,-3.3891,-3.3314,-3.2064,-3.1545,-3.1218,-3.0571,-3.0398,-3.0398,-3.0398,-3.0398,-3.0398,0.0,0.0,0.0,0.0,0.0,0.0,0.0,0.0,0.0,-3.0521,-3.0581,-3.0657,0.0,0.0,0.0,0.0,0.0,0.0,0.0,-3.0696,-3.0611,-3.054,-3.0532,-3.0463,-3.039,0.0,0.0,-3.0311,-3.0299,-3.0267,-3.0215,-3.0215,-3.0215,-3.0215,-3.0215,-3.0128,-2.9924,-2.9924,-2.9845,-2.9696,-2.9662,-2.9607,-2.972,-3.1105,-3.17,-3.1844,-3.3269,-3.3807,-3.3807,-3.3807,-3.3807,-3.3807,-3.119,0.0,0.0,-3.2777,0.0,0.0,-3.3314,0.0,0.0,-3.4257,-3.4027,0.0,-3.4302,-3.4009,-3.3807,-3.3807,-3.3807,0.0,0.0,0.0,0.0,-3.3807,-3.3807,-3.3928,-3.42,-3.4093,0.0,-3.4694,0.0,0.0,-3.487,-3.4754,-3.4908,-3.5254,0.0,-3.5369,0.0,-3.5493,-3.5493,-3.5493,-3.5493,0.0,0.0,-3.5493,-3.5493,-3.5493,-3.5493,-3.5493,-3.5488,-3.5528,-3.5522,-3.5424,-3.4962,-3.4532,-3.402,-3.3091,-3.2297,-3.1583,-3.1102,-3.0698,-3.0398,-3.0398,-3.0398,-3.0398,-3.0398,-3.0398,-3.0398,0.0,0.0,0.0,0.0,0.0,0.0,0.0,0.0,0.0,0.0,0.0,0.0,0.0,0.0,0.0,0.0,-3.0407,-3.0217,-3.0567,-3.0561,-3.0505,0.0,0.0,0.0,-3.041,-3.0428,-3.0439,-3.0398,-3.0428,-3.0428,-3.0398,-3.0398,-3.0311,-3.0163,-3.0163,-3.0109,-3.0007,-2.9877,-3.0037,-3.0492,-3.1543,-3.2194,-3.2604,-3.3734,-3.4111,-3.3986,-3.4136,-3.403,-3.3815,0.0,0.0,0.0,0.0,0.0,0.0,0.0,-3.3862,0.0,-3.488,0.0,-3.4284,-3.5064,-3.4559,-3.4137,-3.4137,0.0,-3.4082,-3.3972,-3.3972,-3.3917,-3.3807,-3.3807,-3.3928,-3.42,-3.3954,0.0,0.0,0.0,0.0,-3.4981,-3.4754,-3.4944,0.0,0.0,0.0,0.0,-3.5493,-3.5493,0.0,-3.5493,-3.5493,-3.5493,-3.5493,-3.5493,-3.5493,-3.5493,-3.5493,-3.5501,-3.5574,-3.5546,-3.5515,-3.5574,-3.5037,-3.4372,-3.429,-3.3211,-3.1987,-3.1756,-3.116,-3.0533,-3.0417,-3.0398,-3.0398,-3.0398,-3.0398,-3.0398,-3.0398,-3.0398,-3.0398,0.0,0.0,0.0,0.0,0.0,0.0,0.0,0.0,0.0,0.0,0.0,0.0,0.0,0.0,-2.9747,-3.0539,-3.0617,-3.0581,0.0,0.0,0.0,-3.041,-3.0452,0.0,-3.0414,0.0,-3.0462,-3.0414,-3.039,-3.0398,-3.0398,-3.0398,-3.0398,-3.0398,-3.015,-3.0538,-3.1397,-3.1989,-3.277,-3.3658,-3.4392,-3.4529,-3.4311,-3.4593,-3.4371,-3.3954,0.0,0.0,0.0,0.0,0.0,-3.422,-3.4714,-3.4229,-3.41,-3.488,-3.4862,-3.5128,-3.5973,-3.5954,-3.5862,-3.5862,-3.5862,0.0,0.0,0.0,0.0,-3.3825,-3.3807,-3.3928,-3.42,-3.3954,-3.3961,0.0,0.0,0.0,-3.436,-3.4292,0.0,0.0,0.0,0.0,-3.5493,-3.5493,0.0,-3.5493,-3.5493,-3.5493,-3.5493,-3.5493,-3.5493,-3.5493,-3.5493,-3.5493,-3.5507,-3.5515,-3.5501,-3.5507,-3.5515,-3.5386,-3.5122,-3.443,-3.3994,-3.3449,-3.2083,-3.1583,-3.1295,-3.0571,-3.0398,-3.0398,-3.0398,-3.0398,-3.0398,-3.0398,-3.0398,-3.0398,-3.0398,0.0,0.0,0.0,0.0,0.0,0.0,0.0,0.0,0.0,0.0,0.0,0.0,0.0,0.0,0.0,0.0,0.0,0.0,0.0,0.0,0.0,-3.0414,0.0,0.0,0.0,-3.0441,-3.0482,-3.0428,-3.0398,-3.0398,-3.0398,-3.0398,-3.0398,-3.0355,-3.0823,-3.1674,-3.2222,-3.3239,-3.4486,-3.4637,-3.4674,-3.4632,-3.4674,-3.4632,-3.4548,0.0,0.0,0.0,0.0,0.0,0.0,0.0,-3.5349,0.0,-3.6193,-3.5936,-3.5991,-3.6817,-3.6541,-3.6303,-3.6303,-3.6303,-3.6119,-3.5716,-3.5679,-3.5312,-3.4468,-3.4431,0.0,-3.3986,-3.3868,-3.391,-3.42,0.0,0.0,-3.4464,0.0,0.0,-3.5105,0.0,-3.5383,0.0,0.0,0.0,-3.5493,-3.5493,-3.5493,-3.5493,-3.5493,-3.5493,-3.5493,-3.5493,-3.5493,-3.5493,-3.5493,-3.5493,-3.552,-3.5534,-3.5534,-3.5424,-3.5032,-3.4583,-3.393,-3.266,-3.2025,-3.1487,-3.0621,-3.0398,-3.0398,-3.0398,-3.0398,-3.0398,-3.0398,-3.0398,-3.0398,-3.0398,-3.0398,0.0,0.0,0.0,0.0,0.0,0.0,0.0,0.0,0.0,0.0,0.0,0.0,0.0,0.0,0.0,0.0,0.0,0.0,0.0,0.0,0.0,0.0,0.0,0.0,0.0,-3.054,-3.0491,-3.0442,-3.0442,-3.0425,-3.0398,-3.0417,-3.0891,-3.1545,-3.2398,-3.3585,-3.4477,-3.5105,-3.5105,-3.5016,-3.4926,-3.5051,-3.5035,-3.4908,0.0,-3.317,0.0,0.0,-3.5558,0.0,-3.6483,-3.6835,-3.7165,-3.7441,-3.6945,-3.6853,-3.7661,-3.7184,-3.6798,-3.6798,-3.6798,-3.6743,-3.656,-3.656,-3.6174,-3.5302,-3.5082,-3.4697,-3.4082,-3.3899,-3.3902,0.0,0.0,0.0,0.0,0.0,0.0,0.0,0.0,0.0,0.0,0.0,-3.5493,-3.5493,-3.5493,-3.5493,-3.5493,-3.5493,-3.5493,-3.5493,-3.5493,-3.5493,-3.5493,-3.5493,-3.5493,-3.5501,-3.5562,-3.5534,-3.5515,-3.5562,-3.5051,-3.4295,-3.341,-3.2583,-3.1756,-3.0891,-3.0533,-3.0398,-3.0398,-3.0398,-3.0398,-3.0398,-3.0398,-3.0398,-3.0398,-3.0398,0.0,0.0,0.0,0.0,0.0,0.0,0.0,0.0,0.0,0.0,0.0,0.0,0.0,0.0,0.0,0.0,0.0,0.0,0.0,0.0,0.0,-3.0665,-3.0628,0.0,-3.0665,-3.0628,-3.0547,-3.0505,-3.0498,-3.0451,-3.051,-3.0717,-3.141,-3.2256,-3.3295,-3.4872,-3.5493,-3.5493,-3.5493,-3.5369,-3.5207,-3.5432,-3.5369,-3.519,0.0,0.0,0.0,0.0,0.0,0.0,0.0,-3.8615,-3.9056,-3.7661,-3.7422,-3.7679,-3.8505,-3.8524,-3.8487,-3.8487,-3.8487,-3.8175,-3.7452,-3.7397,-3.7019,-3.6211,-3.544,-3.4954,-3.488,-3.4174,-3.3815,0.0,0.0,0.0,0.0,0.0,0.0,0.0,0.0,0.0,0.0,-3.5493,-3.5493,-3.5493,-3.5493,-3.5493,-3.5493,-3.5493,-3.5493,-3.5493,-3.5493,-3.5493,-3.5493,-3.5493,-3.5493,-3.5507,-3.5501,-3.552,-3.5507,-3.5501,-3.5463,-3.5199,-3.4314,-3.3449,-3.2583,-3.1775,-3.0987,-3.0398,-3.0398,-3.0398,-3.0398,-3.0398,-3.0398,-3.0398,-3.0398,-3.0398,-3.0398,0.0,0.0,0.0,0.0,0.0,0.0,0.0,0.0,0.0,0.0,0.0,0.0,0.0,0.0,0.0,0.0,0.0,0.0,-3.0606,0.0,-3.0643,-3.069,-3.0643,-3.0643,-3.0687,-3.0614,-3.0554,-3.0498,-3.049,-3.0877,-3.1583,-3.166,-3.2602,-3.4141,-3.5122,-3.5493,-3.5493,-3.5493,-3.5493,-3.5479,-3.5493,-3.5493,-3.546,0.0,0.0,0.0,0.0,0.0,0.0,0.0,-4.0212,-4.0396,-3.9735,-3.9662,-3.979,-4.012,-4.0157,-4.0157,-4.0157,-3.9698,-3.9276,-3.8946,-3.8487,-3.7845,-3.7055,-3.6688,-3.6266,-3.5789,-3.4963,-3.4523,0.0,0.0,0.0,0.0,0.0,0.0,0.0,0.0,-3.5493,-3.5493,-3.5493,-3.5493,-3.5493,-3.5493,-3.5493,-3.5493,-3.5493,-3.5493,-3.5493,-3.5493,-3.5493,-3.5493,-3.5493,-3.5493,-3.5493,-3.5493,-3.5493,-3.5493,-3.5493,-3.5493,-3.5315,-3.443,-3.3564,-3.2718,-3.191,-3.1044,-3.0398,-3.0398,-3.0398,-3.0398,-3.0398,-3.0398,-3.0398,-3.0398,-3.0398,-3.0398,0.0,0.0,0.0,0.0,0.0,0.0,0.0,0.0,0.0,0.0,0.0,0.0,0.0,0.0,0.0,0.0,0.0,0.0,-3.0782,0.0,-3.0788,-3.0816,-3.0788,-3.0788,-3.0816,-3.071,-3.0657,-3.0628,-3.0581,-3.1269,-3.2519,-3.3032,-3.3901,-3.5007,-3.5372,-3.5493,-3.5493,-3.5493,-3.5493,-3.5493,-3.5493,-3.5493,-3.5493,-3.74,0.0,-3.8762,0.0,-4.0857,-4.0909,-4.1079,-4.1313,-4.146,-4.146,-4.1662,-4.1644,-4.1167,-4.1111,-4.1111,-4.1111,-4.0579,-4.0249,-4.0249,-3.9496,-3.8799,-3.8212,-3.7764,0.0,-3.667,-3.5826,-3.5385,-3.5385,-3.4668,0.0,0.0,0.0,0.0,0.0,-3.5289,-3.5493,-3.5493,-3.5493,-3.5493,-3.5493,-3.5493,-3.5493,-3.5493,-3.5493,-3.5493,-3.5493,-3.5493,-3.5493,-3.5493,-3.5493,-3.5493,-3.5493,-3.5493,-3.5493,-3.5493,-3.5493,-3.5493,-3.5372,-3.4757,-3.3949,-3.3083,-3.2256,-3.141,-3.0717,-3.0456,-3.0398,-3.0398,-3.0398,-3.0398,-3.0398,-3.0398,-3.0398,-3.0398,-3.0398,0.0,0.0,0.0,0.0,0.0,0.0,0.0,-3.0398,-3.0398,0.0,0.0,0.0,0.0,0.0,0.0,0.0,0.0,0.0,0.0,0.0,0.0,-3.0898,-3.0898,-3.0898,-3.0795,-3.0743,-3.0713,-3.1164,-3.2123,-3.3488,-3.435,-3.504,-3.555,-3.555,-3.5546,-3.5515,-3.5515,-3.5528,-3.5493,-3.5493,-3.5493,-3.5493,-3.8572,-3.8703,-3.9028,-4.0129,-4.0312,-4.0473,-4.1027,-4.1772,-4.2286,-4.2286,-4.2983,-4.2873,-4.1277,-4.1111,-4.1111,-4.1111,-4.1111,-4.1093,-4.1093,-4.0322,-3.9863,0.0,0.0,-3.7507,-3.7477,-3.6688,-3.6285,-3.6285,0.0,0.0,-3.5466,0.0,-3.5088,-3.5105,-3.5383,-3.5493,-3.5493,-3.5493,-3.5493,-3.5493,-3.5493,-3.5493,-3.5493,-3.5493,-3.5493,-3.5493,-3.5493,-3.5493,-3.5493,-3.5493,-3.5493,-3.5493,-3.5493,-3.5493,-3.5493,-3.5493,-3.5493,-3.5507,-3.5488,-3.4853,-3.3968,-3.3103,-3.2275,-3.1468,-3.0602,-3.0398,-3.0398,-3.0398,-3.0398,-3.0398,-3.0398,-3.0398,-3.0398,-3.0398,0.0,0.0,0.0,0.0,0.0,0.0,-3.0398,-3.0398,-3.0398,0.0,0.0,0.0,0.0,0.0,0.0,0.0,0.0,-3.0898,-3.0898,0.0,-3.0898,-3.0898,-3.0898,-3.0898,-3.0898,-3.0836,-3.0752,-3.2411,-3.3647,-3.4523,-3.5334,-3.5684,-3.5703,-3.5703,-3.5663,-3.5611,-3.5611,-3.555,-3.5493,-3.5493,-3.5493,-3.5493,-3.9326,-3.9722,-4.0406,-4.1713,-4.1935,-4.2122,-4.264,-4.2947,-4.3112,-4.3112,-4.3332,-4.3296,-4.2782,-4.2745,-4.2745,0.0,-4.2231,-4.1919,0.0,-4.1167,-4.0469,-3.9918,-3.9405,-3.8872,-3.8322,-3.7514,-3.711,-3.711,0.0,0.0,0.0,-3.5593,-3.5458,-3.5105,-3.5383,-3.5493,-3.5493,-3.5493,-3.5383,-3.5239,-3.5432,-3.5383,-3.5258,-3.5432,-3.5493,-3.5493,-3.5493,-3.5493,-3.5493,-3.5493,-3.5493,-3.5493,-3.5493,-3.5493,-3.5493,-3.5493,-3.5493,-3.5493,-3.5493,-3.4853,-3.3987,-3.3122,-3.2295,-3.1468,-3.059,-3.0398,-3.0398,-3.0398,-3.0398,-3.0398,-3.0398,-3.0398,-3.0398,-3.0398,-3.0398,0.0,0.0,0.0,0.0,0.0,0.0,-3.0398,0.0,-3.0398,0.0,0.0,0.0,0.0,0.0,0.0,0.0,0.0,-3.0898,0.0,-3.0898,-3.0898,-3.0898,-3.0898,-3.0898,-3.1191,-3.1775,-3.3467,-3.4348,-3.4627,-3.5466,-3.5772,-3.5703,-3.5703,-3.5689,-3.5679,-3.5679,-3.5621,-3.5574,-3.5574,-3.554,-3.5493,-4.0078,-4.0657,-4.1428,-4.2526,-4.2864,-4.3087,-4.3444,-4.3497,-4.3497,-4.3497,-4.3497,-4.3497,-4.3497,-4.3497,0.0,-4.3497,-4.3039,-4.2745,-4.2745,-4.2011,-4.1332,-4.0818,-4.0212,-3.9662,-3.9166,0.0,0.0,-3.7936,-3.7256,-3.6634,-3.6119,-3.6373,-3.6312,-3.6001,-3.6324,-3.6449,-3.6449,-3.6449,-3.6147,-3.5714,-3.5873,-3.5667,-3.5273,-3.5432,-3.5493,-3.5493,-3.5493,-3.5493,-3.5493,-3.5493,-3.5493,-3.5493,-3.5493,-3.5493,-3.5493,-3.5493,-3.5493,-3.5493,-3.5493,-3.5103,-3.4391,-3.3199,-3.2526,-3.1833,-3.0679,-3.0398,-3.0398,-3.0398,-3.0398,-3.0398,-3.0398,-3.0398,-3.0398,-3.0398,-3.0398,-3.0398,-3.0398,0.0,0.0,0.0,0.0,0.0,0.0,-3.0398,0.0,0.0,0.0,0.0,0.0,0.0,0.0,-3.0782,-3.0813,0.0,-3.0817,-3.0879,-3.0898,-3.0898,-3.123,-3.1992,-3.3164,-3.4219,-3.4861,-3.5162,-3.5708,-3.5893,-3.5806,-3.5806,-3.5792,-3.5791,-3.5791,-3.5716,-3.5648,-3.5648,-3.5611,-3.5566,-4.075,-4.1313,0.0,0.0,-4.3087,0.0,-4.3479,-4.3497,-4.3497,-4.3497,-4.3497,-4.3497,-4.3497,-4.3497,-4.3497,-4.3497,0.0,0.0,0.0,-4.28,-4.2359,-4.2304,-4.0873,-4.0029,-3.9974,-3.9203,-3.8762,-3.8707,-3.8201,-3.7667,-3.7152,-3.7412,-3.7509,-3.7526,-3.7843,-3.7973,-3.8007,-3.8007,-3.7512,-3.6748,-3.6781,-3.6306,-3.5619,-3.5589,-3.557,-3.5556,-3.5512,-3.5493,-3.5493,-3.5493,-3.5493,-3.5493,-3.5493,-3.5493,-3.5493,-3.5493,-3.5493,-3.5493,-3.5493,-3.5493,-3.5103,-3.341,-3.2891,-3.2391,-3.0775,-3.0398,-3.0398,-3.0398,-3.0398,-3.0398,-3.0398,-3.0398,-3.0398,-3.0398,-3.0398,-3.0398,-3.0398,0.0,0.0,0.0,0.0,0.0,0.0,-3.0398,-3.0398,0.0,0.0,0.0,0.0,0.0,-3.0521,-3.06,-3.0665,-3.069,-3.069,-3.0814,-3.0918,-3.0996,-3.1914,-3.3183,-3.4707,-3.4766,-3.5234,-3.5996,-3.5996,-3.5996,-3.5996,-3.5996,-3.5953,-3.5907,-3.5907,-3.5836,-3.5717,-3.5717,-3.571,-3.5689,0.0,0.0,-4.1296,-4.1895,-4.2501,-4.3014,-4.3444,-4.3497,-4.3497,-4.3497,-4.3497,-4.3497,-4.3497,-4.3497,-4.3497,-4.3497,-4.3497,-4.3497,-4.3497,-4.3314,-4.2928,-4.2323,-4.1937,-4.1442,-4.0836,-4.0029,-3.9313,-3.8707,-3.8578,-3.8229,-3.7723,-3.7779,-3.7709,-3.7489,-3.7562,-3.7756,-3.8007,-3.8007,-3.7759,-3.74,-3.7602,-3.7302,-3.6691,-3.6485,-3.6289,-3.6067,-3.5648,-3.5493,-3.5493,-3.5493,-3.5493,-3.5493,-3.5493,-3.5493,-3.5493,-3.5493,-3.5493,-3.5493,-3.5493,-3.5493,-3.5238,-3.416,-3.2929,-3.1718,-3.0629,-3.0398,-3.0398,-3.0398,-3.0398,-3.0398,-3.0398,-3.0398,-3.0398,-3.0398,-3.0398,-3.0398,-3.0398,-3.0398,0.0,0.0,-3.0398,-3.0398,-3.0398,-3.0398,-3.0398,0.0,0.0,0.0,0.0,-3.0417,-3.0472,-3.06,-3.0623,-3.0614,-3.0614,-3.0667,-3.1028,-3.1762,-3.33,-3.4267,-3.4726,-3.5391,-3.5801,-3.5996,-3.5996,-3.5996,-3.5996,-3.5996,-3.5996,-3.5974,-3.5974,-3.5923,-3.5845,-3.5845,-3.5797,-3.5703,-4.007,-4.0528,-4.1087,-4.1707,-4.2302,-4.2902,-4.341,-4.3497,-4.3497,-4.3497,-4.3497,-4.3497,-4.3497,-4.3497,-4.3497,-4.3497,-4.3497,-4.3497,-4.3497,-4.3497,-4.3296,-4.2873,-4.2506,-4.2103,-4.1662,-4.0855,-4.0047,-3.9239,-3.9239,-3.8909,-3.8266,-3.8377,-3.8365,-3.8244,-3.8393,-3.8555,-3.8746,-3.8891,-3.8663,-3.8155,-3.8469,-3.8172,-3.747,-3.7171,-3.6984,-3.6746,-3.6099,-3.5879,-3.5837,-3.558,-3.5493,-3.5493,-3.5493,-3.5493,-3.5493,-3.5493,-3.5493,-3.5493,-3.5493,-3.5493,-3.5199,-3.391,-3.2641,-3.1468,-3.059,-3.0398,-3.0398,-3.0398,-3.0398,-3.0398,-3.0398,-3.0398,-3.0398,-3.0398,-3.0398,-3.0398,-3.0398,-3.0398,0.0,-3.0398,-3.0398,-3.0398,-3.0398,-3.0398,-3.0398,-3.0398,0.0,0.0,-3.0398,-3.0398,-3.0419,-3.0507,-3.0537,-3.0547,-3.0547,-3.097,-3.1849,-3.3156,-3.4106,-3.4768,-3.5188,-3.571,-3.595,-3.597,-3.5995,-3.5996,-3.5996,-3.5996,-3.5996,-3.5996,-3.5996,-3.5974,-3.5947,-3.5947,-3.6152,-3.6423,-4.007,-4.0528,-4.1087,-4.1707,-4.2302,-4.2902,-4.341,-4.3497,-4.3497,-4.3497,-4.3497,-4.3497,-4.3497,-4.3497,-4.3497,-4.3497,-4.3497,-4.3497,-4.3497,-4.3497,-4.3497,-4.3497,-4.2837,-4.2488,-4.2488,-4.1699,-4.0891,-4.0084,-3.9955,-3.9551,-3.8872,-3.8989,-3.9044,-3.9125,-3.9389,-3.9552,-3.9622,-3.9901,-3.9604,-3.8956,-3.9233,-3.8895,-3.8191,-3.7774,-3.7624,-3.7528,-3.6766,-3.6404,-3.623,-3.582,-3.5603,-3.5493,-3.5493,-3.5493,-3.5493,-3.5493,-3.5493,-3.5493,-3.5493,-3.5493,-3.5122,-3.3506,-3.2487,-3.166,-3.0794,-3.0494,-3.0398,-3.0398,-3.0398,-3.0398,-3.0398,-3.0398,-3.0398,-3.0398,-3.0398,-3.0398,-3.0398,0.0,-3.0398,-3.0398,-3.0398,-3.0398,-3.0398,-3.0398,-3.0398,-3.0398,-3.0398,-3.0398,-3.0398,-3.0398,-3.0456,-3.059,-3.0645,-3.0742,-3.0858,-3.1778,-3.2997,-3.4469,-3.4605,-3.5028,-3.571,-3.5812,-3.5873,-3.5873,-3.595,-3.5976,-3.5995,-3.5996,-3.5996,-3.5996,-3.5996,-3.5996,-3.6016,-3.6152,-3.666,-3.7304,-4.007,-4.0528,-4.1087,-4.1707,-4.2302,-4.2902,-4.341,-4.3497,-4.3497,-4.3497,-4.3497,-4.3497,-4.3497,-4.3497,-4.3497,-4.3497,-4.3497,-4.3497,-4.3497,-4.3497,-4.3497,-4.3497,-4.3369,-4.3296,-4.3296,-4.2525,-4.1717,-4.0928,-4.023,-3.9827,-3.9698,-3.9062,-3.8884,-3.908,-3.9133,-3.9339,-3.9599,-3.9645,-3.9592,-3.9479,-3.9523,-3.947,-3.928,-3.8496,-3.8191,-3.8099,-3.7528,-3.6879,-3.6306,-3.6473,-3.6065,-3.5493,-3.5493,-3.5493,-3.5493,-3.5493,-3.5493,-3.5493,-3.5493,-3.5493,-3.5257,-3.4257,-3.3353,-3.2506,-3.1679,-3.0929,-3.0398,-3.0398,-3.0398,-3.0398,-3.0398,-3.0398,-3.0398,-3.0398,-3.0398,-3.0398,-3.0398,0.0,-3.0398,-3.0398,-3.0398,-3.0398,-3.0398,-3.0398,-3.0398,-3.0398,-3.0398,-3.0398,-3.0398,-3.0398,-3.0737,-3.1468,-3.1511,-3.185,-3.2524,-3.3395,-3.4017,-3.4342,-3.5078,-3.5521,-3.5703,-3.5717,-3.5723,-3.5749,-3.5853,-3.5913,-3.5916,-3.5974,-3.5996,-3.5996,-3.5996,-3.5996,-3.6094,-3.6836,-3.7187,-3.7402,-4.007,-4.0286,-4.0672,-4.1223,-4.1793,-4.2422,-4.2976,-4.3321,-4.3497,-4.3497,-4.3497,-4.3497,-4.3497,-4.3497,-4.3497,-4.3497,-4.3497,-4.3497,-4.3497,-4.3497,-4.3497,-4.3497,-4.3497,-4.3497,-4.3497,-4.313,-4.2543,-4.1754,-4.1368,-4.0965,-4.0524,-3.9717,-3.9406,-3.9494,-3.9069,-3.898,-3.9127,-3.9257,-3.9314,-3.9339,-3.9529,-3.9709,-3.9781,-3.9006,-3.8831,-3.8901,-3.8201,-3.7694,-3.7298,-3.6849,-3.6449,-3.6084,-3.5641,-3.5493,-3.5493,-3.5493,-3.5493,-3.5493,-3.5493,-3.5493,-3.5295,-3.441,-3.3545,-3.2699,-3.1891,-3.1025,-3.0398,-3.0398,-3.0398,-3.0398,-3.0398,-3.0398,-3.0398,-3.0398,-3.0398,0.0,0.0,-3.0398,-3.0398,-3.0398,-3.0398,-3.0398,-3.0398,-3.0398,-3.0398,-3.0398,-3.0398,-3.059,-3.1083,-3.1102,-3.1487,-3.2314,-3.2352,-3.2756,-3.3583,-3.3987,-3.4449,-3.4948,-3.5353,-3.5562,-3.56,-3.563,-3.5657,-3.5646,-3.5743,-3.5797,-3.5783,-3.583,-3.5841,-3.588,-3.6431,-3.665,-3.6769,-3.7675,-3.8301,-3.8769,-4.007,-4.007,-4.0286,-4.0827,-4.1402,-4.1979,-4.2616,-4.3178,-4.3497,-4.3497,-4.3497,-4.3497,-4.3497,-4.3497,-4.3497,-4.3497,-4.3497,-4.3497,-4.3497,-4.3497,-4.3497,-4.3497,-4.3497,-4.3497,-4.3497,-4.3497,-4.3185,-4.258,-4.2396,-4.1992,-4.1368,-4.0561,-4.0175,-4.0139,-3.935,-3.8982,-3.8995,-3.8997,-3.9027,-3.9027,-3.9301,-3.9595,-3.9797,-3.9223,-3.9205,-3.9387,-3.8724,-3.8413,-3.8191,-3.7441,-3.6964,-3.6603,-3.5968,-3.5661,-3.5493,-3.5493,-3.5493,-3.5493,-3.5493,-3.5493,-3.5353,-3.4661,-3.3853,-3.2987,-3.2179,-3.1333,-3.0629,-3.0436,-3.0398,-3.0398,-3.0398,-3.0398,-3.0398,-3.0398,0.0,0.0,0.0,-3.0398,-3.0398,-3.0398,-3.0398,-3.0398,-3.0398,-3.0398,-3.0475,-3.0698,-3.0698,-3.1083,-3.1929,-3.1987,-3.2352,-3.3179,-3.3199,-3.3622,-3.4487,-3.4507,-3.4834,-3.5493,-3.5493,-3.5493,-3.5507,-3.5538,-3.5577,-3.5588,-3.5646,-3.5784,-3.5986,-3.6008,-3.6131,-3.6391,-3.7152,-3.7472,-3.7585,-3.8528,-3.9296,-3.9922,-4.007,-4.007,-4.0286,-4.0827,-4.1402,-4.1979,-4.2616,-4.3178,-4.3497,-4.3497,-4.3497,-4.3497,-4.3497,-4.3497,-4.3497,-4.3497,-4.3497,-4.3497,-4.3497,-4.3497,-4.3497,-4.3497,-4.3497,-4.3497,-4.3497,-4.3497,-4.3461,-4.3406,-4.2671,-4.2268,-4.2194,-4.1405,-4.102,-4.0983,-4.0175,-3.9808,-3.9753,-3.9032,-3.8719,-3.8719,-3.875,-3.8923,-3.9152,-3.8844,-3.8913,-3.9133,-3.9077,-3.8733,-3.8339,-3.8556,-3.7778,-3.6699,-3.6642,-3.6103,-3.5493,-3.5493,-3.5493,-3.5493,-3.5493,-3.5493,-3.5488,-3.543,-3.4757,-3.3872,-3.3006,-3.2199,-3.1391,-3.0571,-3.0398,-3.0398,-3.0398,-3.0398,-3.0398,-3.0398,0.0,0.0,-3.0398,-3.0398,-3.0398,-3.0398,-3.0398,-3.0398,-3.0398,-3.0398,-3.0737,-3.1545,-3.1602,-3.1968,-3.2776,-3.2814,-3.3218,-3.4083,-3.4103,-3.4526,-3.5411,-3.5411,-3.5449,-3.5493,-3.5493,-3.5493,-3.5507,-3.552,-3.5501,-3.5515,-3.5577,-3.6066,-3.6813,-3.6876,-3.7381,-3.8113,-3.8179,-3.826,-3.8417,-3.9298,-3.9735,-4.0019,-4.007,-4.007,-4.0171,-4.0368,-4.0891,-4.1313,-4.1534,-4.2404,-4.3014,-4.3014,-4.3286,-4.3497,-4.3497,-4.3497,-4.3497,-4.3497,-4.3497,-4.3497,-4.3497,-4.3497,-4.3497,-4.3497,-4.3497,-4.3497,-4.3497,-4.3497,-4.3497,-4.3497,-4.3185,-4.3039,-4.302,-4.2213,-4.1846,-4.1809,-4.1001,-4.0377,-3.9863,-3.957,-3.9166,-3.8707,-3.8707,-3.8855,-3.9072,-3.8803,-3.8855,-3.9099,-3.9099,-3.8973,-3.8796,-3.88,-3.844,-3.7857,-3.6983,-3.6488,-3.6161,-3.5661,-3.5493,-3.5493,-3.5493,-3.5493,-3.5493,-3.5493,-3.4834,-3.4103,-3.3776,-3.3045,-3.2352,-3.2025,-3.1545,-3.1218,-3.1218,-3.0756,-3.0398,-3.0398,0.0,-3.0398,-3.0398,-3.0398,-3.0398,-3.0398,-3.0891,-3.1218,-3.1218,-3.166,-3.2083,-3.2429,-3.2449,-3.2814,-3.366,-3.4218,-3.4661,-3.5007,-3.5007,-3.518,-3.5507,-3.5493,-3.5493,-3.5493,-3.5493,-3.5493,-3.5526,-3.6026,-3.6238,-3.6276,-3.6845,-3.7276,-3.7578,-3.761,-3.7827,-3.8168,-3.8752,-3.9005,-3.9135,-4.0052,-4.0472,-4.0628,-4.007,-4.007,-4.007,-4.007,-4.0528,-4.0903,-4.0903,-4.175,-4.248,-4.2673,-4.3014,-4.3321,-4.3479,-4.3497,-4.3497,-4.3497,-4.3497,-4.3497,-4.3497,-4.3497,-4.3497,-4.3497,-4.3497,-4.3497,-4.3497,-4.3497,-4.3497,-4.3497,-4.3497,-4.3497,-4.3479,-4.2928,-4.2671,-4.2635,-4.1846,-4.1167,-4.0616,-4.0102,-3.957,-3.9056,-3.8799,-3.8833,-3.8961,-3.8762,-3.8815,-3.8971,-3.8971,-3.9036,-3.9085,-3.892,-3.8857,-3.8613,-3.7661,-3.7064,-3.6546,-3.5738,-3.5493,-3.5493,-3.5493,-3.5493,-3.5493,-3.5493,-3.5045,-3.4545,-3.4257,-3.3737,-3.3237,-3.2968,-3.2468,-3.2083,-3.2083,-3.1602,-3.1198,-3.1198,-3.1198,-3.1198,-3.1198,-3.1198,-3.1198,-3.1198,-3.1718,-3.2083,-3.2083,-3.2583,-3.3006,-3.3295,-3.3314,-3.3653,-3.4443,-3.5119,-3.5432,-3.5239,-3.5398,-3.5595,-3.5752,-3.558,-3.5641,-3.5892,-3.5892,-3.6026,-3.6295,-3.6873,-3.7123,-3.7142,-3.7738,-3.8161,-3.8411,-3.8411,-3.8565,-3.8849,-3.949,-3.9777,-3.9893,-4.0519,-4.0836,-4.095,-4.007,-4.007,-4.007,-4.007,-4.0528,-4.0903,-4.0903,-4.1402,-4.2021,-4.2616,-4.2693,-4.2902,-4.3444,-4.3497,-4.3497,-4.3497,-4.3497,-4.3497,-4.3497,-4.3497,-4.3497,-4.3497,-4.3497,-4.3497,-4.3497,-4.3497,-4.3497,-4.3497,-4.3497,-4.3497,-4.3497,-4.3497,-4.3497,-4.3461,-4.2671,-4.2304,-4.2194,-4.0598,-3.99,-3.9827,-3.9038,-3.8707,-3.8707,-3.8707,-3.8707,-3.8707,-3.8707,-3.8884,-3.9099,-3.9099,-3.8964,-3.8823,-3.8804,-3.7838,-3.6546,-3.5738,-3.5493,-3.5493,-3.5493,-3.5493,-3.5493,-3.5493,-3.5493,-3.5276,-3.441,-3.4199,-3.3949,-3.3103,-3.291,-3.291,-3.291,-3.2891,-3.2891,-3.2891,-3.2891,-3.2891,-3.2891,-3.2891,-3.2891,-3.2891,-3.291,-3.291,-3.291,-3.291,-3.3276,-3.4141,-3.4199,-3.4462,-3.5047,-3.5354,-3.5239,-3.4733,-3.5242,-3.5752,-3.6287,-3.5772,-3.5911,-3.6719,-3.6719,-3.7161,-3.8007,-3.8007,-3.8007,-3.8007,-3.8027,-3.8507,-3.9296,-3.9296,-3.9777,-4.0489,-4.0489,-4.0568,-4.0692,-4.0692,-4.0732,-4.0801,-4.007,-4.007,-4.007,-4.007,-4.0254,-4.0319,-4.0319,-4.0797,-4.1206,-4.1402,-4.2162,-4.275,-4.2939,-4.325,-4.3497,-4.3497,-4.3497,-4.3497,-4.3497,-4.3497,-4.3497,-4.3497,-4.3497,-4.3497,-4.3497,-4.3497,-4.3497,-4.3497,-4.3497,-4.3497,-4.3497,-4.3497,-4.3497,-4.3479,-4.324,-4.2818,-4.2268,-4.1791,-4.0928,-3.9863,-3.9643,-3.9203,-3.8707,-3.8707,-3.8707,-3.8707,-3.8707,-3.8732,-3.8844,-3.9036,-3.9239,-3.9345,-3.9197,-3.8005,-3.6661,-3.6411,-3.5949,-3.5493,-3.5493,-3.5493,-3.5493,-3.5493,-3.5493,-3.543,-3.518,-3.5122,-3.5045,-3.4776,-3.4237,-3.3814,-3.3814,-3.3314,-3.2891,-3.2891,-3.2891,-3.2891,-3.2891,-3.2891,-3.2891,-3.2891,-3.3269,-3.354,-3.354,-3.3911,-3.4262,-3.4527,-3.4546,-3.4623,-3.4813,-3.4908,-3.5116,-3.5543,-3.5703,-3.614,-3.6854,-3.652,-3.6776,-3.7603,-3.7603,-3.7757,-3.8027,-3.8623,-3.8911,-3.8931,-3.9508,-3.9892,-4.0142,-4.0142,-4.0277,-4.0489,-4.0489,-4.0515,-4.0559,-4.0559,-4.063,-4.0731,-4.007,-4.007,-4.007,-4.007,-4.007,-4.007,-4.007,-4.0368,-4.0655,-4.0856,-4.1534,-4.208,-4.2302,-4.2846,-4.3178,-4.3178,-4.3375,-4.3497,-4.3497,-4.3497,-4.3497,-4.3497,-4.3497,-4.3497,-4.3497,-4.3497,-4.3497,-4.3497,-4.3497,-4.3497,-4.3497,-4.3497,-4.3497,-4.3497,-4.3497,-4.3222,-4.2745,-4.2433,-4.1735,-4.0781,-4.0157,-3.9606,-3.9148,-3.8817,-3.8707,-3.8707,-3.8707,-3.8707,-3.8719,-3.8884,-3.9249,-3.9539,-3.9201,-3.8485,-3.7584,-3.6911,-3.6372,-3.5911,-3.5603,-3.5493,-3.5493,-3.5493,-3.5493,-3.5493,-3.5493,-3.5493,-3.5493,-3.5493,-3.5084,-3.4718,-3.4718,-3.4276,-3.393,-3.393,-3.393,-3.393,-3.393,-3.393,-3.3884,-3.3782,-3.4098,-3.427,-3.4166,-3.4491,-3.4694,-3.4694,-3.4694,-3.4804,-3.4996,-3.5122,-3.5434,-3.6048,-3.6258,-3.672,-3.7408,-3.7356,-3.767,-3.8326,-3.8326,-3.8565,-3.9008,-3.9527,-3.9758,-3.9796,-4.0277,-4.0489,-4.0489,-4.0489,-4.0489,-4.0489,-4.0489,-4.0489,-4.0489,-4.0489,-4.0545,-4.0623,-4.007,-4.007,-4.007,-4.007,-4.007,-4.007,-4.007,-4.007,-4.0303,-4.078,-4.0856,-4.1133,-4.1664,-4.2262,-4.2655,-4.2711,-4.3178,-4.3497,-4.3497,-4.3497,-4.3497,-4.3497,-4.3497,-4.3497,-4.3497,-4.3497,-4.3497,-4.3497,-4.3497,-4.3497,-4.3497,-4.3497,-4.3497,-4.3497,-4.3497,-4.3497,-4.3442,-4.2708,-4.2378,-4.2176,-4.0689,-4.0029,-3.9808,-3.9093,-3.8762,-3.8707,-3.8707,-3.8707,-3.8707,-3.8719,-3.91,-3.949,-3.905,-3.9063,-3.8954,-3.7377,-3.6892,-3.6642,-3.5834,-3.5622,-3.5603,-3.5526,-3.5493,-3.5493,-3.5493,-3.5493,-3.5493,-3.5493,-3.5493,-3.5493,-3.5493,-3.5493,-3.5493,-3.5493,-3.5493,-3.5493,-3.5479,-3.546,-3.5369,-3.5105,-3.5034,-3.4907,-3.4674,-3.4708,-3.4724,-3.4724,-3.48,-3.5068,-3.5553,-3.5791,-3.6067,-3.6405,-3.6876,-3.7403,-3.7973,-3.8209,-3.8512,-3.8861,-3.8861,-3.9412,-4.0422,-4.0457,-4.0473,-4.0473,-4.0489,-4.0489,-4.0489,-4.0489,-4.0489,-4.0489,-4.0489,-4.0489,-4.0489,-4.0489,-4.0489,-4.0489,-4.007,-4.007,-4.007,-4.007,-4.007,-4.007,-4.007,-4.007,-4.0121,-4.0237,-4.0655,-4.0949,-4.1087,-4.1621,-4.2162,-4.2655,-4.3178,-4.3497,-4.3497,-4.3497,-4.3497,-4.3497,-4.3497,-4.3497,-4.3497,-4.3497,-4.3497,-4.3497,-4.3497,-4.3497,-4.3497,-4.3497,-4.3497,-4.3497,-4.3497,-4.3497,-4.3479,-4.3296,-4.2873,-4.2268,-4.1919,-4.102,-3.9863,-3.9698,-3.9239,-3.8707,-3.8707,-3.8707,-3.8719,-3.8933,-3.9099,-3.9296,-3.9692,-3.9395,-3.8894,-3.877,-3.8257,-3.7526,-3.668,-3.6449,-3.6295,-3.5661,-3.5493,-3.5493,-3.5493,-3.5493,-3.5493,-3.5493,-3.5493,-3.5493,-3.5493,-3.5493,-3.5493,-3.5493,-3.5493,-3.5432,-3.5223,-3.519,-3.5088,-3.4832,-3.4553,-3.436,-3.4292,-3.4686,-3.494,-3.494,-3.5568,-3.6002,-3.6104,-3.6187,-3.6528,-3.7232,-3.7329,-3.7774,-3.8516,-3.8586,-3.8894,-3.9425,-3.9425,-3.9564,-3.98,-4.0081,-4.0177,-4.0195,-4.0406,-4.0489,-4.0489,-4.0489,-4.0489,-4.0489,-4.0489,-4.0489,-4.0489,-4.0489,-4.0489,-4.0489,-4.007,-4.007,-4.007,-4.007,-4.007,-4.007,-4.007,-4.007,-4.007,-4.007,-4.0319,-4.0546,-4.0546,-4.1013,-4.1621,-4.2203,-4.279,-4.3142,-4.3142,-4.3375,-4.3497,-4.3497,-4.3497,-4.3497,-4.3497,-4.3497,-4.3497,-4.3497,-4.3497,-4.3497,-4.3497,-4.3497,-4.3497,-4.3497,-4.3497,-4.3497,-4.3497,-4.3497,-4.3259,-4.2837,-4.2451,-4.1791,-4.0965,-4.0175,-3.9643,-3.9221,-3.8836,-3.8707,-3.8719,-3.8855,-3.8999,-3.916,-3.951,-3.941,-3.9161,-3.9085,-3.8628,-3.7983,-3.7264,-3.7086,-3.699,-3.6553,-3.6247,-3.5968,-3.5603,-3.5493,-3.5493,-3.5493,-3.5493,-3.5493,-3.5493,-3.5493,-3.5446,-3.532,-3.5304,-3.5207,-3.4944,-3.4908,-3.4793,-3.4508,-3.4311,-3.4296,-3.4548,-3.522,-3.5624,-3.5624,-3.6046,-3.6468,-3.6835,-3.6853,-3.7239,-3.8046,-3.8065,-3.8267,-3.8707,-3.8707,-3.8862,-3.9163,-3.9282,-3.9457,-3.9599,-3.9775,-3.9859,-3.988,-4.0004,-4.0157,-4.0321,-4.0321,-4.0389,-4.0489,-4.0489,-4.0489,-4.0489,-4.0489,-4.0489,-4.0489,-4.007,-4.007,-4.007,-4.007,-4.007,-4.007,-4.007,-4.007,-4.007,-4.007,-4.007,-4.007,-4.007,-4.0577,-4.1087,-4.1621,-4.2203,-4.2577,-4.2693,-4.3142,-4.341,-4.3497,-4.3497,-4.3497,-4.3497,-4.3497,-4.3497,-4.3497,-4.3497,-4.3497,-4.3497,-4.3497,-4.3497,-4.3497,-4.3497,-4.3497,-4.3497,-4.3497,-4.3497,-4.3424,-4.2763,-4.2415,-4.2139,-4.0671,-4.001,-3.979,-3.9001,-3.8707,-3.8707,-3.8707,-3.8844,-3.9036,-3.9099,-3.9289,-3.9444,-3.9047,-3.8776,-3.8461,-3.7813,-3.768,-3.768,-3.749,-3.7101,-3.6581,-3.5929,-3.5624,-3.5493,-3.5446,-3.5479,-3.5493,-3.5446,-3.5432,-3.5335,-3.5088,-3.5016,-3.4925,-3.4634,-3.4724,-3.4692,-3.4375,-3.4457,-3.4747,-3.5193,-3.6009,-3.6505,-3.6505,-3.6633,-3.7,-3.7661,-3.7698,-3.801,-3.8689,-3.8707,-3.8707,-3.8707,-3.8707,-3.8707,-3.8707,-3.8923,-3.9197,-3.9451,-3.9505,-3.951,-3.9529,-3.9576,-3.9754,-4.0022,-4.0081,-4.0232,-4.0441,-4.0489,-4.0489,-4.0489,-4.0489,-4.0489,-4.0489,-4.007,-4.007,-4.007,-4.007,-4.007,-4.007,-4.007,-4.007,-4.007,-4.007,-4.007,-4.007,-4.007,-4.0577,-4.0949,-4.0995,-4.1578,-4.2162,-4.2673,-4.2788,-4.3014,-4.3479,-4.3497,-4.3497,-4.3497,-4.3497,-4.3497,-4.3497,-4.3497,-4.3497,-4.3497,-4.3497,-4.3497,-4.3497,-4.3497,-4.3497,-4.3497,-4.3497,-4.3497,-4.3479,-4.3369,-4.291,-4.2194,-4.1295,-4.0506,-3.979,-3.9001,-3.8707,-3.8707,-3.8707,-3.8719,-3.8803,-3.9036,-3.9133,-3.9219,-3.9444,-3.9648,-3.9621,-3.848,-3.8398,-3.8385,-3.74,-3.7093,-3.7022,-3.6906,-3.6171,-3.5432,-3.5207,-3.5354,-3.5432,-3.5207,-3.5138,-3.507,-3.4812,-3.4754,-3.4634,-3.4292,-3.4923,-3.5262,-3.4944,-3.5551,-3.6048,-3.6119,-3.6853,-3.7331,-3.7331,-3.7973,-3.8414,-3.8524,-3.8542,-3.8597,-3.8707,-3.8707,-3.8707,-3.8707,-3.8707,-3.8707,-3.8707,-3.875,-3.8792,-3.8833,-3.9082,-3.9178,-3.9186,-3.9462,-3.9622,-3.969,-3.9982,-4.012,-4.0177,-4.0406,-4.0489,-4.0489,-4.0489,-4.0489,-4.0489,-4.007,-4.007,-4.007,-4.007,-4.007,-4.007,-4.007,-4.007,-4.007,-4.007,-4.007,-4.007,-4.007,-4.0336,-4.0449,-4.0449,-4.0967,-4.1402,-4.1664,-4.2021,-4.2462,-4.3014,-4.305,-4.3178,-4.3479,-4.3497,-4.3497,-4.3497,-4.3497,-4.3497,-4.3497,-4.3497,-4.3497,-4.3497,-4.3497,-4.3497,-4.3497,-4.3497,-4.3497,-4.3497,-4.3497,-4.3277,-4.2873,-4.2084,-4.1277,-4.0414,-3.9148,-3.8707,-3.8707,-3.8707,-3.8707,-3.8719,-3.8844,-3.8884,-3.8952,-3.9231,-3.9432,-3.943,-3.8889,-3.8987,-3.9088,-3.8389,-3.8005,-3.7736,-3.7572,-3.6963,-3.635,-3.6234,-3.6423,-3.653,-3.6273,-3.635,-3.6293,-3.5893,-3.5825,-3.5707,-3.5399,-3.5705,-3.5883,-3.5734,-3.645,-3.6964,-3.6964,-3.7698,-3.8175,-3.8175,-3.8505,-3.8707,-3.8707,-3.8707,-3.8707,-3.8707,-3.8707,-3.8707,-3.8707,-3.8707,-3.8707,-3.8707,-3.8707,-3.8707,-3.8707,-3.8815,-3.8884,-3.8884,-3.9036,-3.9189,-3.9339,-3.9481,-3.9775,-4.0101,-4.0232,-4.0372,-4.0489,-4.0489,-4.0489,-4.0489]},{"header":{"parameterUnit":"m.s-1","parameterCategory":1,"la1":30.6,"la2":28.766,"lo1":-90.7593,"lo2":-88.6598,"dy":0.0162,"dx":0.0183,"nx":116,"ny":114,"refTime":"2023-05-05T00:00:00:Z","depth":0,"parameterNumber":3,"parameterNumberName":"V-component_of_WINDS"},"data":[0.0,0.0,0.0,0.0,0.0,0.0,0.0,0.0,0.0,0.0,0.0,0.0,0.0,0.0,0.0,0.0,0.0,0.0,0.0,0.0,0.0,0.0,0.0,0.0,0.0,0.0,0.0,0.0,0.0,0.0,0.0,0.0,0.0,0.0,0.0,0.0,0.0,0.0,0.0,0.0,0.0,0.0,0.0,0.0,0.0,0.0,0.0,0.0,0.0,0.0,0.0,0.0,0.0,0.0,0.0,0.0,0.0,0.0,0.0,0.0,0.0,0.0,0.0,0.0,0.0,0.0,0.0,0.0,0.0,0.0,0.0,0.0,0.0,0.0,0.0,0.0,0.0,0.0,0.0,0.0,0.0,0.0,0.0,0.0,0.0,0.0,0.0,0.0,0.0,0.0,0.0,0.0,0.0,0.0,0.0,0.0,0.0,0.0,0.0,0.0,0.0,0.0,0.0,0.0,0.0,0.0,0.0,0.0,0.0,0.0,0.0,0.0,0.0,0.0,0.0,0.0,0.0,0.0,0.0,0.0,0.0,0.0,0.0,0.0,0.0,0.0,0.0,0.0,0.0,0.0,0.0,0.0,0.0,0.0,0.0,0.0,0.0,0.0,0.0,0.0,0.0,0.0,0.0,0.0,0.0,0.0,0.0,0.0,0.0,0.0,0.0,0.0,0.0,0.0,0.0,0.0,0.0,0.0,0.0,0.0,0.0,0.0,0.0,0.0,0.0,0.0,0.0,0.0,0.0,0.0,0.0,0.0,0.0,0.0,0.0,0.0,0.0,0.0,0.0,0.0,0.0,0.0,0.0,0.0,0.0,0.0,0.0,0.0,0.0,0.0,0.0,0.0,0.0,0.0,0.0,0.0,0.0,0.0,0.0,0.0,0.0,0.0,0.0,0.0,0.0,0.0,0.0,0.0,0.0,0.0,0.0,0.0,0.0,0.0,0.0,0.0,0.0,0.0,0.0,0.0,0.0,0.0,0.0,0.0,0.0,0.0,0.0,0.0,0.0,0.0,0.0,0.0,0.0,0.0,0.0,0.0,0.0,0.0,0.0,0.0,0.0,0.0,0.0,0.0,0.0,0.0,0.0,0.0,0.0,0.0,0.0,0.0,0.0,0.0,0.0,0.0,0.0,0.0,0.0,0.0,0.0,0.0,0.0,0.0,0.0,0.0,0.0,0.0,0.0,0.0,0.0,0.0,0.0,0.0,0.0,0.0,0.0,0.0,0.0,0.0,0.0,0.0,0.0,0.0,0.0,0.0,0.0,0.0,0.0,0.0,0.0,0.0,0.0,0.0,0.0,0.0,0.0,0.0,0.0,0.0,0.0,0.0,0.0,0.0,0.0,0.0,0.0,0.0,0.0,0.0,0.0,0.0,0.0,0.0,0.0,0.0,0.0,0.0,0.0,0.0,0.0,0.0,0.0,0.0,0.0,0.0,0.0,0.0,0.0,0.0,0.0,0.0,0.0,0.0,0.0,0.0,0.0,0.0,0.0,0.0,0.0,0.0,0.0,0.0,0.0,0.0,0.0,0.0,0.0,0.0,0.0,0.0,0.0,0.0,0.0,0.0,0.0,0.0,0.0,0.0,0.0,0.0,0.0,0.0,0.0,0.0,0.0,0.0,0.0,0.0,0.0,0.0,0.0,0.0,0.0,0.0,0.0,0.0,0.0,0.0,0.0,0.0,0.0,0.0,0.0,0.0,0.0,0.0,0.0,0.0,0.0,0.0,0.0,0.0,0.0,0.0,0.0,0.0,0.0,0.0,0.0,0.0,0.0,0.0,0.0,0.0,0.0,0.0,0.0,0.0,0.0,0.0,0.0,0.0,0.0,0.0,0.0,0.0,0.0,0.0,0.0,0.0,0.0,0.0,0.0,0.0,0.0,0.0,0.0,0.0,0.0,0.0,0.0,0.0,0.0,0.0,0.0,0.0,0.0,0.0,0.0,0.0,0.0,0.0,0.0,0.0,0.0,0.0,0.0,0.0,0.0,0.0,0.0,0.0,0.0,0.0,0.0,0.0,0.0,0.0,0.0,0.0,0.0,0.0,0.0,0.0,0.0,0.0,0.0,0.0,0.0,0.0,0.0,0.0,0.0,0.0,0.0,0.0,0.0,0.0,0.0,0.0,0.0,0.0,0.0,0.0,0.0,0.0,0.0,0.0,0.0,0.0,0.0,0.0,0.0,0.0,0.0,0.0,0.0,0.0,0.0,0.0,0.0,0.0,0.0,0.0,0.0,0.0,0.0,0.0,0.0,0.0,0.0,0.0,0.0,0.0,0.0,0.0,0.0,0.0,0.0,0.0,0.0,0.0,0.0,0.0,0.0,0.0,0.0,0.0,0.0,0.0,0.0,0.0,0.0,0.0,0.0,0.0,0.0,0.0,0.0,0.0,0.0,0.0,0.0,0.0,0.0,0.0,0.0,0.0,0.0,0.0,0.0,0.0,0.0,0.0,0.0,0.0,0.0,0.0,0.0,0.0,0.0,0.0,0.0,0.0,0.0,0.0,0.0,0.0,0.0,0.0,0.0,0.0,0.0,0.0,0.0,0.0,0.0,0.0,0.0,0.0,0.0,0.0,0.0,0.0,0.0,0.0,0.0,0.0,0.0,0.0,0.0,0.0,0.0,0.0,0.0,0.0,0.0,0.0,0.0,0.0,0.0,0.0,0.0,0.0,0.0,0.0,0.0,0.0,0.0,0.0,0.0,0.0,0.0,0.0,0.0,0.0,0.0,0.0,0.0,0.0,0.0,0.0,0.0,0.0,0.0,0.0,0.0,0.0,0.0,0.0,0.0,0.0,0.0,0.0,0.0,0.0,0.0,0.0,0.0,0.0,0.0,0.0,0.0,0.0,0.0,0.0,0.0,0.0,0.0,0.0,0.0,0.0,0.0,0.0,0.0,0.0,0.0,0.0,0.0,0.0,0.0,0.0,0.0,0.0,0.0,0.0,0.0,0.0,0.0,0.0,0.0,0.0,0.0,0.0,0.0,0.0,0.0,0.0,0.0,0.0,0.0,0.0,0.0,0.0,0.0,0.0,0.0,0.0,0.0,0.0,0.0,0.0,0.0,0.0,0.0,0.0,0.0,0.0,0.0,0.0,0.0,0.0,0.0,0.0,0.0,0.0,0.0,0.0,0.0,0.0,0.0,0.0,0.0,0.0,0.0,0.0,0.0,0.0,0.0,0.0,0.0,0.0,0.0,0.0,0.0,0.0,0.0,0.0,0.0,0.0,0.0,0.0,0.0,0.0,0.0,0.0,0.0,0.0,0.0,0.0,0.0,0.0,0.0,0.0,0.0,0.0,0.0,0.0,0.0,0.0,0.0,0.0,0.0,0.0,0.0,0.0,0.0,0.0,0.0,0.0,0.0,0.0,0.0,0.0,0.0,0.0,0.0,0.0,0.0,0.0,0.0,0.0,0.0,0.0,0.0,0.0,0.0,0.0,0.0,0.0,0.0,0.0,0.0,0.0,0.0,0.0,0.0,0.0,0.0,0.0,0.0,0.0,0.0,0.0,0.0,0.0,0.0,0.0,0.0,0.0,0.0,0.0,0.0,0.0,0.0,0.0,0.0,0.0,0.0,0.0,0.0,0.0,0.0,0.0,0.0,0.0,0.0,0.0,0.0,0.0,0.0,0.0,0.0,0.0,0.0,0.0,0.0,0.0,0.0,0.0,0.0,0.0,0.0,0.0,0.0,0.0,0.0,0.0,0.0,0.0,0.0,0.0,0.0,0.0,0.0,0.0,0.0,0.0,0.0,0.0,0.0,0.0,0.0,0.0,0.0,0.0,0.0,0.0,0.0,0.0,0.0,0.0,0.0,0.0,0.0,0.0,0.0,0.0,0.0,0.0,0.0,0.0,0.0,0.0,0.0,0.0,0.0,0.0,0.0,0.0,0.0,0.0,0.0,0.0,0.0,0.0,0.0,0.0,0.0,0.0,0.0,0.0,0.0,0.0,0.0,0.0,0.0,0.0,0.0,0.0,0.0,0.0,0.0,0.0,0.0,0.0,0.0,0.0,0.0,0.0,0.0,0.0,0.0,0.0,0.0,0.0,0.0,0.0,0.0,0.0,0.0,0.0,0.0,0.0,0.0,0.0,0.0,0.0,0.0,0.0,0.0,0.0,0.0,0.0,0.0,0.0,0.0,0.0,0.0,0.0,0.0,0.0,0.0,0.0,0.0,0.0,0.0,0.0,0.0,0.0,0.0,0.0,0.0,0.0,0.0,0.0,0.0,0.0,0.0,0.0,0.0,0.0,0.0,0.0,0.0,0.0,0.0,0.0,0.0,0.0,0.0,0.0,0.0,0.0,0.0,0.0,0.0,0.0,0.0,0.0,0.0,0.0,0.0,0.0,0.0,0.0,0.0,0.0,0.0,0.0,0.0,0.0,0.0,0.0,0.0,0.0,0.0,0.0,0.0,0.0,0.0,0.0,0.0,0.0,0.0,0.0,0.0,0.0,0.0,0.0,0.0,0.0,0.0,0.0,0.0,0.0,0.0,0.0,0.0,0.0,0.0,0.0,0.0,0.0,0.0,0.0,0.0,0.0,0.0,0.0,0.0,0.0,0.0,0.0,0.0,0.0,0.0,0.0,0.0,0.0,0.0,0.0,0.0,0.0,0.0,0.0,0.0,0.0,0.0,0.0,0.0,0.0,0.0,0.0,0.0,0.0,0.0,0.0,0.0,0.0,0.0,0.0,0.0,0.0,0.0,0.0,0.0,0.0,0.0,0.0,0.0,0.0,0.0,0.0,0.0,0.0,0.0,0.0,0.0,0.0,0.0,0.0,0.0,0.0,0.0,0.0,0.0,0.0,0.0,0.0,0.0,0.0,0.0,0.0,0.0,0.0,0.0,0.0,0.0,0.0,0.0,0.0,0.0,0.0,0.0,0.0,0.0,0.0,0.0,0.0,0.0,0.0,0.0,0.0,0.0,0.0,0.0,0.0,0.0,0.0,0.0,0.0,0.0,0.0,0.0,0.0,0.0,0.0,0.0,0.0,0.0,0.0,0.0,0.0,0.0,0.0,0.0,0.0,0.0,0.0,0.0,0.0,0.0,0.0,0.0,0.0,0.0,0.0,0.0,0.0,0.0,0.0,0.0,0.0,0.0,0.0,0.0,0.0,0.0,0.0,0.0,0.0,0.0,0.0,0.0,0.0,0.0,0.0,0.0,0.0,0.0,0.0,0.0,0.0,0.0,0.0,0.0,0.0,0.0,0.0,0.0,0.0,0.0,0.0,0.0,0.0,0.0,0.0,0.0,0.0,0.0,0.0,0.0,0.0,0.0,0.0,0.0,0.0,0.0,0.0,0.0,0.0,0.0,0.0,0.0,0.0,0.0,0.0,0.0,0.0,0.0,0.0,0.0,0.0,0.0,0.0,0.0,0.0,0.0,0.0,0.0,0.0,0.0,0.0,0.0,0.0,0.0,0.0,0.0,0.0,0.0,0.0,0.0,0.0,0.0,0.0,0.0,0.0,0.0,0.0,0.0,0.0,0.0,0.0,0.0,0.0,0.0,0.0,0.0,0.0,0.0,0.0,0.0,0.0,0.0,0.0,0.0,0.0,0.0,0.0,0.0,0.0,0.0,0.0,0.0,0.0,0.0,0.0,0.0,0.0,0.0,0.0,0.0,0.0,0.0,0.0,0.0,0.0,0.0,0.0,0.0,0.0,0.0,0.0,0.0,0.0,0.0,0.0,0.0,0.0,0.0,0.0,0.0,0.0,0.0,0.0,0.0,0.0,0.0,0.0,0.0,0.0,0.0,0.0,0.0,0.0,0.0,0.0,0.0,0.0,0.0,0.0,0.0,0.0,0.0,0.0,0.0,0.0,0.0,0.0,0.0,0.0,0.0,0.0,0.0,0.0,0.0,0.0,0.0,0.0,0.0,0.0,0.0,0.0,0.0,0.0,0.0,0.0,0.0,0.0,0.0,0.0,0.0,0.0,0.0,0.0,0.0,0.0,0.0,0.0,0.0,0.0,0.0,0.0,0.0,0.0,0.0,0.0,0.0,0.0,0.0,0.0,0.0,0.0,0.0,0.0,0.0,0.0,0.0,0.0,0.0,0.0,0.0,0.0,0.0,0.0,0.0,0.0,-2.8359,0.0,0.0,0.0,0.0,0.0,0.0,0.0,0.0,0.0,0.0,0.0,0.0,0.0,0.0,0.0,0.0,0.0,0.0,0.0,0.0,0.0,0.0,0.0,0.0,0.0,0.0,0.0,0.0,0.0,0.0,0.0,0.0,0.0,0.0,0.0,0.0,0.0,0.0,0.0,-0.6588,-0.7343,-0.8804,-0.8804,-0.8804,-0.8804,0.0,0.0,0.0,0.0,0.0,0.0,0.0,0.0,0.0,0.0,0.0,0.0,0.0,0.0,0.0,0.0,0.0,0.0,0.0,0.0,0.0,0.0,0.0,0.0,0.0,0.0,0.0,0.0,0.0,0.0,0.0,0.0,0.0,0.0,0.0,0.0,0.0,0.0,0.0,0.0,0.0,0.0,0.0,0.0,0.0,0.0,0.0,0.0,0.0,0.0,0.0,0.0,0.0,0.0,0.0,0.0,0.0,0.0,0.0,0.0,0.0,0.0,0.0,0.0,0.0,0.0,0.0,0.0,0.0,0.0,0.0,-2.8815,0.0,0.0,0.0,0.0,0.0,0.0,0.0,0.0,0.0,0.0,0.0,0.0,0.0,0.0,0.0,0.0,0.0,0.0,0.0,0.0,0.0,0.0,0.0,0.1397,0.1006,0.028,0.0056,0.0,0.0,0.0,0.0,0.0,0.0,0.0,0.0,-0.4625,-0.5336,-0.6588,-0.6858,-0.7616,-0.8804,-0.8804,-0.8831,-0.8878,-0.8831,0.0,0.0,0.0,0.0,0.0,0.0,0.0,0.0,0.0,0.0,0.0,0.0,0.0,0.0,0.0,0.0,0.0,0.0,0.0,0.0,0.0,0.0,0.0,0.0,0.0,0.0,0.0,0.0,0.0,0.0,0.0,0.0,0.0,0.0,0.0,0.0,0.0,0.0,0.0,0.0,0.0,0.0,0.0,0.0,0.0,0.0,0.0,0.0,0.0,0.0,0.0,0.0,0.0,0.0,0.0,0.0,0.0,0.0,0.0,0.0,0.0,0.0,0.0,-2.8839,-2.8994,-2.8994,-2.8994,-2.8994,-2.8994,-2.8994,-2.8994,-2.8994,0.0,0.0,0.0,0.0,0.0,0.0,0.0,0.0,0.0,0.0,0.0,0.0,0.0,0.0,0.0,0.0,0.0,0.0,0.0,0.0,0.0,0.0,0.2454,0.1786,0.1006,0.0392,0.0,0.0,0.0,0.0,0.0,0.0,0.0,-0.4519,-0.5058,-0.5764,-0.6588,-0.7883,-0.8593,-0.8804,-0.8804,-0.8938,-0.9117,-0.8918,-0.8804,-0.8824,0.0,0.0,0.0,0.0,0.0,0.0,0.0,0.0,0.0,0.0,0.0,0.0,0.0,0.0,0.0,0.0,0.0,0.0,0.0,0.0,0.0,0.0,0.0,0.0,0.0,0.0,0.0,0.0,0.0,0.0,0.0,0.0,0.0,0.0,0.0,0.0,0.0,0.0,0.0,0.0,0.0,-2.2644,-2.3106,0.0,0.0,0.0,0.0,0.0,0.0,0.0,0.0,0.0,0.0,0.0,0.0,0.0,0.0,-2.8839,-2.8905,-2.8929,-2.8929,-2.8975,-2.8994,-2.8994,-2.8994,-2.8994,-2.8994,-2.8994,0.0,-2.8994,-2.8994,0.0,0.0,0.0,0.0,0.0,0.0,0.0,0.0,0.0,0.0,0.0,0.0,0.0,0.0,0.0,0.0,0.0,0.0,0.0,0.0,0.0,0.2003,0.1113,-0.0056,-0.0838,-0.1229,-0.1229,-0.1842,0.0,0.0,0.0,-0.4233,-0.5054,-0.5324,-0.6086,-0.7235,-0.8262,-0.8891,-0.9051,-0.9051,-0.9205,-0.9486,-0.9841,-0.9729,-0.9361,-0.9918,0.0,0.0,0.0,0.0,0.0,0.0,0.0,0.0,0.0,0.0,0.0,0.0,0.0,0.0,0.0,0.0,0.0,0.0,0.0,0.0,0.0,0.0,0.0,0.0,0.0,0.0,0.0,0.0,0.0,0.0,0.0,0.0,0.0,0.0,0.0,0.0,0.0,0.0,0.0,-2.2377,-2.318,-2.3393,-2.4408,-2.5118,0.0,0.0,0.0,0.0,0.0,0.0,0.0,0.0,0.0,-2.8725,-2.8749,-2.8815,-2.8994,-2.8994,-2.8994,-2.8994,-2.8994,-2.8994,-2.8994,-2.8994,-2.8994,-2.8994,-2.8994,-2.8994,-2.8994,-2.8994,-2.8994,-2.8994,0.0,0.0,0.0,0.0,-2.8994,-2.8994,0.0,0.0,0.0,0.0,0.0,0.0,0.0,0.0,0.0,0.0,0.0,0.0,0.2619,0.1501,0.0389,-0.0726,-0.1673,-0.2174,-0.2174,-0.2397,-0.2732,-0.3287,-0.3566,-0.4229,-0.5487,-0.5869,-0.6681,-0.799,-0.8605,-0.9025,-0.9183,-0.9479,-0.9676,-0.9852,-1.087,-1.0825,-1.0077,-1.0947,-1.1092,-1.0827,0.0,0.0,0.0,0.0,0.0,0.0,0.0,0.0,0.0,0.0,0.0,0.0,0.0,0.0,0.0,0.0,0.0,0.0,0.0,0.0,0.0,0.0,0.0,0.0,0.0,0.0,0.0,0.0,0.0,0.0,0.0,0.0,0.0,0.0,0.0,0.0,0.0,-2.33,-2.3951,-2.3951,-2.5178,-2.6024,0.0,0.0,0.0,0.0,0.0,0.0,-2.854,-2.8839,-2.8994,-2.8994,-2.8994,-2.8994,-2.8994,-2.8994,-2.8994,-2.8994,-2.8994,-2.8994,-2.8994,-2.8994,-2.8994,-2.8994,-2.8994,-2.8994,-2.8994,-2.8994,-2.8994,-2.8994,-2.8994,-2.8994,-2.8994,-2.8994,-2.8994,-2.8994,0.0,0.0,0.0,0.0,0.0,0.0,0.0,0.0,0.0,0.0,0.0,0.34,0.3287,0.1334,0.0,-0.0056,-0.1392,-0.2174,-0.2174,-0.2899,-0.3345,-0.3287,-0.4015,-0.4787,-0.5483,-0.6848,-0.799,-0.8752,-0.903,-0.917,-0.9245,-1.0292,-1.0545,-1.0154,-1.1803,-1.1904,-1.0922,-1.206,-1.2911,-1.357,-1.3109,0.0,0.0,0.0,0.0,0.0,0.0,0.0,0.0,0.0,0.0,0.0,0.0,0.0,0.0,0.0,0.0,0.0,0.0,0.0,0.0,0.0,0.0,0.0,0.0,0.0,0.0,0.0,0.0,0.0,0.0,0.0,0.0,0.0,0.0,0.0,0.0,0.0,0.0,-2.549,-2.6505,0.0,0.0,0.0,0.0,-2.8324,-2.8394,-2.8565,-2.8952,-2.8994,-2.8994,-2.8994,-2.8994,-2.8994,-2.8994,-2.8994,-2.8994,-2.8994,-2.8994,-2.8994,-2.8994,-2.8994,-2.8994,-2.8994,-2.8994,-2.8994,-2.8994,-2.8994,-2.8994,-2.8994,-2.8994,-2.8994,-2.8994,-2.8994,-2.8994,-2.8994,0.0,0.0,0.0,0.0,0.0,0.0,0.0,0.0,0.5003,0.457,0.3846,0.3178,0.2676,0.0611,-0.0889,-0.1392,-0.2783,-0.368,-0.368,-0.3959,-0.407,-0.407,-0.4783,-0.5706,-0.6902,-0.8045,-0.8806,-0.903,-0.9379,-0.9893,-1.053,-1.0989,-1.1457,-1.2026,-1.3109,-1.3388,-1.3024,-1.3473,-1.3525,-1.3365,-1.4209,-1.4392,0.0,0.0,0.0,0.0,0.0,0.0,0.0,0.0,0.0,0.0,0.0,0.0,0.0,0.0,0.0,0.0,0.0,0.0,0.0,0.0,0.0,0.0,0.0,0.0,0.0,0.0,0.0,0.0,0.0,0.0,0.0,0.0,0.0,0.0,0.0,0.0,0.0,-2.5983,-2.6986,0.0,0.0,-2.7648,-2.7823,-2.7689,-2.8139,-2.8471,-2.8608,-2.8863,-2.8994,-2.8994,-2.8994,-2.9255,-2.9769,-2.9769,-3.0026,-3.054,-3.054,-3.054,-3.054,-3.054,-3.054,-3.054,-3.054,-3.054,-3.0503,-2.9989,-2.9475,-2.8994,-2.8994,-2.8994,-2.8994,-2.8994,-2.8994,-2.8994,0.0,0.0,0.0,0.0,0.0,0.0,0.0,0.0,0.516,0.4233,0.3456,0.2619,0.156,-0.0278,-0.1779,-0.2563,-0.379,-0.4519,-0.4519,-0.4519,-0.4625,-0.4842,-0.576,-0.6613,-0.7466,-0.8631,-0.923,-0.9385,-0.9962,-1.0608,-1.1331,-1.1972,-1.2522,-1.307,-1.4145,-1.4451,-1.4213,-1.451,-1.4332,-1.3906,-1.4688,-1.4688,-1.4246,0.0,0.0,0.0,0.0,0.0,0.0,0.0,0.0,0.0,0.0,0.0,0.0,0.0,0.0,0.0,0.0,0.0,0.0,0.0,0.0,0.0,0.0,0.0,0.0,0.0,0.0,0.0,0.0,0.0,0.0,0.0,0.0,0.0,0.0,0.0,-2.6361,-2.6361,-2.7143,-2.7589,-2.7334,-2.7648,-2.784,-2.7689,-2.8139,-2.8598,-2.8989,-2.9265,-2.9549,-2.9806,-2.9824,-3.0081,-3.0595,-3.0595,-3.087,-3.1384,-3.1384,-3.1384,-3.1384,-3.1384,-3.1384,-3.1384,-3.1384,-3.1384,-3.1347,-3.0815,-3.0283,-2.9769,-2.9195,-2.8994,-2.8994,-2.8994,-2.8994,-2.8994,0.0,0.0,0.0,0.0,0.0,0.0,0.0,0.5982,0.4992,0.3508,0.2676,0.1615,0.0167,-0.1336,-0.2508,-0.3345,-0.407,-0.4519,-0.4519,-0.4519,-0.4787,-0.5487,-0.6912,-0.7526,-0.7198,-0.8521,-0.9406,-0.9751,-1.0843,-1.1346,-1.1412,-1.3305,-1.3786,-1.313,-1.4688,-1.4991,-1.4264,-1.5108,-1.541,-1.5352,-1.4569,-1.4264,-1.4264,0.0,0.0,0.0,0.0,0.0,0.0,0.0,0.0,0.0,0.0,0.0,0.0,0.0,0.0,0.0,0.0,0.0,0.0,0.0,0.0,0.0,0.0,0.0,0.0,0.0,0.0,0.0,0.0,0.0,0.0,0.0,0.0,0.0,-2.5744,-2.6251,-2.6725,-2.6725,-2.7083,-2.7317,-2.7303,-2.7648,-2.8037,-2.8378,-2.8412,-2.8971,-3.0167,-3.0246,-3.0595,-3.1366,-3.1384,-3.1403,-3.1439,-3.1439,-3.1439,-3.1458,-3.1458,-3.1458,-3.1458,-3.1458,-3.1458,-3.1458,-3.1458,-3.1458,-3.1458,-3.1439,-3.1439,-3.1274,-2.9696,-2.9067,-2.9067,-2.9049,-2.9012,-2.8994,0.0,0.0,0.0,0.0,0.0,0.0,0.0,0.5982,0.4992,0.3564,0.2676,0.1615,0.0167,-0.1336,-0.2508,-0.3345,-0.407,-0.4519,-0.4519,-0.4519,-0.5062,-0.6258,-0.6905,-0.77,-0.8614,-0.9971,-1.0763,-1.0857,-1.1955,-1.2844,-1.3382,-1.3972,-1.4392,-1.4746,-1.5167,-1.5294,-1.5108,-1.5853,-1.6208,-1.6151,-1.5391,-1.5391,-1.5843,0.0,0.0,0.0,0.0,0.0,0.0,0.0,0.0,0.0,0.0,0.0,0.0,0.0,0.0,0.0,0.0,0.0,0.0,0.0,0.0,0.0,0.0,0.0,0.0,0.0,0.0,0.0,0.0,0.0,0.0,0.0,0.0,-2.6623,-2.642,-2.6802,-2.7147,-2.7147,-2.747,-2.7619,-2.7317,-2.7648,-2.807,-2.8438,-2.8979,-2.9682,-3.0658,-3.0929,-3.1164,-3.1384,-3.1384,-3.1678,-3.2265,-3.2284,-3.2559,-3.3128,-3.3128,-3.3128,-3.3128,-3.3128,-3.3128,-3.3128,-3.3128,-3.3128,-3.3091,-3.2504,-3.2284,-3.2173,-3.1146,-3.0742,-3.0668,-3.0099,-2.9512,-2.8994,0.0,0.0,0.0,0.0,0.0,0.0,0.0,0.5982,0.4882,0.3118,0.251,0.1504,-0.0279,-0.1505,-0.2508,-0.3345,-0.407,-0.4625,-0.4893,-0.5496,-0.5968,-0.6327,-0.7404,-0.8488,-0.963,-1.0726,-1.1517,-1.2022,-1.3014,-1.3726,-1.4213,-1.4569,-1.4932,-1.541,-1.541,-1.5584,-1.5864,-1.6322,-1.6652,-1.6922,-1.6472,-1.6585,-1.6978,-1.6978,-1.6978,-1.6922,-1.6595,-1.6641,-1.6789,-1.6922,0.0,0.0,0.0,0.0,0.0,0.0,0.0,0.0,0.0,0.0,0.0,0.0,0.0,0.0,0.0,0.0,0.0,0.0,0.0,0.0,0.0,0.0,0.0,0.0,-2.6691,-2.6691,-2.6691,-2.6906,-2.7051,-2.7051,-2.7518,-2.7834,-2.7802,-2.8299,-2.8868,-2.9448,-2.9922,-3.0559,-3.1574,-3.1796,-3.2063,-3.2375,-3.2724,-3.3128,-3.3597,-3.3972,-3.4376,-3.4853,-3.4853,-3.4853,-3.4853,-3.4853,-3.4853,0.0,-3.4853,-3.4633,-3.4284,-3.3807,-3.3421,0.0,0.0,0.0,0.0,0.0,-3.0411,-3.0008,0.0,0.0,0.0,0.0,0.0,0.0,0.0,0.5928,0.4604,0.2508,0.2174,0.1337,-0.0949,-0.1786,-0.2565,-0.3456,-0.4125,-0.4732,-0.5324,-0.6686,-0.7062,-0.6155,-0.8066,-0.9526,-1.0393,-1.1115,-1.2015,-1.313,-1.3965,-1.4332,-1.4323,-1.505,-1.5468,-1.5526,-1.541,-1.5864,-1.6595,-1.6595,-1.7034,-1.7731,-1.7786,-1.7797,-1.7688,-1.7633,-1.7578,-1.7523,-1.6866,-1.7413,-1.8382,-1.7907,0.0,0.0,0.0,0.0,0.0,0.0,0.0,0.0,0.0,0.0,0.0,0.0,0.0,0.0,0.0,0.0,0.0,0.0,0.0,0.0,0.0,0.0,0.0,0.0,-2.6691,-2.6691,-2.6691,-2.6776,-2.6826,-2.6826,-2.7418,-2.8015,-2.8503,-2.9174,-2.9951,-3.0823,-3.0926,-3.1473,-3.2755,0.0,0.0,0.0,0.0,-3.5137,-3.5137,-3.5917,-3.6303,-3.6303,-3.6303,-3.6303,-3.6303,-3.6303,-3.6303,-3.6303,-3.6303,-3.5862,-3.5137,-3.5137,-3.4688,-3.3788,-3.2265,-3.1604,-3.1531,-3.1531,-3.1476,-3.1384,0.0,0.0,0.0,0.0,0.0,0.0,0.0,0.5496,0.4119,0.2397,0.2174,0.1113,-0.1672,-0.212,-0.2788,-0.4181,-0.4405,-0.457,-0.4677,-0.5492,-0.6234,-0.6847,-0.8074,-0.9493,-1.1078,-1.2137,-1.3116,-1.3974,-1.4746,-1.5177,-1.5167,-1.5352,-1.57,-1.6265,-1.57,-1.614,-1.7413,-1.7413,-1.7797,-1.8555,-1.915,-1.9044,-1.8436,-1.7852,-1.7578,-1.7578,-1.7413,-1.7202,-1.709,-1.8112,-1.8661,-1.9085,-2.0232,-2.0597,0.0,0.0,0.0,0.0,0.0,0.0,0.0,0.0,0.0,0.0,0.0,0.0,0.0,0.0,0.0,0.0,0.0,0.0,0.0,-2.6624,-2.6691,-2.6691,-2.6691,-2.7215,-2.7604,-2.7604,-2.7688,-2.8096,-2.883,-2.9265,-2.9865,-3.0676,-3.1055,-3.2041,-3.3942,-3.4045,0.0,-3.5789,-3.5973,-3.6046,-3.6046,-3.6211,-3.6303,-3.6303,0.0,0.0,-3.6303,-3.6303,-3.6303,-3.6303,-3.6303,-3.6193,-3.6046,-3.6046,-3.555,-3.4688,-3.3715,-3.2944,-3.2375,-3.2375,-3.1953,-3.1384,0.0,0.0,0.0,0.0,0.0,0.0,0.0,0.5391,0.3959,0.2397,0.2174,0.1338,-0.0838,-0.1786,-0.2508,-0.3289,-0.434,-0.5003,-0.5003,-0.5977,-0.6949,-0.7821,-0.8661,-1.0096,-1.2114,-1.2728,-1.3606,-1.4805,-1.5167,-1.541,-1.541,-1.541,-1.5584,-1.5921,-1.5584,-1.6026,-1.709,-1.7468,-1.8015,-1.8715,-1.9097,-1.9254,-1.9202,-1.8821,-1.8715,-1.8661,-1.8274,-1.8167,-1.8232,-1.8555,-1.8939,-1.9359,-2.0093,-2.0295,-2.0497,0.0,0.0,0.0,0.0,0.0,0.0,0.0,0.0,0.0,0.0,0.0,0.0,0.0,0.0,-2.5373,0.0,0.0,-2.6156,-2.6624,-2.6691,-2.6826,-2.7199,-2.7588,-2.7789,-2.7789,-2.8465,-2.9202,-2.9778,-3.0351,-3.1063,-3.2091,-3.2598,-3.3472,-3.4866,-3.5224,-3.5622,-3.6285,-3.6425,-3.6485,-3.6485,-3.6916,-3.7116,-3.7098,-3.7387,-3.7496,-3.7496,-3.7496,-3.7496,-3.7496,-3.7496,-3.7276,-3.6853,-3.6468,-3.6046,-3.5624,-3.522,-3.4284,-3.3201,-3.3201,-3.2944,-3.2596,0.0,0.0,0.0,0.0,0.0,0.0,0.0,0.5496,0.4177,0.2619,0.2286,0.1618,0.0168,-0.1173,-0.212,-0.2397,-0.4326,-0.5487,-0.5487,-0.674,-0.7819,-0.8515,-0.9118,-1.0557,-1.2893,-1.2976,-1.3795,-1.541,-1.541,-1.541,-1.541,-1.541,-1.5468,-1.5584,-1.5468,-1.5921,-1.6765,-1.7191,-1.7797,-1.8501,-1.8501,-1.8927,-1.9592,-1.9592,-1.9592,-1.9527,-1.8927,-1.9097,-1.9527,-1.9097,-1.9319,-1.9798,-1.9798,-1.9798,-1.9952,-2.0597,-2.121,0.0,0.0,0.0,0.0,0.0,0.0,0.0,0.0,0.0,-2.4736,-2.5357,-2.5486,-2.5635,-2.6068,-2.6156,-2.6262,-2.6624,-2.6826,-2.7131,-2.7705,-2.8043,-2.8264,-2.8264,-2.9347,-3.0275,-3.0765,-3.1455,-3.2293,-3.3265,-3.3997,-3.4742,-3.5547,-3.6009,-3.6383,-3.6607,-3.6714,-3.6854,-3.6922,-3.7587,-3.7946,-3.8065,-3.8496,-3.8707,-3.8707,-3.8707,-3.8707,-3.8707,-3.8578,-3.818,-3.7522,-3.6772,-3.6377,-3.6231,-3.6231,-3.5301,-3.397,-3.4028,-3.3935,-3.3807,0.0,0.0,0.0,0.0,0.0,0.0,0.0,0.0,0.4882,0.3453,0.2621,0.1616,0.0167,-0.0725,-0.1786,-0.3121,-0.4663,-0.5487,-0.5487,-0.6253,-0.7192,-0.8196,-0.8549,-0.9976,-1.258,-1.2904,-1.3795,-1.541,-1.541,-1.541,-1.541,-1.541,-1.5748,-1.6379,-1.569,-1.6187,-1.7413,-1.6866,-1.7034,-1.7743,-1.7743,-1.8167,-1.8821,-1.8821,-1.8821,-1.8821,-1.8715,-1.8768,-1.8927,-1.9475,-1.9747,-1.9798,-1.9798,-1.9798,-1.9952,-2.0597,-2.121,-2.1852,-2.2498,-2.3143,0.0,-2.3595,-2.3595,-2.3879,0.0,0.0,-2.5357,-2.635,-2.6539,-2.6539,-2.6624,-2.6624,-2.6624,-2.6691,-2.7249,-2.7688,-2.7772,-2.8991,-2.9854,-2.9854,-3.0006,-3.0362,-3.1065,-3.1794,-3.2292,-3.2457,-3.3567,-3.4738,-3.5864,-3.599,-3.6541,-3.769,-3.7345,-3.7345,-3.7767,-3.7857,-3.815,-3.8627,-3.8658,-3.8707,-3.8707,-3.8707,-3.8707,-3.8658,-3.8183,-3.7925,-3.7801,-3.7327,-3.6647,-3.5954,-3.5954,-3.5403,-3.462,-3.4805,-3.4412,-3.3807,0.0,0.0,0.0,0.0,0.0,0.0,0.0,0.0,0.0,0.3508,0.2676,0.1783,0.0781,-0.0391,-0.173,-0.3231,-0.3895,-0.4827,-0.6036,-0.6421,-0.7236,-0.8719,-0.9055,-1.0086,-1.1803,-1.2578,-1.3545,-1.4688,-1.5167,-1.541,-1.541,-1.541,-1.5584,-1.5864,-1.5526,-1.5748,-1.6358,-1.6425,-1.6652,-1.6978,-1.6978,-1.7688,-1.8608,-1.7743,-1.795,-1.8768,-1.9202,-1.9359,0.0,-1.9695,-1.9798,-1.9798,-1.9798,-1.9798,-1.985,-2.0156,-2.0904,-2.1932,-2.295,0.0,0.0,0.0,-2.3595,-2.3794,-2.4552,-2.4736,-2.4934,-2.5672,-2.6068,-2.6297,-2.6297,-2.6521,-2.6843,0.0,-2.7621,-2.8093,-2.9025,-2.9702,-3.026,-3.0683,-3.1123,-3.1495,-3.1799,-3.2104,-3.2645,-3.3508,-3.4352,-3.5253,-3.6182,-3.6526,-3.693,-3.747,-3.7285,-3.7285,-3.7506,-3.7506,-3.7738,-3.8216,-3.8216,-3.8382,-3.8707,-3.8382,-3.8083,-3.7826,-3.7596,-3.7506,-3.747,-3.7285,-3.6978,-3.6677,-3.6677,-3.6145,-3.5385,-3.5331,-3.4599,-3.3741,0.0,0.0,0.0,0.0,0.0,0.0,0.0,0.0,0.0,0.0,0.3118,0.2174,0.1229,-0.0223,-0.1619,-0.2899,-0.3395,-0.444,-0.6204,-0.6312,-0.7035,-0.8715,-0.8884,-0.9673,-1.1129,-1.2067,-1.2962,-1.3855,-1.4688,-1.505,-1.505,-1.5294,-1.541,-1.541,-1.541,-1.541,-1.541,-1.5979,-1.6208,-1.6208,-1.6208,-1.6968,-1.7961,-1.6922,-1.7302,-1.8447,-1.898,-1.9307,-1.9475,-1.9475,-1.9631,-1.9798,-1.9798,-1.9798,-1.9798,-1.9798,-2.0706,-2.1979,-2.326,0.0,0.0,-2.3595,-2.3595,-2.3767,-2.4266,-2.4389,-2.4552,-2.5105,-2.5615,-2.5961,-2.5815,-2.628,-2.6911,-2.7513,-2.7887,-2.8602,-2.9922,-3.0294,-3.0598,-3.114,-3.1833,-3.2357,-3.256,-3.278,-3.3339,-3.4404,-3.5194,-3.5827,-3.6381,-3.6764,-3.6999,-3.6999,-3.6843,-3.6904,-3.719,-3.7058,-3.7285,-3.7893,-3.7755,-3.7911,-3.8285,-3.7877,-3.7506,-3.7173,-3.702,-3.6999,-3.696,-3.6825,-3.6746,-3.6746,-3.6746,-3.6357,-3.5819,-3.5794,-3.4977,-3.3969,0.0,0.0,0.0,0.0,0.0,0.0,0.0,0.0,0.0,0.0,0.0,0.0,0.0,-0.0223,-0.1396,-0.2174,-0.355,-0.4703,-0.5483,-0.5538,-0.6195,-0.7681,-0.7366,-0.833,-1.0857,-1.118,-1.1924,-1.307,-1.3846,-1.4273,-1.4264,-1.505,-1.541,-1.541,-1.541,-1.541,-1.541,-1.541,-1.541,-1.541,-1.541,-1.5864,-1.6539,-1.6549,-1.6978,-1.7633,-1.7688,-1.8124,-1.8715,-1.8715,-1.9202,-1.9798,-1.9798,-1.9798,-1.9798,-1.9798,-2.0706,-2.1979,-2.326,0.0,-2.3595,-2.3595,-2.3595,-2.3767,-2.4266,-2.4389,-2.4552,-2.5105,-2.5615,-2.5852,-2.5335,-2.6052,-2.6791,-2.7061,-2.8142,-2.9211,-2.9989,-3.0717,-3.1173,-3.119,-3.1833,-3.256,0.0,-3.4015,-3.4438,-3.4489,-3.565,-3.6399,-3.6374,-3.6416,-3.6416,-3.6416,-3.5941,-3.6165,-3.7173,-3.6684,-3.6904,-3.7893,-3.7433,-3.721,-3.7248,-3.7228,-3.721,-3.7173,-3.6643,-3.6416,-3.6374,-3.5854,-3.5667,-3.5667,-3.5667,-3.5633,-3.5661,-3.6197,-3.5675,-3.4677,0.0,0.0,0.0,0.0,0.0,0.0,0.0,0.0,0.0,0.0,0.0,0.0,0.0,0.0,0.0,0.0,-0.2393,-0.344,-0.4703,-0.5206,-0.5923,-0.6912,-0.7527,-0.8336,-0.935,-1.063,-1.1616,-1.2205,-1.3537,-1.4213,-1.4213,-1.4991,-1.541,-1.541,-1.541,-1.541,-1.541,-1.541,-1.541,-1.541,-1.541,-1.5864,-1.6436,-1.5979,-1.6255,-1.681,0.0,-1.6912,-1.8058,-1.8555,-1.8874,-1.915,-1.9643,-1.9798,-1.9901,-2.0346,-2.1051,-2.1899,-2.277,0.0,-2.3595,-2.3595,-2.3595,-2.3638,-2.3837,-2.3879,-2.3921,-2.4116,-2.4592,-2.4855,-2.4697,-2.5243,-2.6026,-2.7089,-2.7931,-2.8893,-3.0085,-3.0767,-3.119,-3.119,-3.2273,0.0,0.0,0.0,0.0,-3.5199,-3.5647,-3.5854,-3.5854,-3.5854,-3.5854,-3.5854,-3.6054,-3.6291,-3.6661,-3.6498,-3.6764,-3.7433,-3.7303,-3.702,-3.6684,-3.6684,-3.6498,-3.6122,-3.5941,-3.5854,-3.5871,-3.565,-3.5622,-3.5622,-3.5622,-3.5622,-3.5622,-3.581,-3.5643,-3.528,0.0,0.0,0.0,0.0,0.0,0.0,0.0,0.0,0.0,0.0,0.0,0.0,0.0,0.0,0.0,0.0,0.0,-0.2728,-0.3938,-0.4718,-0.5437,-0.6204,-0.7109,-0.7909,-0.8604,-1.001,-1.0912,-1.1344,-1.2687,-1.3476,-1.3795,-1.4569,-1.5108,-1.541,-1.541,-1.541,-1.541,-1.541,-1.541,-1.541,-1.541,-1.569,-1.6036,-1.5584,-1.569,0.0,-1.5584,-1.6026,-1.6912,-1.7677,-1.8112,-1.8394,-1.8874,-1.9202,-1.9567,-2.0547,-2.121,-2.1852,-2.2498,-2.3143,-2.3595,-2.3595,-2.3595,-2.3595,-2.3595,-2.3595,-2.3595,-2.3595,-2.4032,-2.4348,-2.4158,-2.4697,-2.5511,-2.6513,-2.7324,-2.8371,-2.9749,-3.0492,-3.0975,-3.119,-3.251,0.0,0.0,0.0,0.0,-3.5588,-3.5622,-3.5622,-3.5622,-3.5622,-3.5622,-3.5622,-3.5941,-3.6224,-3.6374,-3.6224,-3.6291,-3.6643,-3.6643,-3.644,-3.6097,-3.6097,-3.5941,-3.5622,-3.5622,-3.5622,-3.5622,-3.5622,-3.5622,-3.5622,-3.5622,-3.5622,-3.5622,-3.5622,-3.5622,-3.5582,0.0,0.0,0.0,0.0,0.0,0.0,0.0,0.0,0.0,0.0,0.0,0.0,0.0,0.0,0.0,0.0,0.0,0.0,-0.3121,-0.3956,-0.4732,-0.5378,-0.6145,-0.7118,-0.8457,-0.9195,-0.99,-1.0534,-1.1337,-1.2143,-1.2948,-1.3786,-1.4569,-1.5294,-1.5294,-1.5294,-1.5294,-1.5294,-1.5294,-1.5294,-1.5294,-1.5294,-1.5294,-1.5294,-1.5352,-1.5352,-1.5352,-1.5352,-1.5468,-1.6265,-1.7034,-1.7688,-1.7688,-1.8167,-1.9032,-2.0383,-2.121,-2.1852,-2.2452,-2.3054,-2.3551,-2.3551,-2.3551,-2.3551,-2.3595,-2.3595,-2.3595,-2.3595,-2.3991,-2.4184,0.0,0.0,-2.5171,-2.5446,-2.6425,-2.7669,-2.9026,-2.9815,-3.0468,0.0,0.0,0.0,0.0,0.0,0.0,-3.5622,0.0,-3.5622,-3.5622,-3.5622,-3.5622,-3.5622,-3.5656,-3.5922,-3.6402,-3.5922,-3.5656,-3.5622,-3.5622,-3.5622,-3.5622,-3.5622,-3.5622,-3.5622,-3.5622,-3.5622,-3.5622,-3.5622,-3.5622,-3.5622,-3.5622,-3.5622,-3.5622,-3.5622,-3.5622,-3.5622,0.0,0.0,0.0,0.0,0.0,0.0,0.0,0.0,0.0,0.0,0.0,0.0,0.0,0.0,0.0,0.0,0.0,0.0,-0.1675,-0.2899,-0.3677,-0.3837,-0.5101,-0.6041,-0.6635,-0.7502,-0.84,-0.9408,-1.0332,-1.1253,-1.2135,-1.294,-1.3425,-1.3606,-1.3606,-1.3606,-1.3606,-1.3606,-1.3606,-1.3606,-1.3606,-1.3606,-1.3666,-1.4273,-1.451,-1.451,-1.451,-1.451,-1.4688,-1.6026,0.0,0.0,0.0,-1.8939,-1.9579,-1.9952,-2.0855,-2.1663,-2.1355,-2.2081,-2.2934,-2.2934,-2.2934,-2.3054,-2.3508,-2.3595,-2.3595,-2.3595,-2.3724,-2.3752,0.0,0.0,0.0,-2.4759,-2.5453,0.0,-2.7766,-2.8897,0.0,0.0,0.0,-3.3406,-3.3406,-3.4742,0.0,0.0,-3.5622,-3.5622,-3.5622,-3.5622,-3.5622,-3.5622,-3.618,-3.6576,-3.6695,-3.6559,-3.6197,-3.5622,-3.5622,-3.5622,-3.5622,-3.5622,-3.5622,-3.5622,-3.5622,-3.5622,-3.5622,-3.5622,-3.5622,-3.5622,-3.5622,-3.5622,-3.5622,-3.5622,-3.5622,-3.5622,0.0,0.0,0.0,0.0,0.0,0.0,0.0,0.0,0.0,0.0,0.0,0.0,0.0,0.0,0.0,0.0,0.0,0.0,0.0,-0.2174,-0.2954,-0.3345,-0.4436,-0.5341,-0.5984,-0.6881,-0.7654,-0.8342,-0.9438,-1.0372,-1.1175,-1.2066,-1.2634,-1.3009,-1.3009,-1.281,-1.2411,-1.2411,-1.2411,0.0,0.0,-1.2671,-1.307,-1.3485,-1.3906,-1.4145,-1.3786,-1.3906,-1.4323,0.0,0.0,-1.7797,-1.8124,-1.8715,-1.9359,-1.9695,0.0,-2.1245,-2.0894,-2.15,-2.2253,-2.2253,-2.2253,-2.2346,-2.2696,-2.2786,-2.2786,-2.2786,-2.2995,0.0,0.0,0.0,0.0,0.0,0.0,0.0,-2.6853,-2.7882,-2.8951,0.0,-3.1898,0.0,-3.3364,-3.4742,-3.5622,0.0,-3.5622,-3.5622,-3.5622,-3.5622,-3.5622,-3.5622,-3.6366,-3.6772,-3.6772,-3.6772,-3.64,-3.5622,-3.5622,-3.5622,-3.5622,-3.5622,-3.5622,-3.5622,0.0,-3.5622,-3.5622,-3.5622,-3.5622,-3.5622,-3.5622,-3.5622,-3.5622,-3.5622,-3.5622,-3.5622,0.0,0.0,0.0,0.0,0.0,0.0,0.0,0.0,0.0,0.0,0.0,0.0,0.0,0.0,0.0,0.0,0.0,0.0,0.0,0.0,-0.2343,-0.3065,-0.3773,-0.4612,-0.5641,-0.647,-0.7007,-0.7345,-0.8458,-0.9322,-0.9986,-1.0877,-1.1695,-1.2312,-1.2443,-1.2043,-1.1188,-1.1319,-1.1319,-1.1188,-1.1188,-1.165,-1.2373,0.0,-1.3105,-1.3648,-1.3061,-1.3364,0.0,0.0,-1.5138,-1.6595,-1.7246,-1.8015,-1.8821,-1.9475,-2.0194,-2.0795,-2.0696,-2.1113,-2.1568,-2.1568,-2.1568,-2.1615,-2.1697,-2.1697,-2.1697,-2.1697,0.0,-2.2558,-2.2558,0.0,-2.3465,-2.3465,0.0,-2.4882,-2.6086,-2.6884,-2.8005,-2.9707,-3.1281,-3.2486,-3.31,-3.4404,-3.5261,-3.5316,-3.5316,-3.5407,-3.5577,-3.5622,-3.5707,-3.5926,-3.6569,-3.6924,-3.6924,-3.6924,-3.6485,-3.5622,-3.5622,-3.5622,-3.5622,-3.5622,-3.5622,-3.5622,0.0,0.0,-3.5622,-3.5622,-3.5622,-3.5622,-3.5622,-3.5622,-3.5622,-3.5622,-3.5622,-3.5622,0.0,0.0,0.0,0.0,0.0,0.0,0.0,0.0,0.0,0.0,0.5982,0.4937,0.0,0.0,0.0,0.0,0.0,0.0,0.0,0.0,0.0,-0.1507,-0.2173,-0.3053,-0.3975,-0.4282,-0.5139,-0.6586,-0.6998,-0.7608,-0.8409,-0.8581,-0.872,-0.8913,-0.9633,-0.9436,-0.8715,-0.9436,-0.9302,-0.865,-0.865,-0.8715,-0.9035,-1.0418,0.0,0.0,-1.1819,-1.2512,-1.3191,-1.3191,-1.466,-1.6539,-1.6652,-1.7633,-1.8715,-1.8874,-1.9812,-2.0696,-2.0105,-2.0434,-2.0944,-2.0944,-2.0944,-2.1064,-2.1568,-2.1697,0.0,0.0,-2.1805,-2.1852,-2.1852,-2.2392,0.0,-2.2844,0.0,0.0,0.0,0.0,-2.7003,0.0,0.0,0.0,0.0,0.0,0.0,0.0,0.0,0.0,-3.5532,-3.5622,-3.6197,-3.7466,-3.7652,-3.7719,-3.7719,-3.7719,-3.7009,-3.5622,-3.5622,-3.5622,-3.5622,-3.5622,-3.5622,-3.5622,-3.5622,0.0,-3.5622,-3.5622,-3.5622,-3.5622,-3.5622,-3.5622,-3.5622,-3.5622,-3.5622,-3.5622,0.0,0.0,0.0,0.0,0.0,0.0,0.0,1.0152,0.9127,0.7222,0.678,0.581,0.3619,0.3345,0.2843,0.0,0.0,0.0,0.0,0.0,0.0,0.0,-0.1452,-0.2041,-0.2868,-0.3024,0.0,0.0,0.0,-0.64,-0.7158,0.0,0.0,-0.8027,-0.842,-0.8156,-0.7372,-0.7762,-0.7697,-0.7307,-0.7307,-0.7567,-0.8091,0.0,0.0,0.0,0.0,0.0,-1.2389,-1.2389,-1.3708,-1.5439,-1.6255,-1.7523,-1.8715,-1.8715,-1.9178,-1.9709,-1.9798,-1.9722,-1.9812,-2.0194,-2.0308,-2.0346,-2.0657,0.0,0.0,0.0,-2.1002,-2.1245,-2.1245,0.0,0.0,0.0,0.0,0.0,0.0,0.0,0.0,0.0,0.0,0.0,0.0,0.0,0.0,0.0,0.0,0.0,-3.5052,-3.5407,-3.6146,-3.728,-3.733,-3.733,-3.733,-3.733,-3.6755,-3.5622,-3.5622,-3.5622,-3.5622,-3.5622,-3.5622,-3.5622,-3.5622,0.0,-3.5622,-3.5622,-3.5622,-3.5622,-3.5622,-3.5622,-3.5622,-3.5622,-3.5622,-3.5622,0.0,0.0,0.0,0.0,0.0,0.0,0.0,1.0137,0.9278,0.7434,0.7425,0.6716,0.4283,0.3877,0.3395,0.0,0.0,0.0,0.0,0.0,0.0,0.0,0.0,0.0,0.0,0.0,0.0,0.0,0.0,0.0,0.0,0.0,0.0,0.0,0.0,0.0,-0.6461,-0.6654,-0.6588,0.0,0.0,0.0,0.0,0.0,0.0,0.0,0.0,0.0,0.0,0.0,-1.2749,-1.4145,-1.5371,-1.689,-1.8221,-1.8221,-1.8328,-1.8608,-1.9371,-1.9044,-1.8661,-1.9371,-1.9423,-1.9371,-1.9527,-1.9579,0.0,0.0,-2.0194,-2.0597,-2.0597,0.0,0.0,0.0,0.0,0.0,0.0,0.0,0.0,0.0,0.0,0.0,0.0,0.0,0.0,0.0,0.0,0.0,-3.4576,-3.4941,-3.5669,-3.6755,-3.6505,-3.641,-3.6552,-3.6552,-3.6165,-3.5362,-3.5515,-3.5622,-3.5622,-3.5622,-3.5622,-3.5622,-3.5622,0.0,0.0,-3.5622,-3.5622,-3.5622,-3.5622,-3.5515,-3.5407,-3.556,-3.5424,-3.5207,0.0,0.0,0.0,0.0,0.0,0.0,0.0,1.0358,0.9514,0.7134,0.7156,0.6956,0.6061,0.5543,0.4772,0.0,0.0,0.0,0.0,0.0,0.0,0.0,0.0,0.0,0.0,0.0,0.0,0.0,0.0,0.0,0.0,0.0,0.0,0.0,0.0,0.0,0.0,-0.6396,0.0,0.0,0.0,0.0,0.0,0.0,0.0,0.0,0.0,0.0,0.0,0.0,0.0,-1.313,-1.3304,-1.4885,-1.6708,-1.6708,0.0,0.0,-1.8608,-1.8286,-1.7907,-1.8608,-1.8286,-1.7961,-1.8661,0.0,0.0,-1.9643,-1.985,-1.9901,-1.9901,-2.0446,-2.0894,0.0,0.0,-2.2067,0.0,0.0,0.0,0.0,0.0,0.0,0.0,0.0,0.0,0.0,0.0,0.0,0.0,-3.4087,-3.4693,-3.6755,-3.5546,-3.5175,-3.5795,-3.5795,-3.5415,-3.4688,-3.5316,-3.5622,-3.5622,-3.5622,-3.5622,-3.5622,-3.5622,0.0,0.0,-3.5622,-3.5622,-3.5622,-3.5622,-3.5207,-3.4783,-3.5362,-3.4816,-3.3887,0.0,0.0,0.0,0.0,0.0,0.0,1.111,1.1147,1.0556,0.8623,0.8612,0.8319,0.6985,0.6818,0.6244,0.4772,0.0,0.0,0.0,0.0,0.0,0.0,0.0,0.0,0.0,0.0,0.0,0.0,0.0,0.0,0.0,0.0,0.0,0.0,0.0,0.0,0.0,0.0,0.0,0.0,0.0,0.0,0.0,0.0,0.0,0.0,0.0,0.0,0.0,0.0,0.0,0.0,-1.2266,-1.3226,0.0,0.0,-1.6327,-1.709,-1.7852,-1.7523,-1.7079,-1.7852,-1.7852,-1.7688,-1.795,0.0,-1.8232,-1.8992,-1.915,-1.9254,-1.9695,-2.0003,-2.0346,-2.0746,-2.0979,0.0,0.0,0.0,0.0,0.0,0.0,0.0,0.0,0.0,0.0,0.0,0.0,0.0,0.0,-3.3547,-3.3982,-3.4841,-3.4323,-3.4169,-3.4408,-3.4424,-3.4279,-3.3987,-3.4301,-3.4399,-3.4399,-3.48,-3.48,-3.4399,-3.48,0.0,0.0,-3.4399,-3.4399,-3.4399,-3.4399,-3.4235,-3.4037,-3.4301,-3.4053,-3.3633,0.0,0.0,0.0,0.0,0.0,1.1941,1.1489,1.1468,1.0946,0.932,0.9238,0.8855,0.7524,0.7508,0.715,0.601,0.5213,0.0,0.0,0.0,0.0,0.0,0.0,0.0,0.0,0.0,0.1339,0.0801,-0.0067,0.0,0.0,0.0,0.0,0.0,0.0,0.0,0.0,0.0,0.0,0.0,0.0,0.0,0.0,0.0,0.0,0.0,0.0,0.0,0.0,0.0,0.0,0.0,0.0,-1.202,-1.2931,0.0,-1.5409,-1.6016,-1.7024,-1.6754,-1.6368,-1.709,-1.7135,-1.7024,0.0,0.0,-1.7523,-1.8489,-1.8715,-1.8939,-1.9643,-1.9798,-1.9952,-2.0459,-2.0497,-2.0943,0.0,0.0,0.0,0.0,0.0,0.0,0.0,0.0,0.0,0.0,0.0,0.0,0.0,-3.2718,-3.3182,-3.3582,-3.3182,-3.3077,-3.3287,-3.3287,-3.3287,-3.3287,-3.3495,-3.3582,-3.3649,-3.4087,-3.4037,-3.3633,0.0,0.0,0.0,-3.3582,-3.3582,-3.3582,-3.3582,-3.3495,-3.3339,-3.3547,-3.3339,-3.3024,0.0,0.0,0.0,0.0,0.0,0.0,1.1536,1.1049,1.0259,0.871,0.8415,0.8106,0.7565,0.737,0.7186,0.6815,0.6001,0.0,0.0,0.0,0.0,0.0,0.0,0.0,0.0,0.0,0.2666,0.2678,0.1742,0.1273,0.1206,0.0,0.0,0.0,0.0,0.0,0.0,0.0,0.0,0.0,0.0,0.0,0.0,0.0,0.0,0.0,0.0,0.0,0.0,0.0,0.0,0.0,0.0,-1.117,-1.2135,-1.3717,-1.4213,-1.456,-1.6083,-1.5979,-1.5584,-1.6322,-1.5979,-1.5633,0.0,0.0,-1.6922,-1.8394,-1.8715,-1.8939,-1.9643,-1.9798,-1.9798,-1.9798,-1.9798,-2.0245,0.0,0.0,0.0,0.0,0.0,0.0,0.0,0.0,0.0,0.0,0.0,0.0,0.0,-3.1524,-3.2145,-3.3531,-3.2256,-3.1853,-3.2586,-3.2586,-3.2586,-3.2641,-3.3287,-3.3582,-3.3582,-3.3582,-3.3582,0.0,0.0,0.0,0.0,-3.3582,-3.3582,-3.3582,-3.3582,-3.3182,-3.2695,-3.3339,-3.2718,-3.164,0.0,0.0,0.0,0.0,0.0,0.0,0.0,1.2301,1.1865,1.0893,1.0301,0.969,0.8901,0.8342,0.8023,0.7927,0.6886,0.0,0.0,0.0,0.0,0.0,0.0,0.0,0.0,0.3602,0.3247,0.3283,0.24,0.1896,0.1896,0.0822,0.0316,0.0,0.0,0.0,0.0,0.0,0.0,0.0,0.0,0.0,0.0,0.0,0.0,0.0,0.0,0.0,0.0,0.0,0.0,0.0,0.0,0.0,0.0,-1.2258,-1.3356,0.0,-1.4796,-1.5157,-1.5468,-1.57,-1.5584,-1.5468,-1.569,0.0,-1.6026,-1.6978,-1.7191,-1.7413,-1.8167,-1.8715,-1.9044,-1.9044,-1.9475,-2.019,0.0,0.0,0.0,0.0,0.0,0.0,0.0,0.0,0.0,0.0,0.0,0.0,0.0,-3.1482,-3.1682,-3.2145,-3.1739,-3.1582,-3.1853,-3.1853,-3.1853,-3.1853,-3.2048,-3.2145,-3.2201,-3.268,0.0,0.0,0.0,0.0,0.0,-3.2145,-3.2145,-3.2145,-3.2145,-3.2048,-3.1853,-3.2104,-3.1894,-3.1524,0.0,0.0,0.0,0.0,0.0,0.0,0.0,1.2368,1.2013,1.1354,1.0736,1.0084,0.9308,0.8736,0.833,0.8216,0.7641,0.0,0.0,0.0,0.0,0.0,0.0,0.0,0.4687,0.421,0.4037,0.4116,0.3193,0.2701,0.2701,0.1906,0.1354,0.1046,0.0062,0.0,0.0,0.0,0.0,0.0,0.0,0.0,-0.5067,0.0,0.0,0.0,0.0,0.0,0.0,0.0,0.0,0.0,0.0,0.0,0.0,0.0,-1.2258,-1.3416,0.0,-1.4569,-1.4991,-1.5294,-1.541,0.0,0.0,-1.541,-1.5584,-1.6379,-1.6492,-1.6708,-1.7468,-1.7961,-1.8394,-1.8661,-1.9097,0.0,0.0,0.0,0.0,0.0,0.0,0.0,0.0,0.0,0.0,0.0,0.0,0.0,0.0,0.0,-3.1482,-3.1482,-3.1482,-3.1482,-3.1482,-3.1482,-3.1482,-3.1482,-3.1482,-3.1482,-3.1539,-3.1951,0.0,0.0,0.0,0.0,0.0,-3.1482,-3.1482,-3.1482,-3.1482,-3.1482,-3.1482,-3.1482,-3.1482,-3.1482,0.0,0.0,0.0,0.0,0.0,0.0,0.0,1.1459,1.1036,1.0511,1.0076,0.9592,0.9042,0.8693,0.8313,0.7989,0.0,0.0,0.0,0.0,0.0,0.0,0.0,0.0,0.4731,0.4813,0.4887,0.4887,0.4088,0.3661,0.3661,0.2745,0.1893,0.1284,0.1223,0.0306,-0.116,-0.1954,-0.2745,-0.3447,-0.3513,-0.4062,0.0,0.0,0.0,0.0,0.0,0.0,0.0,0.0,0.0,0.0,0.0,0.0,0.0,0.0,0.0,0.0,0.0,-1.4085,-1.4332,0.0,0.0,0.0,0.0,0.0,0.0,-1.6265,-1.6436,-1.6652,-1.7302,-1.7468,-1.7743,-1.8436,-1.8608,0.0,0.0,0.0,0.0,0.0,0.0,0.0,0.0,0.0,0.0,0.0,0.0,0.0,0.0,0.0,-3.1482,-3.1482,-3.1482,-3.1482,-3.1482,-3.1482,-3.1482,-3.1482,-3.1482,-3.1482,-3.1482,-3.1482,0.0,0.0,0.0,0.0,0.0,-3.1482,-3.1482,-3.1482,-3.1482,-3.1482,-3.1482,-3.1482,-3.1482,-3.1482,0.0,0.0,0.0,0.0,0.0,0.0,0.0,0.0,0.0,0.0,1.0615,1.0318,0.9683,0.934,0.8919,0.0,0.0,0.0,0.0,0.0,0.0,0.0,0.0,0.0,0.457,0.4551,0.4568,0.4568,0.4395,0.4282,0.4282,0.348,0.3024,0.274,0.217,0.1428,0.0515,-0.0284,-0.1018,-0.1755,-0.2496,-0.3287,0.0,0.0,0.0,0.0,-0.5428,-0.5947,0.0,0.0,0.0,0.0,0.0,0.0,0.0,0.0,-1.0744,-1.1108,-1.2074,0.0,-1.3485,-1.4273,-1.451,-1.4628,0.0,0.0,0.0,0.0,0.0,0.0,0.0,-1.6368,-1.6821,-1.6978,-1.7961,0.0,0.0,0.0,0.0,0.0,0.0,0.0,0.0,0.0,0.0,0.0,0.0,0.0,0.0,0.0,-3.1482,-3.1482,-3.1482,-3.1482,-3.1482,-3.1482,-3.1482,-3.1482,-3.1482,-3.1482,-3.1482,-3.1482,0.0,0.0,0.0,0.0,-3.1482,-3.1482,-3.1482,-3.1482,-3.1482,-3.1482,-3.1482,-3.1482,-3.1482,-3.1482,0.0,0.0,0.0,0.0,0.0,0.0,0.0,0.0,0.0,0.0,0.0,0.0,0.0,0.0,0.0,0.0,0.0,0.0,0.0,0.0,0.0,0.0,0.0,0.552,0.4515,0.4519,0.4519,0.4519,0.4519,0.4519,0.4519,0.407,0.368,0.3287,0.2508,0.1786,0.1062,0.0671,-0.0112,-0.1119,-0.1651,0.0,0.0,0.0,0.0,0.0,-0.5335,-0.5686,0.0,-0.7116,-0.7962,-0.8807,0.0,0.0,0.0,0.0,-1.0301,-1.0681,-1.1108,-1.1841,-1.2634,-1.3425,-1.3674,-1.3786,-1.4213,0.0,0.0,0.0,0.0,0.0,0.0,0.0,0.0,0.0,0.0,0.0,0.0,0.0,0.0,0.0,0.0,0.0,0.0,0.0,0.0,0.0,0.0,0.0,0.0,0.0,-3.1087,-3.1482,-3.1482,-3.1482,-3.1482,-3.1482,-3.1482,-3.1482,-3.1482,-3.1482,-3.1482,-3.1482,-3.1482,0.0,0.0,0.0,-3.1482,-3.1482,-3.1482,-3.1482,-3.1482,-3.1482,-3.1482,-3.1482,-3.1482,-3.1482,0.0,0.0,0.0,0.0,0.0,0.0,0.0,0.0,0.0,0.0,0.0,0.0,0.0,0.0,0.0,0.0,0.0,0.0,0.0,0.0,0.0,0.0,0.5703,0.5075,0.4515,0.4519,0.4519,0.4519,0.4519,0.4519,0.4519,0.4519,0.4125,0.3456,0.2674,0.2009,0.1452,0.1174,0.0391,-0.0782,-0.1006,0.0,0.0,0.0,0.0,0.0,0.0,0.0,0.0,-0.6388,-0.7177,-0.7832,-0.7962,0.0,0.0,0.0,0.0,0.0,-1.0561,-1.1108,-1.1834,-1.2634,-1.2777,-1.2813,-1.3114,0.0,0.0,0.0,0.0,0.0,0.0,0.0,0.0,0.0,0.0,0.0,0.0,0.0,0.0,0.0,0.0,0.0,0.0,0.0,0.0,0.0,0.0,0.0,0.0,0.0,0.0,-3.1278,-3.1351,-3.1409,-3.1482,-3.1482,-3.1482,-3.1482,-3.1482,-3.1482,-3.1482,-3.1482,-3.1482,0.0,0.0,0.0,-3.1482,-3.1482,-3.1482,-3.1482,-3.1482,-3.1482,-3.1482,-3.1482,-3.1482,-3.1482,0.0,0.0,0.0,0.0,0.0,0.0,0.0,0.0,0.0,0.0,0.0,0.0,0.0,0.0,0.0,0.0,0.0,0.0,0.0,0.0,0.0,0.5514,0.549,0.514,0.4515,0.4519,0.4519,0.4519,0.4519,0.4519,0.4519,0.4519,0.4408,0.4294,0.3511,0.3121,0.2954,0.1675,0.095,0.067,-0.0614,0.0,0.0,0.0,0.0,0.0,0.0,0.0,0.0,-0.6343,-0.6785,-0.7046,-0.7762,0.0,0.0,0.0,0.0,0.0,-1.0428,-1.0681,-1.0989,-1.1772,-1.1798,-1.2019,-1.3647,0.0,0.0,0.0,0.0,0.0,0.0,0.0,0.0,0.0,0.0,0.0,0.0,0.0,0.0,0.0,0.0,0.0,0.0,0.0,0.0,0.0,0.0,0.0,0.0,0.0,0.0,-3.045,-3.0464,-3.0837,-3.1482,-3.1482,-3.1482,-3.1482,-3.1482,-3.1482,-3.1482,-3.1482,-3.1482,0.0,0.0,-3.1482,-3.1482,-3.1482,-3.1482,-3.1482,-3.1482,-3.1482,-3.1482,-3.1482,-3.1482,-3.1482,0.0,0.0,0.0,0.0,0.0,0.0,0.0,0.0,0.0,0.0,0.0,0.0,0.0,0.0,0.0,0.0,0.0,0.0,0.0,0.0,0.5378,0.5567,0.5182,0.4842,0.4519,0.4519,0.4519,0.4519,0.4519,0.4519,0.4519,0.4519,0.4519,0.4463,0.4125,0.3735,0.3345,0.2621,0.184,0.1062,0.0,0.0,0.0,0.0,0.0,0.0,0.0,0.0,0.0,0.0,-0.6113,-0.6506,-0.6446,0.0,0.0,0.0,0.0,0.0,-0.9786,-1.0121,-1.0478,-1.1003,-1.1352,-1.1943,-1.3262,0.0,0.0,0.0,0.0,0.0,0.0,0.0,0.0,0.0,0.0,0.0,0.0,0.0,0.0,0.0,0.0,0.0,0.0,0.0,0.0,0.0,0.0,0.0,0.0,0.0,0.0,0.0,-3.0072,-3.0269,-3.0133,-3.0644,-3.1087,-3.1482,-3.1482,-3.1482,-3.1482,-3.1482,-3.1482,-3.1482,0.0,-3.1482,-3.1482,-3.1482,-3.1482,-3.1482,-3.1482,-3.1219,-3.0837,-3.0837,-3.0837,-3.0778,0.0,0.0,0.0,0.0,0.0,0.0,0.0,0.0,0.0,0.0,0.0,0.0,0.0,0.0,0.0,0.0,0.0,0.0,0.0,0.6261,0.5893,0.5942,0.5161,0.4663,0.4412,0.4498,0.4484,0.4358,0.4484,0.4519,0.4519,0.4519,0.4519,0.4519,0.4519,0.4181,0.3624,0.34,0.2565,0.134,0.0,0.0,0.0,0.0,0.0,0.0,0.0,0.0,0.0,0.0,0.0,0.0,0.0,0.0,0.0,-0.7111,-0.7827,-0.8812,-0.921,-0.9568,-1.0082,-1.0746,-1.1114,-1.1682,0.0,0.0,0.0,0.0,0.0,0.0,0.0,0.0,0.0,0.0,0.0,0.0,0.0,0.0,0.0,0.0,0.0,0.0,0.0,0.0,0.0,0.0,0.0,0.0,0.0,0.0,0.0,-2.8684,-2.9317,-2.9442,-2.9002,-2.9628,-3.0329,-3.0896,-3.0896,-3.0896,-3.0896,-3.0896,-3.1029,-3.1219,-3.1219,-3.1219,-3.1219,-3.1219,-3.1219,-3.1219,-3.097,-3.0437,-2.9768,-2.9625,-2.9628,-2.9557,0.0,0.0,0.0,0.0,0.0,0.0,0.0,0.0,0.0,0.0,0.0,0.0,0.0,0.0,0.0,0.0,0.0,0.0,0.0,0.6223,0.6115,0.6319,0.5757,0.5039,0.4214,0.4395,0.4328,0.4053,0.4328,0.4519,0.4519,0.4519,0.4519,0.4519,0.4519,0.446,0.4349,0.368,0.2899,0.2063,0.1396,0.0,0.0,0.0,0.0,0.0,0.0,0.0,0.0,0.0,0.0,0.0,0.0,0.0,-0.5885,-0.7442,-0.7437,-0.7242,-0.8877,-0.932,-0.9755,-1.1329,-1.0944,-1.0695,-1.257,-1.307,0.0,-1.4991,0.0,0.0,0.0,0.0,0.0,0.0,0.0,0.0,0.0,0.0,0.0,0.0,0.0,0.0,0.0,0.0,0.0,0.0,0.0,0.0,0.0,0.0,0.0,-2.7802,-2.7855,-2.8247,-2.9002,-2.9066,-2.9129,-2.9192,-2.9192,-2.9192,-2.9192,-2.9192,-2.9628,-3.0389,-3.0389,-3.0389,-3.0389,-3.0389,-3.0389,-3.0329,-2.9504,-2.8844,-2.8274,-2.7736,-2.7527,-2.7513,0.0,0.0,0.0,0.0,0.0,0.0,0.0,0.0,0.0,0.0,0.0,0.0,0.0,0.0,0.0,0.0,0.0,0.0,0.0,0.6742,0.6662,0.6968,0.6033,0.5296,0.4871,0.4656,0.4362,0.411,0.4362,0.4519,0.4519,0.4519,0.4519,0.4519,0.4519,0.4519,0.4463,0.4184,0.3624,0.2899,0.212,0.1172,0.0,0.0,0.0,0.0,0.0,0.0,0.0,0.0,-0.4799,-0.5061,-0.5366,-0.5417,-0.5561,-0.621,-0.692,-0.7632,-0.8291,-0.9262,-1.0231,-1.0926,-1.0718,0.0,0.0,-1.3734,-1.4085,-1.5167,-1.541,0.0,0.0,0.0,0.0,0.0,0.0,0.0,0.0,0.0,0.0,0.0,0.0,0.0,0.0,0.0,0.0,0.0,0.0,0.0,0.0,0.0,0.0,-2.587,-2.6412,-2.6604,-2.6425,-2.6907,-2.6907,-2.6425,-2.7835,-2.829,-2.7917,-2.7917,-2.8098,-2.8457,-2.8457,-2.8457,-2.8457,-2.8457,-2.8457,-2.8338,-2.7503,-2.7366,-2.7543,-2.6843,-2.6533,-2.6479,0.0,0.0,0.0,0.0,0.0,0.0,0.0,0.0,0.0,0.0,0.0,0.0,0.0,0.0,0.0,0.0,0.0,0.0,0.7595,0.7449,0.7431,0.7768,0.6764,0.6153,0.6,0.5242,0.4581,0.4123,0.4324,0.4419,0.4519,0.4519,0.4519,0.4519,0.4519,0.4519,0.4519,0.4519,0.407,0.3345,0.2788,0.2009,0.0,0.0,0.0,0.0,0.0,0.0,0.0,0.0,-0.4518,-0.461,-0.5136,-0.5143,-0.5094,-0.5668,-0.6662,-0.7632,-0.7897,-0.9064,-1.0238,-1.0561,0.0,0.0,-1.3304,-1.3846,-1.4145,-1.5167,-1.541,0.0,0.0,0.0,0.0,0.0,0.0,0.0,0.0,0.0,0.0,0.0,0.0,0.0,0.0,0.0,0.0,0.0,0.0,0.0,0.0,0.0,0.0,0.0,-2.5358,-2.5421,-2.482,-2.5421,-2.5331,-2.4569,-2.6139,-2.6748,-2.6519,-2.6519,-2.6627,-2.6927,-2.6927,-2.6927,-2.6927,-2.6927,-2.6748,-2.6432,-2.6028,-2.6008,-2.6163,-2.5398,-2.5162,-2.5097,0.0,0.0,0.0,0.0,0.0,0.0,0.0,0.0,0.0,0.0,0.0,0.0,0.0,0.0,0.0,0.0,0.0,0.0,0.7868,0.821,0.8504,0.8791,0.8103,0.7652,0.7494,0.6192,0.4998,0.4022,0.4123,0.4324,0.4519,0.4519,0.4519,0.4519,0.4519,0.4519,0.4519,0.4519,0.4015,0.3345,0.34,0.251,0.1061,0.0,0.0,0.0,0.0,0.0,0.0,0.0,-0.4106,-0.3884,-0.562,-0.5178,-0.4379,-0.614,-0.6719,-0.6915,-0.7762,-0.8613,-0.953,0.0,0.0,0.0,-1.2642,-1.3009,-1.3433,-1.505,0.0,-1.541,0.0,0.0,0.0,0.0,0.0,0.0,0.0,0.0,0.0,0.0,0.0,0.0,0.0,0.0,0.0,0.0,0.0,0.0,0.0,0.0,0.0,0.0,-2.4808,-2.4808,-2.4808,-2.4808,-2.4531,-2.3991,-2.3991,-2.428,-2.4808,-2.4808,-2.5281,-2.6056,-2.6056,-2.6056,-2.6056,-2.6056,-2.5584,-2.4809,-2.5105,-2.4715,-2.3916,-2.3339,-2.3078,-2.3078,0.0,0.0,0.0,0.0,0.0,0.0,0.0,0.0,0.0,0.0,0.0,0.0,0.0,0.0,0.0,0.0,0.0,0.0,0.821,0.8323,0.8504,0.8791,0.8103,0.7688,0.7658,0.6215,0.5112,0.4331,0.4379,0.4423,0.4519,0.4519,0.4519,0.4519,0.4519,0.4519,0.4519,0.4519,0.4349,0.407,0.3566,0.3065,0.2508,0.0,0.0,0.0,0.0,0.0,0.0,0.0,0.0,0.0,-0.42,-0.4183,-0.4235,-0.524,-0.6104,-0.6915,-0.7762,-0.8613,0.0,0.0,0.0,0.0,0.0,-1.2143,0.0,0.0,0.0,0.0,0.0,0.0,0.0,0.0,0.0,0.0,0.0,0.0,0.0,0.0,0.0,0.0,0.0,0.0,0.0,0.0,0.0,0.0,0.0,0.0,0.0,0.0,-2.3566,-2.3566,-2.3566,-2.3566,-2.3552,-2.3389,-2.3389,-2.3477,-2.3566,-2.3566,-2.375,-2.3968,-2.3968,-2.3968,-2.3968,-2.3968,-2.386,-2.3615,-2.3669,-2.3546,-2.3376,-2.3201,-2.3078,-2.3078,0.0,0.0,0.0,0.0,0.0,0.0,0.0,0.0,0.0,0.0,1.0,0.0,0.0,0.0,0.0,0.0,0.0,0.0,0.0,0.8484,0.8624,0.8798,0.8374,0.7996,0.7723,0.6848,0.5873,0.4893,0.4625,0.4519,0.4519,0.4519,0.4519,0.4519,0.4519,0.4519,0.4519,0.4519,0.4519,0.446,0.3956,0.3622,0.3234,0.0,0.0,0.0,0.0,0.0,0.0,0.0,0.0,0.0,-0.3023,-0.3308,-0.3736,-0.4852,-0.6177,-0.7437,-0.8291,0.0,0.0,0.0,0.0,0.0,0.0,0.0,0.0,0.0,0.0,0.0,0.0,0.0,0.0,0.0,0.0,0.0,0.0,0.0,0.0,0.0,0.0,0.0,0.0,0.0,0.0,0.0,0.0,0.0,0.0,0.0,0.0,0.0,-2.2944,-2.3078,-2.3078,-2.3078,-2.3078,-2.3078,-2.3078,-2.3078,-2.3078,-2.3078,-2.3078,-2.3078,-2.3078,-2.3078,-2.3078,-2.3078,-2.3078,-2.3078,-2.3078,-2.3078,-2.3078,-2.3078,-2.3078,-2.3078,0.0,0.0,0.0,0.0,0.0,0.0,0.0,0.0,0.0,0.0,0.9542,0.9418,0.0,0.0,0.0,0.0,0.0,0.0,0.0,0.8657,0.8804,0.8804,0.8804,0.848,0.7723,0.7723,0.7015,0.5597,0.4897,0.457,0.4519,0.4519,0.4519,0.4519,0.4532,0.4539,0.4539,0.4553,0.456,0.456,0.456,0.4101,0.353,0.337,0.0,0.0,0.0,0.0,0.0,0.0,0.0,0.0,-0.2114,-0.2463,-0.2931,-0.4643,-0.6363,-0.7957,-0.8941,0.0,0.0,0.0,0.0,0.0,0.0,0.0,0.0,0.0,0.0,0.0,0.0,0.0,0.0,0.0,0.0,0.0,0.0,0.0,0.0,0.0,0.0,0.0,0.0,0.0,0.0,0.0,0.0,0.0,0.0,0.0,0.0,0.0,-2.2628,-2.3017,-2.3078,-2.3078,-2.3078,0.0,-2.3078,-2.3078,-2.3078,-2.3078,-2.3078,-2.3078,-2.3078,-2.3078,-2.3078,-2.3078,-2.3078,-2.3078,-2.3078,-2.3078,-2.3078,-2.3078,-2.3078,-2.3078,0.0,0.0,0.0,0.0,0.0,0.0,0.0,0.0,0.0,0.0,0.0,0.0,0.0,0.0,0.0,0.0,0.0,0.0,0.0,0.8771,0.8804,0.8804,0.8804,0.848,0.7723,0.7723,0.7289,0.6367,0.5655,0.5003,0.4519,0.4519,0.4519,0.4522,0.4589,0.4643,0.465,0.4769,0.4819,0.4819,0.4819,0.4631,0.4362,0.3878,0.2964,0.0,0.0,0.0,0.0,0.0,0.0,0.0,-0.1348,-0.1502,-0.1916,-0.3606,-0.4977,-0.6244,-0.7827,-0.8941,0.0,0.0,0.0,0.0,0.0,0.0,0.0,0.0,0.0,0.0,0.0,0.0,0.0,0.0,0.0,0.0,0.0,0.0,0.0,0.0,0.0,0.0,0.0,0.0,0.0,0.0,0.0,0.0,0.0,0.0,0.0,-2.1877,-2.2063,-2.2445,-2.3065,-2.3078,-2.3078,0.0,-2.3078,-2.3078,-2.3078,-2.3078,-2.3078,-2.3078,-2.3078,-2.3078,-2.3078,-2.3078,-2.3078,-2.3078,-2.3078,-2.3078,-2.3078,-2.3078,-2.3078,-2.3078,0.0,0.0,0.0,0.0,0.0,0.0,0.0,0.0,0.0,0.0,0.0,0.0,0.0,0.0,0.0,0.0,0.0,0.0,0.0,0.0,0.8804,0.8804,0.8804,0.8646,0.8209,0.8209,0.7883,0.7128,0.6362,0.5823,0.55,0.5167,0.5049,0.5133,0.4826,0.4731,0.4806,0.4884,0.4918,0.4918,0.4918,0.487,0.475,0.446,0.3527,0.2284,0.1956,0.0,0.0,0.0,0.0,0.0,0.0,0.0,-0.1549,-0.2862,-0.4213,-0.5716,-0.7474,0.0,0.0,0.0,0.0,0.0,0.0,0.0,0.0,0.0,0.0,0.0,0.0,0.0,0.0,0.0,0.0,0.0,0.0,0.0,0.0,0.0,0.0,0.0,0.0,0.0,0.0,0.0,0.0,0.0,0.0,-1.9497,-2.0204,-2.0655,-2.1037,-2.1491,-2.1928,-2.1928,-2.1928,-2.1928,-2.1928,-2.1928,-2.1928,-2.275,-2.3078,-2.3078,-2.3078,-2.3078,-2.3078,-2.3078,-2.3078,-2.3078,-2.3078,-2.3078,-2.3078,-2.3078,-2.3078,-2.3078,0.0,0.0,0.0,0.0,0.0,0.0,0.0,0.0,0.0,0.0,0.0,0.0,0.0,0.0,0.0,0.0,0.0,0.0,0.0,0.0,0.0,0.8804,0.8804,0.8804,0.8804,0.8804,0.848,0.7883,0.7128,0.6804,0.675,0.5764,0.5425,0.5604,0.5006,0.4813,0.4958,0.4986,0.4996,0.4996,0.4807,0.4729,0.471,0.4547,0.3608,0.2233,0.2306,0.1312,0.0,0.0,0.0,0.0,0.0,0.0,-0.1238,-0.212,-0.3524,-0.5245,-0.7001,0.0,0.0,0.0,0.0,0.0,0.0,0.0,0.0,0.0,0.0,0.0,0.0,0.0,0.0,0.0,0.0,0.0,0.0,0.0,0.0,0.0,0.0,0.0,0.0,0.0,0.0,0.0,0.0,0.0,-1.8008,-1.8654,-1.911,-1.9299,-2.0009,-2.0462,-2.059,-2.059,-2.059,-2.059,-2.059,-2.059,-2.0655,-2.2051,-2.275,-2.2884,-2.3017,-2.3005,-2.2884,-2.3065,-2.3005,-2.2884,-2.3078,-2.3078,-2.3078,-2.3078,-2.3078,-2.3078,0.0,0.0,0.0,0.0,0.0,0.0,0.0,0.0,0.0,0.0,0.0,0.0,0.0,0.0,0.0,0.0,0.0,0.0,0.0,0.0,0.0,0.8804,0.8804,0.8804,0.8804,0.8804,0.8752,0.8646,0.7937,0.7563,0.7503,0.555,0.471,0.4868,0.4889,0.4969,0.5111,0.5247,0.5304,0.5235,0.4435,0.4043,0.3898,0.3211,0.2284,0.1284,0.1446,0.0863,0.0,0.0,0.0,0.0,0.0,0.0,-0.0335,-0.1205,-0.2202,-0.3321,0.0,0.0,0.0,0.0,0.0,0.0,0.0,0.0,0.0,0.0,0.0,0.0,0.0,0.0,0.0,0.0,0.0,0.0,0.0,0.0,0.0,0.0,0.0,0.0,0.0,0.0,0.0,0.0,0.0,0.0,-1.8008,-1.8144,-1.8529,-1.9309,-1.9431,-1.9824,-2.059,-2.059,-2.059,-2.059,-2.059,-2.059,-2.059,-2.0846,-2.1353,-2.2125,-2.2823,-2.2702,-2.2125,-2.2823,-2.2702,-2.2137,-2.2823,-2.3078,-2.3078,-2.3078,-2.3078,-2.3078,0.0,0.0,0.0,0.0,0.0,0.0,0.0,0.0,0.0,0.0,0.0,0.0,0.0,0.0,0.0,0.0,0.0,0.0,0.0,0.0,0.0,0.8804,0.8804,0.8804,0.8804,0.8804,0.8804,0.8804,0.8049,0.7509,0.7074,0.571,0.515,0.5324,0.5026,0.4999,0.5142,0.5294,0.5428,0.5296,0.435,0.3985,0.3813,0.2998,0.206,0.1188,0.1268,0.0739,0.0,0.0,0.0,0.0,0.0,0.0,0.0,0.0,-0.1206,0.0,-0.5304,0.0,0.0,0.0,0.0,0.0,0.0,0.0,0.0,0.0,0.0,0.0,0.0,0.0,0.0,0.0,0.0,0.0,0.0,0.0,0.0,0.0,0.0,0.0,0.0,0.0,0.0,0.0,0.0,-1.7764,-1.7998,-1.8008,-1.8212,-1.8596,-1.8586,-1.8787,-1.911,-1.911,-1.911,-1.911,-1.911,-1.911,-1.9177,-1.9628,-2.0333,-2.1175,-2.1542,-2.1479,-2.1164,-2.1542,-2.1479,-2.1239,-2.2125,-2.2445,-2.2506,-2.2944,-2.3078,-2.3078,0.0,0.0,0.0,0.0,0.0,0.0,0.0,0.0,0.0,0.0,0.0,0.0,0.0,0.0,0.0,0.0,0.0,0.0,0.0,0.0,0.0,0.8804,0.8804,0.8804,0.8804,0.8804,0.8804,0.8804,0.8049,0.7402,0.6858,0.5923,0.5563,0.5709,0.5081,0.4982,0.5196,0.527,0.5193,0.4957,0.4015,0.3547,0.3211,0.2344,0.1609,0.0939,0.0939,0.0538,0.0,0.0,0.0,0.0,0.0,0.0,0.0,0.0,0.0,0.0,0.0,0.0,0.0,0.0,0.0,0.0,0.0,0.0,0.0,0.0,0.0,0.0,0.0,0.0,0.0,0.0,0.0,0.0,0.0,0.0,0.0,0.0,0.0,0.0,0.0,0.0,0.0,0.0,0.0,-1.7353,-1.7666,-1.7686,-1.7686,-1.7686,-1.7793,-1.7852,-1.7852,-1.7959,-1.8008,-1.8008,-1.8008,-1.8008,-1.8008,-1.8654,-1.9299,-1.9944,-2.0398,-2.0462,-2.0268,-2.0526,-2.0462,-2.0333,-2.1227,-2.169,-2.1939,-2.231,-2.2628,-2.2763,0.0,0.0,0.0,0.0,0.0,0.0,0.0,0.0,0.0,0.0,0.0,0.0,0.9969,0.9814,0.9517,0.891,0.8804,0.0,0.0,0.0,0.0,0.8804,0.8804,0.0,0.8804,0.8804,0.8804,0.8804,0.8049,0.767,0.7616,0.6195,0.5492,0.5508,0.4973,0.4942,0.5342,0.5203,0.4702,0.4015,0.3145,0.2209,0.134,0.0471,0.0135,0.0067,0.0,0.0,0.0,0.0,0.0,0.0,0.0,0.0,0.0,0.0,0.0,0.0,0.0,0.0,0.0,0.0,0.0,0.0,0.0,0.0,0.0,0.0,0.0,0.0,0.0,0.0,0.0,0.0,0.0,0.0,0.0,0.0,0.0,0.0,0.0,0.0,0.0,0.0,0.0,0.0,0.0,-1.6777,-1.6797,-1.6797,-1.6797,-1.6797,-1.7197,-1.7422,-1.7422,-1.7812,-1.8008,-1.8008,-1.8008,-1.8008,-1.8008,-1.8076,-1.8076,-1.8202,-1.9879,-2.0139,-1.9431,-2.0268,-2.0139,-1.9431,-2.0333,-2.1164,-2.1815,-2.1037,-2.1227,-2.1815,0.0,0.0,0.0,0.0,0.0,0.0,0.0,0.0,0.0,0.0,0.0,0.0,0.0,1.0228,0.9799,1.0014,0.9639,0.0,0.0,0.0,0.0,0.8551,0.8551,0.8551,0.8551,0.8551,0.8701,0.903,0.8806,0.8106,0.6966,0.6475,0.578,0.5008,0.4883,0.4928,0.5087,0.5223,0.5111,0.4755,0.328,0.2476,0.2009,0.0538,0.0,0.0,0.0,0.0,0.0,0.0,0.0,0.0,0.0,0.0,0.0,0.0,-0.0202,0.0,0.0,0.0,0.0,0.0,0.0,0.0,0.0,0.0,0.0,0.0,0.0,0.0,0.0,0.0,0.0,0.0,0.0,0.0,0.0,0.0,0.0,0.0,0.0,0.0,0.0,0.0,0.0,0.0,0.0,0.0,-1.6655,-1.6665,-1.6665,-1.6665,-1.6885,-1.6963,-1.6963,-1.7119,-1.7334,-1.7607,-1.7607,-1.7744,-1.8008,-1.8008,-1.8008,-1.8008,-1.8654,-1.8721,-1.8462,-1.8787,-1.8721,-1.8529,-1.9431,-1.9955,-2.0268,-2.0526,-2.0782,-2.1037,0.0,0.0,0.0,0.0,0.0,0.0,0.0,0.0,0.0,1.2683,0.0,0.0,0.0,0.0,0.9904,1.0351,0.9962,0.9686,0.9686,0.9686,0.944,0.8838,0.8838,0.8838,0.8838,0.8539,0.8567,0.8921,0.8632,0.7875,0.6694,0.6418,0.588,0.5038,0.497,0.4945,0.4999,0.5148,0.0,0.4821,0.0,0.0,0.2076,0.0,0.0,0.0,0.0,0.0,0.0,0.0,0.0,0.0,0.0,0.0,0.0,0.0,0.0,0.0,-0.1404,0.0,0.0,0.0,0.0,0.0,0.0,0.0,0.0,0.0,0.0,0.0,0.0,0.0,0.0,0.0,0.0,0.0,0.0,0.0,0.0,0.0,0.0,0.0,0.0,0.0,0.0,0.0,0.0,0.0,-1.5828,-1.5589,-1.5654,-1.6056,-1.6379,-1.6582,-1.6665,-1.6665,-1.6885,-1.7168,-1.7168,-1.7393,-1.7803,-1.7803,-1.7881,-1.8008,-1.8008,-1.8008,-1.8008,-1.8008,-1.8008,-1.8076,-1.8664,-1.9044,-1.9299,-1.9628,-1.9879,-2.0139,0.0,0.0,0.0,0.0,0.0,0.0,0.0,0.0,1.0766,1.0766,0.0,0.0,0.0,0.0,0.0,0.9706,0.9706,0.9706,0.9706,0.9706,0.9706,0.9706,0.0,0.0,0.9706,0.8863,0.8434,0.8428,0.7542,0.7076,0.6857,0.6116,0.5776,0.5731,0.5142,0.4992,0.5121,0.0,0.4586,0.3949,0.0,0.2143,0.1274,0.0,0.0,0.0,0.0,0.0,0.0,0.0,0.0,0.0,0.0,0.0,0.0,0.0,0.0,0.0,0.0,0.0,0.0,0.0,0.0,0.0,0.0,0.0,0.0,0.0,0.0,0.0,0.0,0.0,0.0,0.0,0.0,0.0,0.0,0.0,0.0,0.0,0.0,0.0,0.0,0.0,0.0,0.0,0.0,-1.3312,-1.4145,-1.3425,-1.3595,-1.4772,-1.5609,-1.625,-1.6626,-1.6626,-1.6699,-1.6709,-1.6709,-1.6943,-1.7363,-1.7363,-1.7598,-1.7988,-1.7988,-1.7998,-1.8008,-1.8008,-1.8008,-1.8008,-1.8008,-1.8529,-1.9177,-1.8337,-1.8529,-1.911,0.0,0.0,0.0,0.0,0.0,0.0,1.3521,1.2881,1.2166,0.0,0.0,0.0,1.0438,1.0383,1.0383,1.0383,1.0383,1.0383,1.0383,1.0383,1.0066,0.9438,0.9438,0.9438,0.9438,0.9182,0.8951,0.869,0.8448,0.7597,0.6265,0.5951,0.5556,0.5146,0.49,0.4894,0.5135,0.5209,0.0,0.4888,0.3345,0.2544,0.0,0.0,0.0,0.0,0.0,0.0,0.0,0.0,0.0,0.0,0.0,0.0,0.0,0.0,0.0,0.0,0.0,0.0,0.0,0.0,0.0,0.0,0.0,0.0,0.0,0.0,0.0,0.0,0.0,0.0,0.0,0.0,0.0,0.0,0.0,0.0,0.0,0.0,0.0,0.0,0.0,0.0,0.0,0.0,-1.2143,-1.2512,-1.3304,-1.313,-1.3172,-1.3525,-1.4315,-1.48,-1.4911,-1.5473,-1.5937,-1.625,-1.625,-1.6484,-1.6914,-1.6914,-1.7148,-1.7559,-1.7559,-1.7734,-1.8008,-1.8008,-1.8008,-1.8008,-1.8008,-1.8144,-1.8337,-1.8076,-1.8134,-1.8337,0.0,0.0,0.0,0.0,0.0,1.3965,1.3295,1.281,1.2205,0.0,0.0,0.0,1.0618,1.0624,1.0624,1.0624,1.0624,1.0624,1.0624,1.0624,1.0238,0.9338,0.9274,0.9274,0.9274,0.8941,0.8867,0.9027,0.8264,0.7336,0.6161,0.5695,0.5339,0.5003,0.4914,0.5006,0.5233,0.0,0.0,0.0,0.3413,0.0,0.0,0.0672,0.0,0.0,0.0,0.0,0.0,0.0,0.0,0.0,0.0,0.0,0.0,0.0,0.0,0.0,0.0,0.0,0.0,0.0,0.0,0.0,0.0,-0.2678,0.0,0.0,0.0,0.0,0.0,0.0,0.0,0.0,0.0,0.0,0.0,0.0,0.0,0.0,0.0,0.0,0.0,0.0,0.0,-1.1288,-1.1288,-1.1476,-1.1973,-1.2642,-1.2818,-1.2512,-1.3304,-1.3726,-1.3726,-1.4154,-1.451,-1.4808,-1.4808,-1.5213,-1.5946,-1.5549,-1.6036,-1.7119,-1.6948,-1.7225,-1.7764,-1.7939,-1.8008,-1.8008,-1.8008,-1.8008,-1.8008,-1.8008,-1.8008,-1.8008,0.0,0.0,1.4619,1.3928,1.4037,1.3717,1.2258,1.202,1.1655,0.0,1.0681,1.0624,1.0624,1.0624,1.0624,1.0624,1.0624,1.0624,1.0624,1.0624,1.0238,0.9466,0.9338,0.9274,0.9274,0.842,0.835,0.9011,0.7437,0.6573,0.6291,0.5452,0.5138,0.5155,0.5138,0.0,0.0,0.0,0.0,0.5226,0.3413,0.2678,0.0,0.0,0.0,0.0,0.0,0.0,0.0,0.0,0.0,0.0,0.0,0.0,0.0,0.0,0.0,0.0,0.0,0.0,0.0,0.0,0.0,0.0,-0.2011,-0.241,0.0,0.0,0.0,0.0,0.0,0.0,0.0,0.0,0.0,0.0,0.0,0.0,0.0,0.0,0.0,0.0,0.0,-1.0561,-1.0624,-1.0624,-1.0624,-1.0624,-1.0624,-1.1973,-1.2397,-1.171,-1.2451,-1.2887,-1.2887,-1.2948,-1.3009,-1.3009,-1.3009,-1.3604,-1.4683,-1.3919,-1.4638,-1.6481,-1.6029,-1.6373,-1.7271,-1.7504,-1.7755,-1.8008,-1.8008,-1.8008,-1.8008,-1.8008,-1.8008,-1.8008,0.0,0.0,1.5225,1.5052,1.4582,1.4085,1.3777,1.3183,1.2451,1.1648,1.0982,1.0624,1.0624,1.0624,1.0624,1.0624,1.0624,1.0624,1.0624,1.0624,1.0491,1.0364,0.9658,0.9274,0.9274,0.842,0.7762,0.7177,0.685,0.6314,0.5574,0.5253,0.5196,0.5311,0.5186,0.5216,0.0,0.0,0.0,0.5226,0.3413,0.0,0.2477,0.0672,0.0,0.0,0.0,0.0,0.0,0.0,0.0,0.0,0.0,0.0,0.0,0.0,0.0,0.0,0.0,0.0,0.0,0.0,0.0,0.0,-0.0471,-0.0538,0.0,0.0,0.0,0.0,0.0,0.0,0.0,0.0,0.0,0.0,0.0,0.0,0.0,0.0,0.0,0.0,0.0,-1.0174,-1.0624,-1.0624,-1.0624,-1.0624,-1.0624,-1.0933,-1.0989,-1.0863,-1.1593,-1.2012,-1.2012,-1.2696,-1.3009,-1.3009,-1.3009,-1.3103,-1.3353,-1.3169,-1.3925,-1.5184,-1.4421,-1.4867,-1.6115,-1.558,-1.6365,-1.8008,-1.8008,-1.8008,-1.8008,-1.8008,-1.8008,-1.8008,0.0,1.541,1.5284,1.4864,1.4451,1.3906,1.3114,1.2687,1.2081,1.1288,1.0863,1.0624,1.0624,1.0624,1.0624,1.0624,1.0624,1.0624,1.0624,1.0624,1.0428,0.9977,0.953,0.9274,0.9274,0.8877,0.842,0.8027,0.7567,0.692,0.6009,0.5554,0.5318,0.5254,0.5399,0.5426,0.0,0.0,0.5583,0.5428,0.345,0.0,0.2477,0.0672,0.0,0.0,0.0,0.0,0.0,0.0,0.0,0.0,0.0,0.0,0.0,0.0,0.0,0.0,0.0,0.0,0.0,0.0,0.0,0.0,0.0,-0.0672,-0.0873,0.0,0.0,0.0,0.0,0.0,0.0,0.0,0.0,0.0,0.0,0.0,0.0,0.0,0.0,0.0,0.0,-0.946,-1.011,-1.0561,-1.0624,-1.0624,-1.0624,-1.0624,-1.0624,-1.0624,-1.0982,-1.1226,-1.1226,-1.16,-1.1787,-1.1787,-1.1787,-1.2027,-1.2389,-1.1965,-1.2615,-1.3908,-1.3273,-1.3679,-1.4754,-1.5201,-1.5751,-1.6374,-1.6504,-1.6862,-1.7285,-1.7304,-1.7588,-1.8008,1.541,0.0,1.5167,1.4569,1.4451,1.3957,1.2504,1.2258,1.1896,1.0989,1.0681,1.0624,1.0624,1.0624,1.0624,1.0624,1.0624,1.0624,1.0624,1.0624,1.0301,0.9594,0.9402,0.9297,0.9344,0.9215,0.9037,0.8887,0.822,0.7428,0.6501,0.591,0.5498,0.5274,0.564,0.5671,0.0,0.0,0.0,0.5633,0.0,0.3059,0.2854,0.1018,0.0339,0.0271,0.0068,0.0135,0.0202,0.0067,0.0,0.0202,0.0067,0.0135,0.0,0.0,0.0,0.0,0.0,0.0,0.0,0.0,0.0,0.0,0.0,0.0,0.0,-0.2011,0.0,0.0,0.0,0.0,0.0,0.0,0.0,0.0,0.0,0.0,0.0,0.0,0.0,0.0,0.0,-0.8549,-0.9396,-1.0301,-1.0364,-1.0428,-1.0561,-1.0624,-1.0624,-1.0624,-1.0624,-1.0624,-1.0624,-1.0624,-1.0624,-1.0624,-1.0624,-1.0926,-1.1531,-1.0926,-1.1421,-1.2712,-1.2254,-1.2534,-1.3459,-1.4695,-1.4816,-1.4239,-1.5155,-1.579,-1.6358,-1.6306,-1.6811,-1.7442,1.541,1.541,0.0,1.5294,1.5235,1.4932,1.4085,1.3906,1.3356,1.1834,1.1045,1.0624,1.0624,1.0624,0.0,0.0,0.0,0.0,1.0624,0.0,1.0561,1.0428,0.9722,0.9444,0.9669,0.893,0.821,0.75,0.7425,0.6871,0.5891,0.584,0.5759,0.5728,0.5779,0.0,0.0,0.0,0.58,0.0,0.4679,0.4308,0.0,0.2174,0.1392,0.1318,0.034,0.0471,0.1006,0.0,0.0538,0.1006,0.0,0.0538,0.0,0.0,0.0,0.0,0.0,0.0,0.0,0.0,0.114,0.0,0.0,0.0,-0.0202,-0.0269,0.0,0.0,0.0,0.0,0.0,0.0,0.0,0.0,0.0,0.0,0.0,0.0,0.0,0.0,0.0,0.0,-0.8484,-0.9402,-0.9466,-0.9786,-1.0561,-1.0624,-1.0624,-1.0624,-1.0624,-1.0624,-1.0624,-1.0624,-1.0624,-1.0624,-1.0624,-1.0624,-1.0744,-1.0624,-1.1108,-1.1896,-1.115,-1.1376,-1.2345,-1.2059,-1.2033,-1.2523,-1.5356,-1.6,-1.5376,-1.5376,-1.5446,-1.5517,1.541,1.541,0.0,1.4815,1.4332,1.3726,1.2923,1.2389,1.1841,1.117,1.0807,1.0624,0.0,0.0,0.0,0.0,0.0,1.0815,0.0,0.0,1.0614,1.0238,0.0,0.0,0.9793,0.8891,0.8314,0.8061,0.7495,0.6722,0.5803,0.5891,0.5844,0.5688,0.5857,0.0,0.5806,0.0,0.0,0.0,0.0,0.0,0.0,0.3264,0.2502,0.2422,0.1873,0.1923,0.2191,0.0,0.181,0.0,0.0,0.0,0.0,0.0,0.0,0.0,0.0,0.0,0.0,0.0,0.0,0.0,0.0,0.0,0.0605,0.0,0.0,0.0,0.0,0.0,0.0,0.0,0.0,0.0,0.0,0.0,0.0,0.0,0.0,0.0,0.0,0.0,0.0,0.0,0.0,-0.8941,-0.9786,-0.9849,-1.011,-1.0561,-1.0624,-1.0624,-1.0624,-1.0624,-1.0624,-1.0624,-1.0624,-1.0624,-1.0624,-1.0624,-1.0807,-1.1108,-1.0744,-1.0876,-1.134,-1.1959,-1.1977,-1.1859,-1.4026,-1.4665,-1.4314,-1.4314,-1.4665,-1.5234,1.5586,0.0,0.0,0.0,0.0,1.3129,1.2223,1.1361,1.0795,1.0795,0.0,0.0,1.0795,1.0982,0.0,0.0,0.0,1.1109,0.0,0.0,1.086,1.036,1.002,0.0,0.0,0.0,0.845,0.838,0.7662,0.6795,0.5928,0.604,0.5979,0.5779,0.0,0.5989,0.5932,0.0,0.0,0.6338,0.6338,0.6338,0.6076,0.4252,0.3505,0.3403,0.3055,0.3104,0.3305,0.2895,0.2929,0.0,0.2032,0.0,0.0,0.0,0.0,0.0,0.3347,0.0,0.0,0.0,0.0,0.0,0.0,0.0,0.0,0.0,0.0,0.0,0.0,0.0,0.0,0.0,0.0,0.0,0.0,0.0,0.0,0.0,0.0,0.0,0.0,0.0,0.0,-0.7567,-0.7632,-0.8027,-0.8877,-0.8941,-0.9332,-1.0238,-1.0238,-1.0364,-1.0624,-1.0624,-1.0624,-1.0624,-1.0624,-1.0624,-1.0624,-1.0624,-1.0624,-1.0624,-1.0624,-1.0624,-1.0728,-1.1983,-1.2037,-1.1552,-1.2777,-1.331,-1.331,-1.331,-1.381,-1.4378,1.6105,1.5703,0.0,0.0,0.0,0.0,0.0,0.0,0.0,0.0,0.0,0.0,0.0,0.0,0.0,0.0,0.0,1.141,1.141,0.0,1.1348,0.0,0.0,1.0061,0.0,0.0,0.0,0.7842,0.7766,0.7234,0.6247,0.6251,0.6247,0.6234,0.6091,0.6108,0.6237,0.6091,0.6118,0.6338,0.6338,0.6338,0.6163,0.0,0.4591,0.4347,0.3409,0.0,0.0,0.3405,0.3559,0.0,0.0,0.0,0.0,0.0,0.0,0.0,0.0,0.0,0.0,0.4217,0.0,0.0,0.0,0.0,0.2678,0.0,0.0,0.0,0.0,0.0,0.0,0.0,0.0,0.0,0.0,0.0,0.0,0.0,0.0,0.0,0.0,0.0,0.0,-0.6588,-0.6719,-0.7111,-0.8027,-0.8027,-0.842,-0.9338,-0.9338,-0.9722,-1.0561,-1.0624,-1.0624,-1.0624,-1.0624,-1.0624,-1.0624,-1.0624,-1.0624,-1.0624,-1.0624,-1.0624,-1.0665,-1.1182,-1.1423,-1.1483,-1.2071,-1.2372,-1.2372,-1.2372,-1.2372,-1.2372,0.0,0.0,0.0,0.0,0.0,0.0,0.0,1.2579,0.0,0.0,0.0,0.0,0.0,0.0,1.1637,0.0,0.0,1.1717,1.1717,1.1717,0.0,0.0,0.0,1.0566,0.0,0.0,0.0,0.0,0.0,0.6644,0.6338,0.6338,0.6338,0.6254,0.0,0.6115,0.0,0.0,0.0,0.0,0.0,0.6338,0.6254,0.0,0.0,0.5632,0.5164,0.5208,0.0,0.5032,0.5048,0.5068,0.4069,0.437,0.4941,0.4241,0.442,0.0,0.0,0.0,0.5296,0.5024,0.0,0.0,0.0,0.0,0.0,0.0,0.0,0.0,0.0,0.0,0.0873,0.0873,0.0404,0.0,0.0,0.0,0.0,0.0,0.0,0.0,0.0,0.0,0.0,-0.4872,-0.5477,-0.6207,-0.7111,-0.7111,-0.7567,-0.842,-0.842,-0.8608,-0.8865,-0.8865,-0.8865,-0.8865,-0.8865,-0.9192,-0.9722,-0.9722,-1.0047,-1.0624,-1.0624,-1.0624,-1.0665,-1.1189,-1.1423,-1.1483,-1.2071,-1.2305,-1.2305,-1.2305,-1.2305,-1.2305,1.6963,0.0,0.0,0.0,0.0,0.0,0.0,0.0,0.0,0.0,1.1737,0.0,1.1737,0.0,1.1944,0.0,1.1911,1.2024,1.2024,1.2024,0.0,1.1385,1.1013,0.0,0.0,0.0,0.0,0.0,0.0,0.7173,0.6795,0.6795,0.6644,0.6254,0.0,0.0,0.0,0.0,0.6118,0.0,0.0,0.6338,0.0,0.0,0.6338,0.6247,0.0,0.5802,0.6019,0.5544,0.5628,0.5719,0.5048,0.5173,0.5431,0.4784,0.4995,0.5428,0.5428,0.5428,0.0,0.5428,0.5428,0.0,0.4619,0.0,0.0,0.0,0.0,0.0,0.0,0.0,0.1808,0.1808,0.1074,0.0337,0.0,0.0,0.0,0.0,0.0,0.0,0.0,0.0,-0.3413,-0.4417,-0.4755,-0.5282,0.0,0.0,-0.6658,-0.7502,-0.7567,-0.7697,-0.8027,-0.8027,-0.8027,-0.8027,-0.8027,-0.8285,-0.8812,-0.8812,-0.9134,-0.9709,-0.9977,-1.011,-1.0219,-1.1048,-1.1423,-1.1483,-1.2071,-1.2305,-1.2305,-1.2305,-1.2305,-1.2305,0.0,0.0,0.0,0.0,1.4714,0.0,0.0,0.0,1.2378,0.0,1.2305,1.2305,1.2305,1.2305,1.2305,1.2305,1.2305,0.0,1.2305,1.2305,0.0,0.0,1.1391,1.0415,0.9372,0.0,0.0,0.0,0.0,0.0,0.7859,0.7859,0.7326,0.6331,0.618,0.0,0.6251,0.6105,0.6125,0.6338,0.6338,0.6338,0.6338,0.6338,0.6338,0.618,0.5157,0.547,0.618,0.5157,0.531,0.604,0.603,0.5837,0.561,0.5593,0.5488,0.5435,0.5428,0.5428,0.5428,0.5428,0.0,0.0,0.0,0.0,0.5428,0.0,0.0,0.0,0.0,0.0,0.0,0.2744,0.2009,0.1074,0.0202,0.0,0.0,0.0,0.0,0.0,0.0,-0.1809,-0.2477,-0.509,-0.4486,-0.4417,0.0,0.0,-0.5749,-0.6588,-0.6654,-0.7046,-0.7832,-0.7897,-0.7897,-0.7897,-0.7897,-0.7897,-0.7957,-0.7957,-0.7962,-0.8027,-0.8877,-0.9204,-0.9373,-1.0779,-1.1354,-1.1414,-1.2071,-1.2305,-1.2305,-1.2305,-1.2305,-1.2305,1.7852,1.6798,1.5562,0.0,1.5159,1.5296,0.0,0.0,0.0,0.0,1.2305,1.2305,1.2305,1.2305,1.2305,1.2305,1.2305,0.0,0.0,0.0,0.0,1.2305,1.2077,1.1471,1.0415,1.0415,0.0,0.8917,0.0,0.0,0.8917,0.8917,0.8389,0.7399,0.0,0.0,0.6257,0.6217,0.6224,0.6338,0.6338,0.6338,0.0,0.0,0.6338,0.6261,0.6022,0.6099,0.6261,0.5944,0.6076,0.6179,0.6064,0.5976,0.5874,0.5654,0.5562,0.5504,0.5459,0.5428,0.5428,0.5428,0.5428,0.5428,0.0,0.0,0.0,0.0,0.0,0.0,0.0,0.0,0.0,0.368,0.2945,0.2009,0.0,0.0,0.0,0.0,0.0,0.0,0.0,-0.1676,-0.2611,-0.3345,-0.3749,-0.4417,-0.5359,0.0,0.0,-0.5686,-0.5752,-0.5815,-0.6079,-0.6079,-0.6079,-0.6079,-0.6079,-0.6404,-0.7046,-0.7046,-0.7372,-0.8027,-0.8226,-0.835,-0.8452,-0.9882,-1.0453,-1.0578,-1.1781,-1.2305,-1.2305,-1.2305,-1.2305,-1.2305,1.8008,0.0,0.0,1.4593,0.0,0.0,1.3375,0.0,0.0,1.2553,1.2385,0.0,1.2485,1.2378,1.2305,1.2305,1.2305,0.0,0.0,0.0,0.0,1.2305,1.2305,1.1848,1.0783,1.1242,0.0,0.9296,0.0,0.0,0.8694,0.9069,0.8542,0.7173,0.0,0.6795,0.0,0.6338,0.6338,0.6338,0.6338,0.0,0.0,0.6338,0.6338,0.6338,0.6338,0.6338,0.6257,0.5786,0.5944,0.6167,0.5616,0.5701,0.5922,0.5315,0.5332,0.5569,0.5484,0.5413,0.5428,0.5428,0.5428,0.5428,0.5428,0.5428,0.5428,0.0,0.0,0.0,0.0,0.0,0.0,0.0,0.0,0.0,0.0,0.0,0.0,0.0,0.0,0.0,0.0,-0.1594,-0.2644,-0.2674,-0.3145,-0.3813,0.0,0.0,0.0,-0.5362,-0.5024,-0.4957,-0.5428,-0.5024,-0.5024,-0.5428,-0.5428,-0.5686,-0.6137,-0.6137,-0.64,-0.6859,-0.7242,-0.7489,-0.7603,-0.8896,-0.946,-0.9658,-1.0636,-1.1248,-1.162,-1.1174,-1.1552,-1.2224,0.0,0.0,0.0,0.0,0.0,0.0,0.0,1.2325,0.0,1.2782,0.0,1.2478,1.2849,1.2579,1.2425,1.2425,0.0,1.2405,1.2365,1.2365,1.2345,1.2305,1.2305,1.1848,1.0783,1.1774,0.0,0.0,0.0,0.0,0.8237,0.9069,0.8389,0.0,0.0,0.0,0.0,0.6338,0.6338,0.0,0.6338,0.6338,0.6338,0.6338,0.6338,0.6338,0.6338,0.6338,0.618,0.5237,0.555,0.6103,0.5237,0.5393,0.5829,0.4972,0.5186,0.564,0.5599,0.5494,0.5452,0.5432,0.5428,0.5428,0.5428,0.5428,0.5428,0.5428,0.5428,0.5428,0.0,0.0,0.0,0.0,0.0,0.0,0.0,0.0,0.0,0.0,0.0,0.0,0.0,0.0,-0.2406,-0.2538,-0.2544,-0.2945,0.0,0.0,0.0,-0.5362,-0.4619,0.0,-0.5226,0.0,-0.4553,-0.5226,-0.5359,-0.5428,-0.5428,-0.5428,-0.5428,-0.5428,-0.6203,-0.6631,-0.6817,-0.7976,-0.8628,-0.8861,-0.9215,-0.982,-1.049,-0.9593,-1.0426,-1.1774,0.0,0.0,0.0,0.0,0.0,1.4,1.2893,1.2458,1.2412,1.2782,1.2775,1.2786,1.3093,1.3086,1.3053,1.3053,1.3053,0.0,0.0,0.0,0.0,1.2311,1.2305,1.1848,1.0783,1.1774,1.1694,0.0,0.0,0.0,1.026,1.0484,0.0,0.0,0.0,0.0,0.6338,0.6338,0.0,0.6338,0.6338,0.6338,0.6338,0.6338,0.6338,0.6338,0.6338,0.6338,0.6261,0.6103,0.618,0.6261,0.6103,0.616,0.6193,0.5839,0.5841,0.5898,0.5657,0.5569,0.5518,0.5459,0.5428,0.5428,0.5428,0.5428,0.5428,0.5428,0.5428,0.5428,0.5428,0.0,0.0,0.0,0.0,0.0,0.0,0.0,0.0,0.0,0.0,0.0,0.0,0.0,0.0,0.0,0.0,0.0,0.0,0.0,0.0,0.0,-0.5226,0.0,0.0,0.0,-0.4821,-0.4284,-0.5024,-0.5428,-0.5428,-0.5428,-0.5428,-0.5428,-0.5557,-0.5713,-0.5942,-0.707,-0.821,-0.9241,-0.9281,-0.9372,-0.9523,-0.9372,-0.9523,-0.9825,0.0,0.0,0.0,0.0,0.0,0.0,0.0,1.2866,0.0,1.3173,1.308,1.31,1.34,1.33,1.3213,1.3213,1.3213,1.3146,1.2999,1.2986,1.2852,1.2545,1.2532,0.0,1.162,1.2077,1.1842,1.0783,0.0,0.0,1.0045,0.0,0.0,0.7783,0.0,0.6718,0.0,0.0,0.0,0.6338,0.6338,0.6338,0.6338,0.6338,0.6338,0.6338,0.6338,0.6338,0.6338,0.6338,0.6338,0.6183,0.5628,0.5867,0.6167,0.5549,0.5632,0.5983,0.5759,0.5647,0.5552,0.5399,0.5428,0.5428,0.5428,0.5428,0.5428,0.5428,0.5428,0.5428,0.5428,0.5428,0.0,0.0,0.0,0.0,0.0,0.0,0.0,0.0,0.0,0.0,0.0,0.0,0.0,0.0,0.0,0.0,0.0,0.0,0.0,0.0,0.0,0.0,0.0,0.0,0.0,-0.3345,-0.4217,-0.4686,-0.4686,-0.516,-0.5428,-0.5432,-0.5447,-0.5562,-0.5785,-0.6452,-0.7171,-0.7783,-0.7783,-0.8084,-0.8466,-0.7931,-0.8089,-0.8542,0.0,1.7451,0.0,0.0,1.5002,0.0,1.3459,1.3407,1.3527,1.3627,1.3447,1.3414,1.3707,1.3534,1.3394,1.3394,1.3394,1.3373,1.3307,1.3307,1.3166,1.2936,1.2856,1.2714,1.2405,1.2338,1.1922,0.0,0.0,0.0,0.0,0.0,0.0,0.0,0.0,0.0,0.0,0.0,0.6338,0.6338,0.6338,0.6338,0.6338,0.6338,0.6338,0.6338,0.6338,0.6338,0.6338,0.6338,0.6338,0.618,0.5315,0.5628,0.6103,0.5315,0.5552,0.6047,0.5891,0.5745,0.5599,0.5447,0.5452,0.5428,0.5428,0.5428,0.5428,0.5428,0.5428,0.5428,0.5428,0.5428,0.0,0.0,0.0,0.0,0.0,0.0,0.0,0.0,0.0,0.0,0.0,0.0,0.0,0.0,0.0,0.0,0.0,0.0,0.0,0.0,0.0,-0.1876,-0.241,0.0,-0.1876,-0.241,-0.3278,-0.3813,-0.4015,-0.4755,-0.5243,-0.5416,-0.5538,-0.5688,-0.5871,-0.6149,-0.6338,-0.6338,-0.6338,-0.6795,-0.7403,-0.6567,-0.6795,-0.748,0.0,0.0,0.0,0.0,0.0,0.0,0.0,1.4055,1.4215,1.3707,1.3621,1.3714,1.4015,1.4021,1.4008,1.4008,1.4008,1.3895,1.3539,1.3519,1.3474,1.318,1.2899,1.2808,1.2782,1.2438,1.2224,0.0,0.0,0.0,0.0,0.0,0.0,0.0,0.0,0.0,0.0,0.6338,0.6338,0.6338,0.6338,0.6338,0.6338,0.6338,0.6338,0.6338,0.6338,0.6338,0.6338,0.6338,0.6338,0.6261,0.618,0.6183,0.6261,0.618,0.6173,0.6207,0.6051,0.5898,0.5745,0.5603,0.5464,0.5428,0.5428,0.5428,0.5428,0.5428,0.5428,0.5428,0.5428,0.5428,0.5428,0.0,0.0,0.0,0.0,0.0,0.0,0.0,0.0,0.0,0.0,0.0,0.0,0.0,0.0,0.0,0.0,0.0,0.0,-0.2678,0.0,-0.221,-0.1407,-0.221,-0.221,-0.1474,-0.2342,-0.3211,-0.4015,-0.4082,-0.4684,-0.5569,-0.5583,-0.5749,-0.602,-0.6193,-0.6338,-0.6338,-0.6338,-0.6338,-0.6416,-0.6338,-0.6338,-0.6412,0.0,0.0,0.0,0.0,0.0,0.0,0.0,1.4636,1.4703,1.4462,1.4436,1.4482,1.4603,1.4616,1.4616,1.4616,1.4449,1.4295,1.4175,1.4008,1.3774,1.3487,1.3353,1.32,1.3026,1.2726,1.2565,0.0,0.0,0.0,0.0,0.0,0.0,0.0,0.0,0.6338,0.6338,0.6338,0.6338,0.6338,0.6338,0.6338,0.6338,0.6338,0.6338,0.6338,0.6338,0.6338,0.6338,0.6338,0.6338,0.6338,0.6338,0.6338,0.6338,0.6338,0.6338,0.6227,0.6071,0.5918,0.5769,0.5627,0.5474,0.5428,0.5428,0.5428,0.5428,0.5428,0.5428,0.5428,0.5428,0.5428,0.5428,0.0,0.0,0.0,0.0,0.0,0.0,0.0,0.0,0.0,0.0,0.0,0.0,0.0,0.0,0.0,0.0,0.0,0.0,-0.1075,0.0,-0.0873,-0.0538,-0.0873,-0.0873,-0.0538,-0.1408,-0.2009,-0.241,-0.2945,-0.3839,-0.4932,-0.4937,-0.5445,-0.6173,-0.6237,-0.6338,-0.6338,-0.6338,-0.6338,-0.6338,-0.6338,-0.6338,-0.6338,1.804,0.0,1.6553,0.0,1.5479,1.5397,1.5053,1.5037,1.509,1.509,1.5164,1.5157,1.4983,1.4963,1.4963,1.4963,1.477,1.4649,1.4649,1.4376,1.4122,1.3908,1.3652,0.0,1.3347,1.3039,1.2879,1.2879,1.2277,0.0,0.0,0.0,0.0,0.0,0.7099,0.6338,0.6338,0.6338,0.6338,0.6338,0.6338,0.6338,0.6338,0.6338,0.6338,0.6338,0.6338,0.6338,0.6338,0.6338,0.6338,0.6338,0.6338,0.6338,0.6338,0.6338,0.6338,0.6237,0.6129,0.5986,0.5833,0.5688,0.5538,0.5416,0.5439,0.5428,0.5428,0.5428,0.5428,0.5428,0.5428,0.5428,0.5428,0.5428,0.0,0.0,0.0,0.0,0.0,0.0,0.0,0.5428,0.5428,0.0,0.0,0.0,0.0,0.0,0.0,0.0,0.0,0.0,0.0,0.0,0.0,0.0,0.0,0.0,-0.0605,-0.1074,-0.1341,-0.2316,-0.3235,-0.4038,-0.4066,-0.4535,-0.5392,-0.5392,-0.555,-0.5864,-0.5864,-0.6025,-0.6338,-0.6338,-0.6338,-0.6338,2.0186,1.9934,1.9246,1.6931,1.6595,1.625,1.5136,1.5204,1.5391,1.5391,1.5645,1.5605,1.5023,1.4963,1.4963,1.4963,1.4963,1.4957,1.4957,1.4676,1.4509,0.0,0.0,1.3559,1.3641,1.3353,1.3206,1.3206,0.0,0.0,1.1182,0.0,0.7859,0.7783,0.6718,0.6338,0.6338,0.6338,0.6338,0.6338,0.6338,0.6338,0.6338,0.6338,0.6338,0.6338,0.6338,0.6338,0.6338,0.6338,0.6338,0.6338,0.6338,0.6338,0.6338,0.6338,0.6338,0.6261,0.6257,0.6146,0.5989,0.5837,0.5691,0.5549,0.5396,0.5428,0.5428,0.5428,0.5428,0.5428,0.5428,0.5428,0.5428,0.5428,0.0,0.0,0.0,0.0,0.0,0.0,0.5428,0.5428,0.5428,0.0,0.0,0.0,0.0,0.0,0.0,0.0,0.0,0.0,0.0,0.0,0.0,0.0,0.0,0.0,0.0,-0.0471,-0.1343,-0.2409,-0.287,-0.2944,-0.3091,-0.3122,-0.3124,-0.3124,-0.3748,-0.4688,-0.4688,-0.5392,-0.6338,-0.6338,-0.6338,-0.6338,2.0472,1.9913,1.8949,1.7599,1.737,1.6912,1.5731,1.5631,1.5691,1.5691,1.5772,1.5758,1.5571,1.5558,1.5558,0.0,1.5371,1.5257,0.0,1.4983,1.473,1.4529,1.4342,1.4148,1.3948,1.3654,1.3507,1.3507,0.0,0.0,0.0,0.9787,0.8594,0.7783,0.6718,0.6338,0.6338,0.6338,0.6718,0.7249,0.6567,0.6718,0.7253,0.6567,0.6338,0.6338,0.6338,0.6338,0.6338,0.6338,0.6338,0.6338,0.6338,0.6338,0.6338,0.6338,0.6338,0.6338,0.6338,0.6146,0.5993,0.584,0.5694,0.5549,0.5463,0.5428,0.5428,0.5428,0.5428,0.5428,0.5428,0.5428,0.5428,0.5428,0.5428,0.0,0.0,0.0,0.0,0.0,0.0,0.5428,0.0,0.5428,0.0,0.0,0.0,0.0,0.0,0.0,0.0,0.0,0.0,0.0,0.0,0.0,0.0,0.0,0.0,-0.0136,-0.0416,-0.0803,-0.135,-0.2042,-0.2092,-0.2501,-0.3124,-0.3124,-0.3279,-0.3593,-0.3593,-0.4295,-0.5237,-0.5237,-0.5709,-0.6338,2.0974,2.005,1.888,1.7832,1.7318,1.6756,1.592,1.5832,1.5832,1.5832,1.5832,1.5832,1.5832,1.5832,0.0,1.5832,1.5665,1.5558,1.5558,1.5291,1.5044,1.4856,1.4636,1.4436,1.4255,0.0,0.0,1.3808,1.3101,1.208,1.0785,0.9746,0.8802,0.7981,0.6896,0.6427,0.6427,0.6427,0.6781,0.7266,0.6649,0.6691,0.7176,0.6567,0.6338,0.6338,0.6338,0.6338,0.6338,0.6338,0.6338,0.6338,0.6338,0.6338,0.6338,0.6338,0.6338,0.6338,0.6338,0.619,0.6064,0.5854,0.5735,0.5613,0.541,0.5428,0.5428,0.5428,0.5428,0.5428,0.5428,0.5428,0.5428,0.5428,0.5428,0.5428,0.5428,0.0,0.0,0.0,0.0,0.0,0.0,0.5428,0.0,0.0,0.0,0.0,0.0,0.0,0.0,0.1075,0.0672,0.0,0.0471,0.0135,0.0,0.0,0.0,0.0,0.0,0.0,-0.038,-0.0998,-0.1013,-0.1332,-0.1955,-0.1955,-0.2189,-0.2503,-0.2503,-0.3203,-0.4062,-0.4062,-0.453,-0.5157,2.1667,2.0486,0.0,0.0,1.6756,0.0,1.5825,1.5832,1.5832,1.5832,1.5832,1.5832,1.5832,1.5832,1.5832,1.5832,0.0,0.0,0.0,1.5578,1.5418,1.5398,1.4877,1.4569,1.4549,1.4269,1.4108,1.4088,1.2875,1.1606,1.0303,0.9155,0.8574,0.8319,0.727,0.6781,0.6702,0.6702,0.6699,0.6645,0.6568,0.6565,0.6521,0.6355,0.6352,0.643,0.6342,0.6338,0.6338,0.6338,0.6338,0.6338,0.6338,0.6338,0.6338,0.6338,0.6338,0.6338,0.6338,0.6338,0.619,0.5891,0.58,0.5711,0.5426,0.5428,0.5428,0.5428,0.5428,0.5428,0.5428,0.5428,0.5428,0.5428,0.5428,0.5428,0.5428,0.0,0.0,0.0,0.0,0.0,0.0,0.5428,0.5428,0.0,0.0,0.0,0.0,0.0,0.368,0.2744,0.1876,0.1407,0.1407,0.0605,0.0135,0.0068,0.007,0.0072,0.0,0.0,0.0,0.0,0.0,0.0,0.0,0.0,-0.0549,-0.1489,-0.1489,-0.2113,-0.2968,-0.2968,-0.3046,-0.3279,0.0,0.0,2.0477,1.9314,1.8041,1.6943,1.592,1.5832,1.5832,1.5832,1.5832,1.5832,1.5832,1.5832,1.5832,1.5832,1.5832,1.5832,1.5832,1.5765,1.5625,1.5404,1.5264,1.5084,1.4863,1.4569,1.4309,1.4088,1.3756,1.2977,1.1623,1.137,1.0192,0.8397,0.8156,0.751,0.6702,0.6702,0.7083,0.7694,0.6969,0.7589,0.8894,0.7092,0.6972,0.7584,0.6687,0.6338,0.6338,0.6338,0.6338,0.6338,0.6338,0.6338,0.6338,0.6338,0.6338,0.6338,0.6338,0.6338,0.6213,0.6023,0.5806,0.5593,0.547,0.5428,0.5428,0.5428,0.5428,0.5428,0.5428,0.5428,0.5428,0.5428,0.5428,0.5428,0.5428,0.5428,0.0,0.0,0.5428,0.5428,0.5428,0.5428,0.5428,0.0,0.0,0.0,0.0,0.509,0.435,0.2744,0.2477,0.2342,0.2342,0.2144,0.1694,0.097,0.1163,0.0823,0.0,0.0,0.0,0.0,0.0,0.0,0.0,0.0,-0.0157,-0.0392,-0.0392,-0.1019,-0.1957,-0.1957,-0.2425,-0.3124,2.3135,2.212,2.0935,1.967,1.8503,1.7225,1.6015,1.5832,1.5832,1.5832,1.5832,1.5832,1.5832,1.5832,1.5832,1.5832,1.5832,1.5832,1.5832,1.5832,1.5758,1.5605,1.5471,1.5324,1.5164,1.487,1.4576,1.4282,1.4282,1.3874,1.2989,1.2469,1.1455,1.0158,0.9661,0.9078,0.8412,0.7912,0.7954,0.8371,0.7217,0.742,0.8393,0.7647,0.7777,0.823,0.7427,0.7137,0.7047,0.6514,0.6338,0.6338,0.6338,0.6338,0.6338,0.6338,0.6338,0.6338,0.6338,0.6338,0.6207,0.5979,0.5755,0.5549,0.5463,0.5428,0.5428,0.5428,0.5428,0.5428,0.5428,0.5428,0.5428,0.5428,0.5428,0.5428,0.5428,0.5428,0.0,0.5428,0.5428,0.5428,0.5428,0.5428,0.5428,0.5428,0.0,0.0,0.5428,0.5428,0.4954,0.3949,0.3547,0.3278,0.3278,0.2982,0.2576,0.2101,0.2235,0.1974,0.1383,0.0935,0.0706,0.0706,0.0236,0.0,0.0,0.0,0.0,0.0,0.0,-0.0392,-0.0863,-0.0863,-0.1184,-0.175,2.3135,2.212,2.0935,1.967,1.8503,1.7225,1.6015,1.5832,1.5832,1.5832,1.5832,1.5832,1.5832,1.5832,1.5832,1.5832,1.5832,1.5832,1.5832,1.5832,1.5832,1.5832,1.5591,1.5464,1.5464,1.5177,1.4883,1.4589,1.4543,1.4396,1.4148,1.3045,1.2498,1.2242,1.1295,1.0783,1.0524,0.9579,0.9052,0.8904,0.7893,0.7384,0.7424,0.8374,0.8686,0.8664,0.8319,0.8237,0.8032,0.672,0.6278,0.6338,0.6338,0.6338,0.6338,0.6338,0.6338,0.6338,0.6338,0.6338,0.6193,0.5908,0.5728,0.5583,0.543,0.5446,0.5428,0.5428,0.5428,0.5428,0.5428,0.5428,0.5428,0.5428,0.5428,0.5428,0.5428,0.0,0.5428,0.5428,0.5428,0.5428,0.5428,0.5428,0.5428,0.5428,0.5428,0.5428,0.5428,0.5428,0.5439,0.5463,0.4648,0.4252,0.4268,0.3691,0.3323,0.3319,0.3332,0.3219,0.3046,0.219,0.1802,0.1802,0.0706,0.0235,0.0236,0.0079,0.0,0.0,0.0,0.0,0.0,0.0,0.0,-0.0163,2.3135,2.212,2.0935,1.967,1.8503,1.7225,1.6015,1.5832,1.5832,1.5832,1.5832,1.5832,1.5832,1.5832,1.5832,1.5832,1.5832,1.5832,1.5832,1.5832,1.5832,1.5832,1.5785,1.5758,1.5758,1.5478,1.5184,1.4897,1.4643,1.4496,1.4449,1.4025,1.3294,1.2322,1.2151,1.1466,1.0611,1.0438,1.0331,1.0302,1.0129,1.0024,0.9976,1.0045,1.0055,0.9942,0.875,0.826,0.8049,0.6842,0.6359,0.6338,0.6338,0.6338,0.6338,0.6338,0.6338,0.6338,0.6338,0.6338,0.6217,0.604,0.5881,0.5732,0.5586,0.5454,0.5428,0.5428,0.5428,0.5428,0.5428,0.5428,0.5428,0.5428,0.5428,0.5428,0.5428,0.0,0.5428,0.5428,0.5428,0.5428,0.5428,0.5428,0.5428,0.5428,0.5428,0.5428,0.5428,0.5428,0.542,0.5549,0.5415,0.5401,0.5516,0.5514,0.5084,0.4293,0.4385,0.3969,0.3124,0.2968,0.289,0.2813,0.1801,0.1333,0.1254,0.0392,0.0,0.0,0.0,0.0,0.0,0.0,0.0,0.0,2.3135,2.2677,2.1854,2.0666,1.9488,1.8226,1.7037,1.6197,1.5832,1.5832,1.5832,1.5832,1.5832,1.5832,1.5832,1.5832,1.5832,1.5832,1.5832,1.5832,1.5832,1.5832,1.5832,1.5832,1.5832,1.5698,1.5484,1.5197,1.5057,1.491,1.475,1.4456,1.4051,1.3502,1.3357,1.2948,1.2431,1.1815,1.1552,1.1466,1.0869,1.0269,0.9826,1.1001,1.1043,1.0424,0.9702,0.9398,0.9127,0.7163,0.6427,0.6363,0.6285,0.6338,0.6338,0.6338,0.6338,0.6338,0.6338,0.6338,0.6224,0.6067,0.5915,0.5766,0.5623,0.5471,0.5428,0.5428,0.5428,0.5428,0.5428,0.5428,0.5428,0.5428,0.5428,0.0,0.0,0.5428,0.5428,0.5428,0.5428,0.5428,0.5428,0.5428,0.5428,0.5428,0.5428,0.5463,0.5481,0.5484,0.5552,0.5698,0.5705,0.5776,0.5922,0.5993,0.5842,0.5457,0.552,0.5315,0.4766,0.4217,0.3984,0.3904,0.2891,0.2425,0.2345,0.1878,0.1643,0.1645,0.1034,0.088,0.0802,0.0247,0.0,0.0,2.3135,2.3135,2.2677,2.148,2.0305,1.9131,1.787,1.6574,1.5832,1.5832,1.5832,1.5832,1.5832,1.5832,1.5832,1.5832,1.5832,1.5832,1.5832,1.5832,1.5832,1.5832,1.5832,1.5832,1.5832,1.5832,1.5718,1.5498,1.5431,1.5284,1.5057,1.4763,1.4623,1.4609,1.4322,1.4188,1.4097,1.3143,1.2681,1.2681,1.1735,1.0702,0.9923,1.1992,1.1986,1.1016,1.0921,1.0653,1.0055,0.7788,0.6767,0.6454,0.6342,0.6288,0.6338,0.6338,0.6338,0.6338,0.6338,0.6338,0.6234,0.6112,0.5969,0.5817,0.5674,0.5525,0.547,0.5435,0.5428,0.5428,0.5428,0.5428,0.5428,0.5428,0.0,0.0,0.0,0.5428,0.5428,0.5428,0.5428,0.5428,0.5428,0.5428,0.5442,0.5413,0.5413,0.5481,0.563,0.564,0.5705,0.585,0.5854,0.5928,0.6081,0.6084,0.6142,0.6338,0.6338,0.6338,0.6261,0.547,0.5079,0.5002,0.3904,0.3524,0.3465,0.3229,0.3161,0.3104,0.2354,0.1882,0.1559,0.0757,0.0257,0.0,2.3135,2.3135,2.2677,2.148,2.0305,1.9131,1.787,1.6574,1.5832,1.5832,1.5832,1.5832,1.5832,1.5832,1.5832,1.5832,1.5832,1.5832,1.5832,1.5832,1.5832,1.5832,1.5832,1.5832,1.5832,1.5832,1.5818,1.5798,1.5531,1.5384,1.5357,1.507,1.493,1.4917,1.4623,1.4489,1.4469,1.411,1.3997,1.3997,1.3913,1.3118,1.2157,1.347,1.3209,1.2151,1.2134,1.1382,1.0183,0.899,0.76,0.6471,0.6461,0.6366,0.6338,0.6338,0.6338,0.6338,0.6338,0.6338,0.6257,0.6247,0.6129,0.5973,0.582,0.5677,0.5535,0.5459,0.5428,0.5428,0.5428,0.5428,0.5428,0.5428,0.0,0.0,0.5428,0.5428,0.5428,0.5428,0.5428,0.5428,0.5428,0.5428,0.542,0.5562,0.5572,0.5637,0.5779,0.5786,0.5857,0.601,0.6013,0.6088,0.6244,0.6244,0.6251,0.6338,0.6338,0.6338,0.6261,0.6183,0.618,0.6103,0.5079,0.4668,0.4683,0.3794,0.3435,0.3586,0.3508,0.2759,0.1761,0.1716,0.0954,0.0,2.3135,2.3135,2.296,2.2492,2.14,2.0486,2.0034,1.8218,1.6943,1.6943,1.6292,1.5832,1.5832,1.5832,1.5832,1.5832,1.5832,1.5832,1.5832,1.5832,1.5832,1.5832,1.5832,1.5832,1.5832,1.5832,1.5832,1.5832,1.5718,1.5665,1.5658,1.5364,1.5231,1.5217,1.4923,1.4696,1.4509,1.4402,1.4255,1.4088,1.4088,1.3379,1.2413,1.3646,1.3379,1.2328,1.2328,1.2008,1.1308,0.9315,0.8346,0.7702,0.6771,0.6434,0.6376,0.6288,0.6338,0.6338,0.6338,0.6338,0.6338,0.6338,0.6142,0.6013,0.5956,0.5827,0.5705,0.5647,0.5562,0.5504,0.5504,0.5423,0.5428,0.5428,0.0,0.5428,0.5428,0.5428,0.5428,0.5428,0.5447,0.5504,0.5504,0.5583,0.5657,0.5718,0.5722,0.5786,0.5935,0.6034,0.6112,0.6173,0.6173,0.6203,0.6261,0.6338,0.6338,0.6338,0.6338,0.6338,0.6264,0.6352,0.639,0.6396,0.6083,0.5987,0.5952,0.5621,0.5485,0.5449,0.4758,0.4272,0.3768,0.3152,0.2121,0.1153,2.3135,2.3135,2.3135,2.3135,2.212,2.1293,2.1293,1.9579,1.8141,1.7785,1.6943,1.6197,1.5825,1.5832,1.5832,1.5832,1.5832,1.5832,1.5832,1.5832,1.5832,1.5832,1.5832,1.5832,1.5832,1.5832,1.5832,1.5832,1.5832,1.5832,1.5825,1.5625,1.5531,1.5518,1.5231,1.4983,1.4783,1.4596,1.4402,1.4215,1.4122,1.3561,1.2942,1.3822,1.3555,1.2851,1.2851,1.2589,1.2043,1.0429,0.9329,0.856,0.7491,0.6869,0.6444,0.6302,0.6338,0.6338,0.6338,0.6338,0.6338,0.6338,0.6179,0.6091,0.604,0.5949,0.5861,0.5813,0.5725,0.5657,0.5657,0.5572,0.5501,0.5501,0.5501,0.5501,0.5501,0.5501,0.5501,0.5501,0.5593,0.5657,0.5657,0.5745,0.582,0.5871,0.5874,0.6086,0.6539,0.643,0.6567,0.7249,0.6641,0.6437,0.6869,0.6514,0.6285,0.6329,0.6329,0.6352,0.64,0.6502,0.6546,0.6549,0.6654,0.6729,0.6773,0.6773,0.68,0.6763,0.599,0.5502,0.5075,0.4438,0.3393,0.2325,2.3135,2.3135,2.3135,2.3135,2.212,2.1293,2.1293,2.0305,1.9039,1.787,1.7684,1.7225,1.592,1.5832,1.5832,1.5832,1.5832,1.5832,1.5832,1.5832,1.5832,1.5832,1.5832,1.5832,1.5832,1.5832,1.5832,1.5832,1.5832,1.5832,1.5832,1.5832,1.5832,1.5818,1.5531,1.5398,1.5357,1.4776,1.4522,1.4496,1.4208,1.4088,1.4088,1.4088,1.4088,1.4088,1.4088,1.3294,1.2328,1.2328,1.0714,0.8696,0.8692,0.7698,0.6444,0.6302,0.6338,0.6338,0.6338,0.6338,0.6338,0.6338,0.6338,0.622,0.6067,0.603,0.5986,0.5837,0.5803,0.5803,0.5803,0.58,0.58,0.58,0.58,0.58,0.58,0.58,0.58,0.58,0.5803,0.5803,0.5803,0.5803,0.5867,0.602,0.603,0.6543,0.777,0.6872,0.7249,0.9226,0.733,0.6869,0.8045,0.6872,0.6332,0.6474,0.6474,0.6552,0.6702,0.6702,0.6702,0.6702,0.6705,0.679,0.6929,0.6929,0.7014,0.7139,0.7139,0.6425,0.5447,0.5447,0.4641,0.357,2.3135,2.3135,2.3135,2.3135,2.2775,2.258,2.258,2.1578,2.0657,2.0305,1.8772,1.7598,1.7131,1.6386,1.5832,1.5832,1.5832,1.5832,1.5832,1.5832,1.5832,1.5832,1.5832,1.5832,1.5832,1.5832,1.5832,1.5832,1.5832,1.5832,1.5832,1.5832,1.5832,1.5825,1.5738,1.5585,1.5384,1.5211,1.4897,1.4509,1.4429,1.4269,1.4088,1.4088,1.4088,1.4088,1.4088,1.3906,1.347,1.2589,1.1252,0.9719,0.7975,0.7044,0.6464,0.642,0.6339,0.6338,0.6338,0.6338,0.6338,0.6338,0.6338,0.6247,0.6203,0.6193,0.6179,0.6132,0.6037,0.5962,0.5962,0.5874,0.58,0.58,0.58,0.58,0.58,0.58,0.58,0.58,0.6542,0.6976,0.6976,0.7751,0.8305,0.8289,0.8294,0.8472,0.8841,0.8542,0.8755,0.9524,0.8985,0.8927,0.9531,0.7513,0.6485,0.663,0.663,0.6658,0.6705,0.681,0.6861,0.6865,0.6966,0.7034,0.7078,0.7078,0.7102,0.7139,0.7139,0.6871,0.6605,0.6605,0.5891,0.4821,2.3135,2.3135,2.3135,2.3135,2.3135,2.3135,2.3135,2.2492,2.1845,2.1382,2.0034,1.8956,1.8503,1.7311,1.6574,1.6574,1.6109,1.5832,1.5832,1.5832,1.5832,1.5832,1.5832,1.5832,1.5832,1.5832,1.5832,1.5832,1.5832,1.5832,1.5832,1.5832,1.5832,1.5832,1.5832,1.5732,1.5558,1.5444,1.519,1.4843,1.4616,1.4416,1.4249,1.4128,1.4088,1.4088,1.4088,1.4088,1.3997,1.3294,1.1906,1.0225,0.8243,0.7133,0.6627,0.6508,0.6413,0.6332,0.6278,0.6338,0.6338,0.6338,0.6338,0.6338,0.6338,0.6338,0.6338,0.6338,0.6186,0.6122,0.6122,0.6044,0.5983,0.5983,0.5983,0.5983,0.5983,0.5983,0.6127,0.6566,0.717,0.7755,0.8202,0.884,0.9296,0.9296,0.9296,0.9489,1.0035,0.9658,0.9993,1.1021,1.0311,1.0183,1.0903,0.8968,0.7835,0.745,0.745,0.7235,0.6878,0.697,0.701,0.7017,0.7102,0.7139,0.7139,0.7139,0.7139,0.7139,0.7139,0.7139,0.7139,0.7139,0.6694,0.6071,2.3135,2.3135,2.3135,2.3135,2.3135,2.3135,2.3135,2.3135,2.2687,2.1569,2.1382,2.0845,1.9761,1.8596,1.7777,1.7692,1.6574,1.5832,1.5832,1.5832,1.5832,1.5832,1.5832,1.5832,1.5832,1.5832,1.5832,1.5832,1.5832,1.5832,1.5832,1.5832,1.5832,1.5832,1.5832,1.5832,1.5812,1.5545,1.5424,1.5351,1.481,1.4569,1.4489,1.4229,1.4108,1.4088,1.4088,1.4088,1.4088,1.3997,1.2516,1.0489,0.9105,0.7947,0.6956,0.6675,0.6505,0.6461,0.6318,0.6281,0.6278,0.6264,0.6338,0.6338,0.6338,0.6338,0.6338,0.6338,0.6338,0.6338,0.6338,0.6338,0.6338,0.6338,0.6338,0.6338,0.6416,0.6412,0.6795,0.7783,0.8008,0.8461,0.9372,0.9544,0.963,0.963,0.9651,1.0138,1.1295,1.0517,1.1027,1.316,1.145,1.0991,1.2064,1.1227,1.0139,0.8883,0.8883,0.8377,0.7401,0.7316,0.7228,0.7228,0.7139,0.7139,0.7139,0.7139,0.7139,0.7139,0.7139,0.7139,0.7139,0.7139,0.7139,0.7139,2.3135,2.3135,2.3135,2.3135,2.3135,2.3135,2.3135,2.3135,2.3047,2.2765,2.1845,2.1203,2.0935,1.9852,1.8772,1.7777,1.6574,1.5832,1.5832,1.5832,1.5832,1.5832,1.5832,1.5832,1.5832,1.5832,1.5832,1.5832,1.5832,1.5832,1.5832,1.5832,1.5832,1.5832,1.5832,1.5832,1.5825,1.5758,1.5605,1.5384,1.5257,1.493,1.4509,1.4449,1.4282,1.4088,1.4088,1.4088,1.3997,1.3027,1.2328,1.1547,0.9529,0.8644,0.809,0.7098,0.6746,0.6617,0.6468,0.6427,0.64,0.6288,0.6338,0.6338,0.6338,0.6338,0.6338,0.6338,0.6338,0.6338,0.6338,0.6338,0.6338,0.6338,0.6338,0.6567,0.7326,0.748,0.7859,0.8846,0.9664,1.026,1.0484,1.1438,1.2031,1.2031,1.2247,1.2484,1.2785,1.2548,1.2756,1.3459,1.3127,1.3099,1.3639,1.338,1.2263,1.0196,1.0196,1.0048,0.9831,0.8886,0.854,0.8452,0.7489,0.7139,0.7139,0.7139,0.7139,0.7139,0.7139,0.7139,0.7139,0.7139,0.7139,0.7139,2.3135,2.3135,2.3135,2.3135,2.3135,2.3135,2.3135,2.3135,2.3135,2.3135,2.258,2.2129,2.2129,2.1123,1.9852,1.868,1.7397,1.6669,1.6669,1.6109,1.5832,1.5832,1.5832,1.5832,1.5832,1.5832,1.5832,1.5832,1.5832,1.5832,1.5832,1.5832,1.5832,1.5832,1.5832,1.5832,1.5832,1.5832,1.5745,1.5591,1.5451,1.5211,1.491,1.4623,1.4429,1.4275,1.4135,1.4088,1.3997,1.3379,1.2766,1.2066,1.0864,1.01,0.9402,0.813,0.8123,0.8334,0.7581,0.7377,0.7358,0.7354,0.6882,0.6342,0.6278,0.6338,0.6338,0.6338,0.6338,0.6338,0.6338,0.6338,0.649,0.6945,0.7022,0.7403,0.8389,0.8542,0.8917,0.9895,1.049,1.1061,1.1727,1.2472,1.2966,1.2966,1.312,1.3273,1.3407,1.3414,1.3554,1.3848,1.3854,1.3928,1.4088,1.4088,1.3476,1.2254,1.1729,1.1128,1.0611,1.0009,0.9753,0.9666,0.9052,0.8444,0.7929,0.7929,0.7577,0.7139,0.7139,0.7139,0.7139,0.7139,0.7139,0.7139,2.3135,2.3135,2.3135,2.3135,2.3135,2.3135,2.3135,2.3135,2.3135,2.3135,2.3135,2.3135,2.3135,2.2031,2.0935,1.9852,1.868,1.7963,1.7684,1.6669,1.6015,1.5832,1.5832,1.5832,1.5832,1.5832,1.5832,1.5832,1.5832,1.5832,1.5832,1.5832,1.5832,1.5832,1.5832,1.5832,1.5832,1.5832,1.5832,1.5805,1.5565,1.5438,1.5337,1.4803,1.4563,1.4482,1.4195,1.4088,1.4088,1.4088,1.347,1.2589,1.2328,1.1638,1.0661,0.9374,0.9578,0.9947,0.8991,0.8613,0.8526,0.8655,0.7886,0.7111,0.6984,0.6602,0.6338,0.649,0.6416,0.6338,0.649,0.6567,0.6868,0.7859,0.8084,0.8385,0.9442,0.963,1.003,1.1004,1.1196,1.1626,1.2722,1.3106,1.3287,1.3287,1.3333,1.3467,1.3707,1.3721,1.3834,1.4082,1.4088,1.4088,1.4088,1.4088,1.4088,1.4088,1.3118,1.2077,1.1219,1.0956,1.0864,1.0869,1.0697,1.0096,0.9148,0.8978,0.8277,0.7404,0.7139,0.7139,0.7139,0.7139,0.7139,0.7139,2.3135,2.3135,2.3135,2.3135,2.3135,2.3135,2.3135,2.3135,2.3135,2.3135,2.3135,2.3135,2.3135,2.2031,2.1203,2.1114,1.9943,1.8772,1.7785,1.7505,1.6943,1.5825,1.5832,1.5832,1.5832,1.5832,1.5832,1.5832,1.5832,1.5832,1.5832,1.5832,1.5832,1.5832,1.5832,1.5832,1.5832,1.5832,1.5832,1.5825,1.5785,1.5618,1.5357,1.503,1.4743,1.4482,1.4195,1.4088,1.4088,1.4088,1.3997,1.3646,1.2589,1.2151,1.1804,1.0661,0.9794,0.9238,0.9952,0.9396,0.8862,0.9759,0.9852,0.9661,0.9717,0.7936,0.6567,0.7403,0.6872,0.6567,0.7403,0.7629,0.7936,0.8922,0.9069,0.9442,1.0484,1.076,1.1372,1.2374,1.2764,1.2942,1.3146,1.3414,1.3587,1.3587,1.3821,1.3981,1.4021,1.4028,1.4048,1.4088,1.4088,1.4088,1.4088,1.4088,1.4088,1.4088,1.3913,1.3737,1.3561,1.251,1.2072,1.198,1.1037,1.0524,1.0265,0.9323,0.8803,0.854,0.7489,0.7139,0.7139,0.7139,0.7139,0.7139,2.3135,2.3135,2.3135,2.3135,2.3135,2.3135,2.3135,2.3135,2.3135,2.3135,2.3135,2.3135,2.3135,2.2589,2.2306,2.2306,2.1212,2.0305,1.9761,1.9039,1.8133,1.6943,1.685,1.6574,1.5825,1.5832,1.5832,1.5832,1.5832,1.5832,1.5832,1.5832,1.5832,1.5832,1.5832,1.5832,1.5832,1.5832,1.5832,1.5832,1.5832,1.5752,1.5605,1.5317,1.5023,1.471,1.4249,1.4088,1.4088,1.4088,1.4088,1.3997,1.347,1.3294,1.3033,1.1901,1.1214,1.0935,1.1335,1.0629,1.0018,1.1098,1.0808,1.0465,1.104,0.9732,0.8643,0.9034,0.8242,0.7848,0.896,0.8559,0.8713,1.0377,1.0612,1.1002,1.2016,1.2207,1.2531,1.3006,1.3267,1.3454,1.3454,1.3721,1.3895,1.3895,1.4015,1.4088,1.4088,1.4088,1.4088,1.4088,1.4088,1.4088,1.4088,1.4088,1.4088,1.4088,1.4088,1.4088,1.4088,1.3555,1.3294,1.3294,1.2778,1.2169,1.1466,1.1042,1.0009,0.889,0.8277,0.7665,0.7139,0.7139,0.7139,0.7139]}]]